<?xml version="1.0" encoding="UTF-8" standalone="no" ?>
<gpx xmlns="http://www.topografix.com/GPX/1/1" xmlns:xsi="http://www.w3.org/2001/XMLSchema-instance" xsi:schemaLocation="http://www.topografix.com/GPX/1/1 http://www.topografix.com/GPX/1/1/gpx.xsd" version="1.1" creator="VisuGPX - https://www.visugpx.com">
  <metadata>
    <name>LARUNS-COL DU SOULOR</name>
    <desc><![CDATA[TOURS DE FRANCE 2019  Laruns-col du Soulor]]></desc>
  </metadata>
  <trk>
    <name><![CDATA[LARUNS-COL DU SOULOR_1]]></name>
    <trkseg>
      <trkpt lat="42.98847" lon="-0.42511">
        <ele>516.6</ele>
        <time>2019-06-16T16:49:51.000Z</time>
      </trkpt>
      <trkpt lat="42.98813" lon="-0.42508">
        <ele>517.3</ele>
        <time>2019-06-16T16:49:51.546Z</time>
      </trkpt>
      <trkpt lat="42.98813" lon="-0.42508">
        <ele>517.3</ele>
        <time>2019-06-16T16:49:51.546Z</time>
      </trkpt>
      <trkpt lat="42.98811" lon="-0.42557">
        <ele>520.9</ele>
        <time>2019-06-16T16:49:52.122Z</time>
      </trkpt>
      <trkpt lat="42.98811" lon="-0.42557">
        <ele>520.9</ele>
        <time>2019-06-16T16:49:52.122Z</time>
      </trkpt>
      <trkpt lat="42.9881" lon="-0.42582">
        <ele>522.7</ele>
        <time>2019-06-16T16:49:52.416Z</time>
      </trkpt>
      <trkpt lat="42.9881" lon="-0.42582">
        <ele>522.7</ele>
        <time>2019-06-16T16:49:52.416Z</time>
      </trkpt>
      <trkpt lat="42.98812" lon="-0.42624">
        <ele>524.5</ele>
        <time>2019-06-16T16:49:52.910Z</time>
      </trkpt>
      <trkpt lat="42.98812" lon="-0.42624">
        <ele>524.5</ele>
        <time>2019-06-16T16:49:52.910Z</time>
      </trkpt>
      <trkpt lat="42.98815" lon="-0.42629">
        <ele>524.6</ele>
        <time>2019-06-16T16:49:52.986Z</time>
      </trkpt>
      <trkpt lat="42.98815" lon="-0.42629">
        <ele>524.6</ele>
        <time>2019-06-16T16:49:52.986Z</time>
      </trkpt>
      <trkpt lat="42.98816" lon="-0.42635">
        <ele>524.9</ele>
        <time>2019-06-16T16:49:53.058Z</time>
      </trkpt>
      <trkpt lat="42.98816" lon="-0.42635">
        <ele>524.9</ele>
        <time>2019-06-16T16:49:53.058Z</time>
      </trkpt>
      <trkpt lat="42.98814" lon="-0.4264">
        <ele>525</ele>
        <time>2019-06-16T16:49:53.125Z</time>
      </trkpt>
      <trkpt lat="42.98814" lon="-0.4264">
        <ele>525</ele>
        <time>2019-06-16T16:49:53.125Z</time>
      </trkpt>
      <trkpt lat="42.98808" lon="-0.42643">
        <ele>525</ele>
        <time>2019-06-16T16:49:53.227Z</time>
      </trkpt>
      <trkpt lat="42.98808" lon="-0.42643">
        <ele>525</ele>
        <time>2019-06-16T16:49:53.227Z</time>
      </trkpt>
      <trkpt lat="42.98803" lon="-0.42639">
        <ele>525</ele>
        <time>2019-06-16T16:49:53.320Z</time>
      </trkpt>
      <trkpt lat="42.98803" lon="-0.42639">
        <ele>525</ele>
        <time>2019-06-16T16:49:53.320Z</time>
      </trkpt>
      <trkpt lat="42.98802" lon="-0.4263">
        <ele>524.7</ele>
        <time>2019-06-16T16:49:53.427Z</time>
      </trkpt>
      <trkpt lat="42.98802" lon="-0.4263">
        <ele>524.7</ele>
        <time>2019-06-16T16:49:53.427Z</time>
      </trkpt>
      <trkpt lat="42.98804" lon="-0.42625">
        <ele>524.5</ele>
        <time>2019-06-16T16:49:53.494Z</time>
      </trkpt>
      <trkpt lat="42.98804" lon="-0.42625">
        <ele>524.5</ele>
        <time>2019-06-16T16:49:53.494Z</time>
      </trkpt>
      <trkpt lat="42.98802" lon="-0.42632">
        <ele>524.8</ele>
        <time>2019-06-16T16:49:53.582Z</time>
      </trkpt>
      <trkpt lat="42.98802" lon="-0.42632">
        <ele>524.8</ele>
        <time>2019-06-16T16:49:53.582Z</time>
      </trkpt>
      <trkpt lat="42.98794" lon="-0.4264">
        <ele>525</ele>
        <time>2019-06-16T16:49:53.741Z</time>
      </trkpt>
      <trkpt lat="42.98794" lon="-0.4264">
        <ele>525</ele>
        <time>2019-06-16T16:49:53.741Z</time>
      </trkpt>
      <trkpt lat="42.98786" lon="-0.42642">
        <ele>525</ele>
        <time>2019-06-16T16:49:53.871Z</time>
      </trkpt>
      <trkpt lat="42.98786" lon="-0.42642">
        <ele>525</ele>
        <time>2019-06-16T16:49:53.872Z</time>
      </trkpt>
      <trkpt lat="42.98736" lon="-0.4265">
        <ele>525.4</ele>
        <time>2019-06-16T16:49:54.679Z</time>
      </trkpt>
      <trkpt lat="42.98736" lon="-0.4265">
        <ele>525.4</ele>
        <time>2019-06-16T16:49:54.680Z</time>
      </trkpt>
      <trkpt lat="42.98736" lon="-0.42649">
        <ele>525.4</ele>
        <time>2019-06-16T16:49:54.692Z</time>
      </trkpt>
      <trkpt lat="42.98736" lon="-0.42649">
        <ele>525.4</ele>
        <time>2019-06-16T16:49:54.693Z</time>
      </trkpt>
      <trkpt lat="42.98715" lon="-0.42655">
        <ele>525.4</ele>
        <time>2019-06-16T16:49:55.037Z</time>
      </trkpt>
      <trkpt lat="42.98715" lon="-0.42655">
        <ele>525.4</ele>
        <time>2019-06-16T16:49:55.037Z</time>
      </trkpt>
      <trkpt lat="42.98653" lon="-0.42686">
        <ele>525.2</ele>
        <time>2019-06-16T16:49:56.095Z</time>
      </trkpt>
      <trkpt lat="42.98653" lon="-0.42686">
        <ele>525.2</ele>
        <time>2019-06-16T16:49:56.095Z</time>
      </trkpt>
      <trkpt lat="42.98621" lon="-0.42698">
        <ele>525.1</ele>
        <time>2019-06-16T16:49:56.627Z</time>
      </trkpt>
      <trkpt lat="42.98621" lon="-0.42698">
        <ele>525.1</ele>
        <time>2019-06-16T16:49:56.627Z</time>
      </trkpt>
      <trkpt lat="42.98518" lon="-0.42738">
        <ele>522.3</ele>
        <time>2019-06-16T16:49:58.344Z</time>
      </trkpt>
      <trkpt lat="42.98518" lon="-0.42738">
        <ele>522.3</ele>
        <time>2019-06-16T16:49:58.344Z</time>
      </trkpt>
      <trkpt lat="42.98414" lon="-0.42789">
        <ele>519.5</ele>
        <time>2019-06-16T16:50:00.115Z</time>
      </trkpt>
      <trkpt lat="42.98414" lon="-0.42789">
        <ele>519.5</ele>
        <time>2019-06-16T16:50:00.115Z</time>
      </trkpt>
      <trkpt lat="42.9838" lon="-0.42799">
        <ele>520.8</ele>
        <time>2019-06-16T16:50:00.673Z</time>
      </trkpt>
      <trkpt lat="42.9838" lon="-0.42799">
        <ele>520.8</ele>
        <time>2019-06-16T16:50:00.673Z</time>
      </trkpt>
      <trkpt lat="42.9836" lon="-0.42797">
        <ele>521</ele>
        <time>2019-06-16T16:50:00.994Z</time>
      </trkpt>
      <trkpt lat="42.9836" lon="-0.42797">
        <ele>521</ele>
        <time>2019-06-16T16:50:00.994Z</time>
      </trkpt>
      <trkpt lat="42.98348" lon="-0.4279">
        <ele>521</ele>
        <time>2019-06-16T16:50:01.203Z</time>
      </trkpt>
      <trkpt lat="42.98348" lon="-0.4279">
        <ele>521</ele>
        <time>2019-06-16T16:50:01.203Z</time>
      </trkpt>
      <trkpt lat="42.98302" lon="-0.42739">
        <ele>520.6</ele>
        <time>2019-06-16T16:50:02.153Z</time>
      </trkpt>
      <trkpt lat="42.98302" lon="-0.42739">
        <ele>520.6</ele>
        <time>2019-06-16T16:50:02.153Z</time>
      </trkpt>
      <trkpt lat="42.98275" lon="-0.42706">
        <ele>520.4</ele>
        <time>2019-06-16T16:50:02.734Z</time>
      </trkpt>
      <trkpt lat="42.98275" lon="-0.42706">
        <ele>520.4</ele>
        <time>2019-06-16T16:50:02.735Z</time>
      </trkpt>
      <trkpt lat="42.98263" lon="-0.42687">
        <ele>521.1</ele>
        <time>2019-06-16T16:50:03.029Z</time>
      </trkpt>
      <trkpt lat="42.98263" lon="-0.42687">
        <ele>521.1</ele>
        <time>2019-06-16T16:50:03.029Z</time>
      </trkpt>
      <trkpt lat="42.98222" lon="-0.42593">
        <ele>519.1</ele>
        <time>2019-06-16T16:50:04.313Z</time>
      </trkpt>
      <trkpt lat="42.98222" lon="-0.42593">
        <ele>519.1</ele>
        <time>2019-06-16T16:50:04.313Z</time>
      </trkpt>
      <trkpt lat="42.98208" lon="-0.42552">
        <ele>516.7</ele>
        <time>2019-06-16T16:50:04.844Z</time>
      </trkpt>
      <trkpt lat="42.98208" lon="-0.42552">
        <ele>516.7</ele>
        <time>2019-06-16T16:50:04.844Z</time>
      </trkpt>
      <trkpt lat="42.98199" lon="-0.425">
        <ele>513</ele>
        <time>2019-06-16T16:50:05.471Z</time>
      </trkpt>
      <trkpt lat="42.98199" lon="-0.425">
        <ele>513</ele>
        <time>2019-06-16T16:50:05.471Z</time>
      </trkpt>
      <trkpt lat="42.98191" lon="-0.42437">
        <ele>513.2</ele>
        <time>2019-06-16T16:50:06.221Z</time>
      </trkpt>
      <trkpt lat="42.98191" lon="-0.42437">
        <ele>513.2</ele>
        <time>2019-06-16T16:50:06.223Z</time>
      </trkpt>
      <trkpt lat="42.98179" lon="-0.42334">
        <ele>512.7</ele>
        <time>2019-06-16T16:50:07.446Z</time>
      </trkpt>
      <trkpt lat="42.98179" lon="-0.42334">
        <ele>512.7</ele>
        <time>2019-06-16T16:50:07.447Z</time>
      </trkpt>
      <trkpt lat="42.98174" lon="-0.42298">
        <ele>512.2</ele>
        <time>2019-06-16T16:50:07.877Z</time>
      </trkpt>
      <trkpt lat="42.98174" lon="-0.42298">
        <ele>512.2</ele>
        <time>2019-06-16T16:50:07.878Z</time>
      </trkpt>
      <trkpt lat="42.98165" lon="-0.42255">
        <ele>511.4</ele>
        <time>2019-06-16T16:50:08.403Z</time>
      </trkpt>
      <trkpt lat="42.98165" lon="-0.42255">
        <ele>511.4</ele>
        <time>2019-06-16T16:50:08.403Z</time>
      </trkpt>
      <trkpt lat="42.98145" lon="-0.42162">
        <ele>508.6</ele>
        <time>2019-06-16T16:50:09.540Z</time>
      </trkpt>
      <trkpt lat="42.98145" lon="-0.42162">
        <ele>508.6</ele>
        <time>2019-06-16T16:50:09.540Z</time>
      </trkpt>
      <trkpt lat="42.98132" lon="-0.42113">
        <ele>508.3</ele>
        <time>2019-06-16T16:50:10.151Z</time>
      </trkpt>
      <trkpt lat="42.98132" lon="-0.42113">
        <ele>508.3</ele>
        <time>2019-06-16T16:50:10.151Z</time>
      </trkpt>
      <trkpt lat="42.98124" lon="-0.42097">
        <ele>508.3</ele>
        <time>2019-06-16T16:50:10.378Z</time>
      </trkpt>
      <trkpt lat="42.98124" lon="-0.42097">
        <ele>508.3</ele>
        <time>2019-06-16T16:50:10.378Z</time>
      </trkpt>
      <trkpt lat="42.98118" lon="-0.42091">
        <ele>508.2</ele>
        <time>2019-06-16T16:50:10.497Z</time>
      </trkpt>
      <trkpt lat="42.98118" lon="-0.42091">
        <ele>508.2</ele>
        <time>2019-06-16T16:50:10.497Z</time>
      </trkpt>
      <trkpt lat="42.98106" lon="-0.42085">
        <ele>508.1</ele>
        <time>2019-06-16T16:50:10.702Z</time>
      </trkpt>
      <trkpt lat="42.98106" lon="-0.42085">
        <ele>508.1</ele>
        <time>2019-06-16T16:50:10.702Z</time>
      </trkpt>
      <trkpt lat="42.98073" lon="-0.4208">
        <ele>508</ele>
        <time>2019-06-16T16:50:11.234Z</time>
      </trkpt>
      <trkpt lat="42.98073" lon="-0.4208">
        <ele>508</ele>
        <time>2019-06-16T16:50:11.234Z</time>
      </trkpt>
      <trkpt lat="42.98015" lon="-0.4207">
        <ele>506.8</ele>
        <time>2019-06-16T16:50:12.171Z</time>
      </trkpt>
      <trkpt lat="42.98015" lon="-0.4207">
        <ele>506.8</ele>
        <time>2019-06-16T16:50:12.171Z</time>
      </trkpt>
      <trkpt lat="42.97958" lon="-0.42063">
        <ele>510.7</ele>
        <time>2019-06-16T16:50:13.088Z</time>
      </trkpt>
      <trkpt lat="42.97958" lon="-0.42063">
        <ele>510.7</ele>
        <time>2019-06-16T16:50:13.088Z</time>
      </trkpt>
      <trkpt lat="42.97945" lon="-0.42057">
        <ele>511.9</ele>
        <time>2019-06-16T16:50:13.308Z</time>
      </trkpt>
      <trkpt lat="42.97945" lon="-0.42057">
        <ele>511.9</ele>
        <time>2019-06-16T16:50:13.308Z</time>
      </trkpt>
      <trkpt lat="42.97936" lon="-0.42051">
        <ele>512.4</ele>
        <time>2019-06-16T16:50:13.469Z</time>
      </trkpt>
      <trkpt lat="42.97936" lon="-0.42051">
        <ele>512.4</ele>
        <time>2019-06-16T16:50:13.469Z</time>
      </trkpt>
      <trkpt lat="42.97929" lon="-0.42043">
        <ele>512.4</ele>
        <time>2019-06-16T16:50:13.615Z</time>
      </trkpt>
      <trkpt lat="42.97929" lon="-0.42043">
        <ele>512.4</ele>
        <time>2019-06-16T16:50:13.615Z</time>
      </trkpt>
      <trkpt lat="42.97912" lon="-0.42011">
        <ele>512.2</ele>
        <time>2019-06-16T16:50:14.079Z</time>
      </trkpt>
      <trkpt lat="42.97912" lon="-0.42011">
        <ele>512.2</ele>
        <time>2019-06-16T16:50:14.080Z</time>
      </trkpt>
      <trkpt lat="42.97906" lon="-0.41992">
        <ele>512.5</ele>
        <time>2019-06-16T16:50:14.323Z</time>
      </trkpt>
      <trkpt lat="42.97906" lon="-0.41992">
        <ele>512.5</ele>
        <time>2019-06-16T16:50:14.323Z</time>
      </trkpt>
      <trkpt lat="42.97899" lon="-0.41953">
        <ele>513.7</ele>
        <time>2019-06-16T16:50:14.794Z</time>
      </trkpt>
      <trkpt lat="42.97899" lon="-0.41953">
        <ele>513.7</ele>
        <time>2019-06-16T16:50:14.794Z</time>
      </trkpt>
      <trkpt lat="42.97894" lon="-0.41906">
        <ele>515.2</ele>
        <time>2019-06-16T16:50:15.351Z</time>
      </trkpt>
      <trkpt lat="42.97894" lon="-0.41906">
        <ele>515.2</ele>
        <time>2019-06-16T16:50:15.351Z</time>
      </trkpt>
      <trkpt lat="42.9789" lon="-0.41897">
        <ele>516.3</ele>
        <time>2019-06-16T16:50:15.475Z</time>
      </trkpt>
      <trkpt lat="42.9789" lon="-0.41897">
        <ele>516.3</ele>
        <time>2019-06-16T16:50:15.475Z</time>
      </trkpt>
      <trkpt lat="42.9788" lon="-0.41887">
        <ele>518.8</ele>
        <time>2019-06-16T16:50:15.674Z</time>
      </trkpt>
      <trkpt lat="42.9788" lon="-0.41887">
        <ele>518.8</ele>
        <time>2019-06-16T16:50:15.674Z</time>
      </trkpt>
      <trkpt lat="42.9787" lon="-0.41881">
        <ele>521.2</ele>
        <time>2019-06-16T16:50:15.849Z</time>
      </trkpt>
      <trkpt lat="42.9787" lon="-0.41881">
        <ele>521.2</ele>
        <time>2019-06-16T16:50:15.849Z</time>
      </trkpt>
      <trkpt lat="42.97856" lon="-0.41882">
        <ele>524</ele>
        <time>2019-06-16T16:50:16.074Z</time>
      </trkpt>
      <trkpt lat="42.97856" lon="-0.41882">
        <ele>524</ele>
        <time>2019-06-16T16:50:16.074Z</time>
      </trkpt>
      <trkpt lat="42.97847" lon="-0.41888">
        <ele>525.7</ele>
        <time>2019-06-16T16:50:16.235Z</time>
      </trkpt>
      <trkpt lat="42.97847" lon="-0.41888">
        <ele>525.7</ele>
        <time>2019-06-16T16:50:16.235Z</time>
      </trkpt>
      <trkpt lat="42.97842" lon="-0.41894">
        <ele>526.1</ele>
        <time>2019-06-16T16:50:16.342Z</time>
      </trkpt>
      <trkpt lat="42.97842" lon="-0.41894">
        <ele>526.1</ele>
        <time>2019-06-16T16:50:16.342Z</time>
      </trkpt>
      <trkpt lat="42.97836" lon="-0.41906">
        <ele>525.9</ele>
        <time>2019-06-16T16:50:16.512Z</time>
      </trkpt>
      <trkpt lat="42.97836" lon="-0.41906">
        <ele>525.9</ele>
        <time>2019-06-16T16:50:16.512Z</time>
      </trkpt>
      <trkpt lat="42.97808" lon="-0.42047">
        <ele>524.9</ele>
        <time>2019-06-16T16:50:18.226Z</time>
      </trkpt>
      <trkpt lat="42.97808" lon="-0.42047">
        <ele>524.9</ele>
        <time>2019-06-16T16:50:18.226Z</time>
      </trkpt>
      <trkpt lat="42.97806" lon="-0.42059">
        <ele>525.6</ele>
        <time>2019-06-16T16:50:18.370Z</time>
      </trkpt>
      <trkpt lat="42.97806" lon="-0.42059">
        <ele>525.6</ele>
        <time>2019-06-16T16:50:18.370Z</time>
      </trkpt>
      <trkpt lat="42.97806" lon="-0.42066">
        <ele>526.8</ele>
        <time>2019-06-16T16:50:18.452Z</time>
      </trkpt>
      <trkpt lat="42.97806" lon="-0.42066">
        <ele>526.8</ele>
        <time>2019-06-16T16:50:18.452Z</time>
      </trkpt>
      <trkpt lat="42.978" lon="-0.42069">
        <ele>528.7</ele>
        <time>2019-06-16T16:50:18.554Z</time>
      </trkpt>
      <trkpt lat="42.978" lon="-0.42069">
        <ele>528.7</ele>
        <time>2019-06-16T16:50:18.554Z</time>
      </trkpt>
      <trkpt lat="42.97793" lon="-0.4207">
        <ele>530.5</ele>
        <time>2019-06-16T16:50:18.667Z</time>
      </trkpt>
      <trkpt lat="42.97793" lon="-0.4207">
        <ele>530.5</ele>
        <time>2019-06-16T16:50:18.667Z</time>
      </trkpt>
      <trkpt lat="42.97781" lon="-0.42066">
        <ele>532.5</ele>
        <time>2019-06-16T16:50:18.865Z</time>
      </trkpt>
      <trkpt lat="42.97781" lon="-0.42066">
        <ele>532.5</ele>
        <time>2019-06-16T16:50:18.865Z</time>
      </trkpt>
      <trkpt lat="42.97776" lon="-0.42056">
        <ele>531.7</ele>
        <time>2019-06-16T16:50:19.007Z</time>
      </trkpt>
      <trkpt lat="42.97776" lon="-0.42056">
        <ele>531.7</ele>
        <time>2019-06-16T16:50:19.007Z</time>
      </trkpt>
      <trkpt lat="42.97774" lon="-0.4204">
        <ele>532.8</ele>
        <time>2019-06-16T16:50:19.197Z</time>
      </trkpt>
      <trkpt lat="42.97774" lon="-0.4204">
        <ele>532.8</ele>
        <time>2019-06-16T16:50:19.198Z</time>
      </trkpt>
      <trkpt lat="42.97784" lon="-0.42008">
        <ele>532.1</ele>
        <time>2019-06-16T16:50:19.606Z</time>
      </trkpt>
      <trkpt lat="42.97784" lon="-0.42008">
        <ele>532.1</ele>
        <time>2019-06-16T16:50:19.606Z</time>
      </trkpt>
      <trkpt lat="42.97792" lon="-0.41986">
        <ele>531.7</ele>
        <time>2019-06-16T16:50:19.894Z</time>
      </trkpt>
      <trkpt lat="42.97792" lon="-0.41986">
        <ele>531.7</ele>
        <time>2019-06-16T16:50:19.894Z</time>
      </trkpt>
      <trkpt lat="42.97797" lon="-0.41959">
        <ele>532.1</ele>
        <time>2019-06-16T16:50:20.221Z</time>
      </trkpt>
      <trkpt lat="42.97797" lon="-0.41959">
        <ele>532.1</ele>
        <time>2019-06-16T16:50:20.221Z</time>
      </trkpt>
      <trkpt lat="42.978" lon="-0.41906">
        <ele>535.6</ele>
        <time>2019-06-16T16:50:20.844Z</time>
      </trkpt>
      <trkpt lat="42.978" lon="-0.41906">
        <ele>535.6</ele>
        <time>2019-06-16T16:50:20.844Z</time>
      </trkpt>
      <trkpt lat="42.97802" lon="-0.41881">
        <ele>538</ele>
        <time>2019-06-16T16:50:21.139Z</time>
      </trkpt>
      <trkpt lat="42.97802" lon="-0.41881">
        <ele>538</ele>
        <time>2019-06-16T16:50:21.139Z</time>
      </trkpt>
      <trkpt lat="42.97842" lon="-0.41789">
        <ele>542.9</ele>
        <time>2019-06-16T16:50:22.394Z</time>
      </trkpt>
      <trkpt lat="42.97842" lon="-0.41789">
        <ele>542.9</ele>
        <time>2019-06-16T16:50:22.394Z</time>
      </trkpt>
      <trkpt lat="42.97854" lon="-0.41753">
        <ele>546.2</ele>
        <time>2019-06-16T16:50:22.858Z</time>
      </trkpt>
      <trkpt lat="42.97854" lon="-0.41753">
        <ele>546.2</ele>
        <time>2019-06-16T16:50:22.858Z</time>
      </trkpt>
      <trkpt lat="42.97863" lon="-0.41716">
        <ele>550.9</ele>
        <time>2019-06-16T16:50:23.315Z</time>
      </trkpt>
      <trkpt lat="42.97863" lon="-0.41716">
        <ele>550.9</ele>
        <time>2019-06-16T16:50:23.315Z</time>
      </trkpt>
      <trkpt lat="42.97874" lon="-0.41696">
        <ele>552</ele>
        <time>2019-06-16T16:50:23.608Z</time>
      </trkpt>
      <trkpt lat="42.97874" lon="-0.41696">
        <ele>552</ele>
        <time>2019-06-16T16:50:23.608Z</time>
      </trkpt>
      <trkpt lat="42.97895" lon="-0.41671">
        <ele>550.9</ele>
        <time>2019-06-16T16:50:24.054Z</time>
      </trkpt>
      <trkpt lat="42.97895" lon="-0.41671">
        <ele>550.9</ele>
        <time>2019-06-16T16:50:24.054Z</time>
      </trkpt>
      <trkpt lat="42.97932" lon="-0.41634">
        <ele>548</ele>
        <time>2019-06-16T16:50:24.789Z</time>
      </trkpt>
      <trkpt lat="42.97932" lon="-0.41634">
        <ele>548</ele>
        <time>2019-06-16T16:50:24.789Z</time>
      </trkpt>
      <trkpt lat="42.97948" lon="-0.41612">
        <ele>547.8</ele>
        <time>2019-06-16T16:50:25.153Z</time>
      </trkpt>
      <trkpt lat="42.97948" lon="-0.41612">
        <ele>547.8</ele>
        <time>2019-06-16T16:50:25.153Z</time>
      </trkpt>
      <trkpt lat="42.97963" lon="-0.41585">
        <ele>548.4</ele>
        <time>2019-06-16T16:50:25.551Z</time>
      </trkpt>
      <trkpt lat="42.97963" lon="-0.41585">
        <ele>548.4</ele>
        <time>2019-06-16T16:50:25.551Z</time>
      </trkpt>
      <trkpt lat="42.97975" lon="-0.4156">
        <ele>549.4</ele>
        <time>2019-06-16T16:50:25.902Z</time>
      </trkpt>
      <trkpt lat="42.97975" lon="-0.4156">
        <ele>549.4</ele>
        <time>2019-06-16T16:50:25.902Z</time>
      </trkpt>
      <trkpt lat="42.97986" lon="-0.41539">
        <ele>549.7</ele>
        <time>2019-06-16T16:50:26.205Z</time>
      </trkpt>
      <trkpt lat="42.97986" lon="-0.41539">
        <ele>549.7</ele>
        <time>2019-06-16T16:50:26.205Z</time>
      </trkpt>
      <trkpt lat="42.98004" lon="-0.4151">
        <ele>549</ele>
        <time>2019-06-16T16:50:26.651Z</time>
      </trkpt>
      <trkpt lat="42.98004" lon="-0.4151">
        <ele>549</ele>
        <time>2019-06-16T16:50:26.651Z</time>
      </trkpt>
      <trkpt lat="42.9801" lon="-0.41497">
        <ele>549.3</ele>
        <time>2019-06-16T16:50:26.831Z</time>
      </trkpt>
      <trkpt lat="42.9801" lon="-0.41497">
        <ele>549.3</ele>
        <time>2019-06-16T16:50:26.831Z</time>
      </trkpt>
      <trkpt lat="42.9801" lon="-0.41485">
        <ele>551</ele>
        <time>2019-06-16T16:50:26.972Z</time>
      </trkpt>
      <trkpt lat="42.9801" lon="-0.41485">
        <ele>551</ele>
        <time>2019-06-16T16:50:26.972Z</time>
      </trkpt>
      <trkpt lat="42.98007" lon="-0.41472">
        <ele>553.5</ele>
        <time>2019-06-16T16:50:27.132Z</time>
      </trkpt>
      <trkpt lat="42.98007" lon="-0.41472">
        <ele>553.5</ele>
        <time>2019-06-16T16:50:27.132Z</time>
      </trkpt>
      <trkpt lat="42.98" lon="-0.41463">
        <ele>555.7</ele>
        <time>2019-06-16T16:50:27.286Z</time>
      </trkpt>
      <trkpt lat="42.98" lon="-0.41463">
        <ele>555.7</ele>
        <time>2019-06-16T16:50:27.286Z</time>
      </trkpt>
      <trkpt lat="42.97994" lon="-0.4146">
        <ele>557.1</ele>
        <time>2019-06-16T16:50:27.388Z</time>
      </trkpt>
      <trkpt lat="42.97994" lon="-0.4146">
        <ele>557.1</ele>
        <time>2019-06-16T16:50:27.388Z</time>
      </trkpt>
      <trkpt lat="42.97986" lon="-0.41459">
        <ele>558.7</ele>
        <time>2019-06-16T16:50:27.517Z</time>
      </trkpt>
      <trkpt lat="42.97986" lon="-0.41459">
        <ele>558.7</ele>
        <time>2019-06-16T16:50:27.517Z</time>
      </trkpt>
      <trkpt lat="42.9798" lon="-0.41463">
        <ele>559.5</ele>
        <time>2019-06-16T16:50:27.624Z</time>
      </trkpt>
      <trkpt lat="42.9798" lon="-0.41463">
        <ele>559.5</ele>
        <time>2019-06-16T16:50:27.624Z</time>
      </trkpt>
      <trkpt lat="42.97971" lon="-0.41476">
        <ele>560</ele>
        <time>2019-06-16T16:50:27.834Z</time>
      </trkpt>
      <trkpt lat="42.97971" lon="-0.41476">
        <ele>560</ele>
        <time>2019-06-16T16:50:27.834Z</time>
      </trkpt>
      <trkpt lat="42.97966" lon="-0.41487">
        <ele>560.3</ele>
        <time>2019-06-16T16:50:27.986Z</time>
      </trkpt>
      <trkpt lat="42.97966" lon="-0.41487">
        <ele>560.3</ele>
        <time>2019-06-16T16:50:27.987Z</time>
      </trkpt>
      <trkpt lat="42.97961" lon="-0.41513">
        <ele>559</ele>
        <time>2019-06-16T16:50:28.302Z</time>
      </trkpt>
      <trkpt lat="42.97961" lon="-0.41513">
        <ele>559</ele>
        <time>2019-06-16T16:50:28.302Z</time>
      </trkpt>
      <trkpt lat="42.97952" lon="-0.41545">
        <ele>557.3</ele>
        <time>2019-06-16T16:50:28.704Z</time>
      </trkpt>
      <trkpt lat="42.97952" lon="-0.41545">
        <ele>557.3</ele>
        <time>2019-06-16T16:50:28.704Z</time>
      </trkpt>
      <trkpt lat="42.97932" lon="-0.41584">
        <ele>557</ele>
        <time>2019-06-16T16:50:29.263Z</time>
      </trkpt>
      <trkpt lat="42.97932" lon="-0.41584">
        <ele>557</ele>
        <time>2019-06-16T16:50:29.263Z</time>
      </trkpt>
      <trkpt lat="42.97918" lon="-0.41602">
        <ele>557.3</ele>
        <time>2019-06-16T16:50:29.571Z</time>
      </trkpt>
      <trkpt lat="42.97918" lon="-0.41602">
        <ele>557.3</ele>
        <time>2019-06-16T16:50:29.571Z</time>
      </trkpt>
      <trkpt lat="42.97896" lon="-0.41618">
        <ele>560</ele>
        <time>2019-06-16T16:50:29.971Z</time>
      </trkpt>
      <trkpt lat="42.97896" lon="-0.41618">
        <ele>560</ele>
        <time>2019-06-16T16:50:29.971Z</time>
      </trkpt>
      <trkpt lat="42.97868" lon="-0.41634">
        <ele>564.9</ele>
        <time>2019-06-16T16:50:30.458Z</time>
      </trkpt>
      <trkpt lat="42.97868" lon="-0.41634">
        <ele>564.9</ele>
        <time>2019-06-16T16:50:30.458Z</time>
      </trkpt>
      <trkpt lat="42.97842" lon="-0.41655">
        <ele>569.3</ele>
        <time>2019-06-16T16:50:30.942Z</time>
      </trkpt>
      <trkpt lat="42.97842" lon="-0.41655">
        <ele>569.3</ele>
        <time>2019-06-16T16:50:30.942Z</time>
      </trkpt>
      <trkpt lat="42.97836" lon="-0.41663">
        <ele>569.8</ele>
        <time>2019-06-16T16:50:31.076Z</time>
      </trkpt>
      <trkpt lat="42.97836" lon="-0.41663">
        <ele>569.8</ele>
        <time>2019-06-16T16:50:31.076Z</time>
      </trkpt>
      <trkpt lat="42.97807" lon="-0.4171">
        <ele>570.5</ele>
        <time>2019-06-16T16:50:31.797Z</time>
      </trkpt>
      <trkpt lat="42.97807" lon="-0.4171">
        <ele>570.5</ele>
        <time>2019-06-16T16:50:31.797Z</time>
      </trkpt>
      <trkpt lat="42.97788" lon="-0.41743">
        <ele>569</ele>
        <time>2019-06-16T16:50:32.290Z</time>
      </trkpt>
      <trkpt lat="42.97788" lon="-0.41743">
        <ele>569</ele>
        <time>2019-06-16T16:50:32.290Z</time>
      </trkpt>
      <trkpt lat="42.97779" lon="-0.41755">
        <ele>569.1</ele>
        <time>2019-06-16T16:50:32.492Z</time>
      </trkpt>
      <trkpt lat="42.97779" lon="-0.41755">
        <ele>569.1</ele>
        <time>2019-06-16T16:50:32.492Z</time>
      </trkpt>
      <trkpt lat="42.97734" lon="-0.41812">
        <ele>574.3</ele>
        <time>2019-06-16T16:50:33.476Z</time>
      </trkpt>
      <trkpt lat="42.97734" lon="-0.41812">
        <ele>574.3</ele>
        <time>2019-06-16T16:50:33.476Z</time>
      </trkpt>
      <trkpt lat="42.97697" lon="-0.41866">
        <ele>575.7</ele>
        <time>2019-06-16T16:50:34.344Z</time>
      </trkpt>
      <trkpt lat="42.97697" lon="-0.41866">
        <ele>575.7</ele>
        <time>2019-06-16T16:50:34.344Z</time>
      </trkpt>
      <trkpt lat="42.9767" lon="-0.41912">
        <ele>578.3</ele>
        <time>2019-06-16T16:50:35.036Z</time>
      </trkpt>
      <trkpt lat="42.9767" lon="-0.41912">
        <ele>578.3</ele>
        <time>2019-06-16T16:50:35.036Z</time>
      </trkpt>
      <trkpt lat="42.97651" lon="-0.41952">
        <ele>581.9</ele>
        <time>2019-06-16T16:50:35.595Z</time>
      </trkpt>
      <trkpt lat="42.97651" lon="-0.41952">
        <ele>581.9</ele>
        <time>2019-06-16T16:50:35.595Z</time>
      </trkpt>
      <trkpt lat="42.97637" lon="-0.41985">
        <ele>584</ele>
        <time>2019-06-16T16:50:36.042Z</time>
      </trkpt>
      <trkpt lat="42.97637" lon="-0.41985">
        <ele>584</ele>
        <time>2019-06-16T16:50:36.043Z</time>
      </trkpt>
      <trkpt lat="42.97614" lon="-0.42056">
        <ele>584.2</ele>
        <time>2019-06-16T16:50:36.954Z</time>
      </trkpt>
      <trkpt lat="42.97614" lon="-0.42056">
        <ele>584.2</ele>
        <time>2019-06-16T16:50:36.954Z</time>
      </trkpt>
      <trkpt lat="42.97601" lon="-0.42083">
        <ele>585.8</ele>
        <time>2019-06-16T16:50:37.333Z</time>
      </trkpt>
      <trkpt lat="42.97601" lon="-0.42083">
        <ele>585.8</ele>
        <time>2019-06-16T16:50:37.334Z</time>
      </trkpt>
      <trkpt lat="42.97594" lon="-0.42089">
        <ele>587</ele>
        <time>2019-06-16T16:50:37.466Z</time>
      </trkpt>
      <trkpt lat="42.97594" lon="-0.42089">
        <ele>587</ele>
        <time>2019-06-16T16:50:37.466Z</time>
      </trkpt>
      <trkpt lat="42.97591" lon="-0.4209">
        <ele>587.4</ele>
        <time>2019-06-16T16:50:37.515Z</time>
      </trkpt>
      <trkpt lat="42.97591" lon="-0.4209">
        <ele>587.4</ele>
        <time>2019-06-16T16:50:37.515Z</time>
      </trkpt>
      <trkpt lat="42.97585" lon="-0.42091">
        <ele>588.4</ele>
        <time>2019-06-16T16:50:37.612Z</time>
      </trkpt>
      <trkpt lat="42.97585" lon="-0.42091">
        <ele>588.4</ele>
        <time>2019-06-16T16:50:37.612Z</time>
      </trkpt>
      <trkpt lat="42.97574" lon="-0.42087">
        <ele>591.1</ele>
        <time>2019-06-16T16:50:37.794Z</time>
      </trkpt>
      <trkpt lat="42.97574" lon="-0.42087">
        <ele>591.1</ele>
        <time>2019-06-16T16:50:37.794Z</time>
      </trkpt>
      <trkpt lat="42.97569" lon="-0.42082">
        <ele>592.8</ele>
        <time>2019-06-16T16:50:37.893Z</time>
      </trkpt>
      <trkpt lat="42.97569" lon="-0.42082">
        <ele>592.8</ele>
        <time>2019-06-16T16:50:37.893Z</time>
      </trkpt>
      <trkpt lat="42.97565" lon="-0.42075">
        <ele>595</ele>
        <time>2019-06-16T16:50:37.997Z</time>
      </trkpt>
      <trkpt lat="42.97565" lon="-0.42075">
        <ele>595</ele>
        <time>2019-06-16T16:50:37.998Z</time>
      </trkpt>
      <trkpt lat="42.97563" lon="-0.42061">
        <ele>597.9</ele>
        <time>2019-06-16T16:50:38.165Z</time>
      </trkpt>
      <trkpt lat="42.97563" lon="-0.42061">
        <ele>597.9</ele>
        <time>2019-06-16T16:50:38.165Z</time>
      </trkpt>
      <trkpt lat="42.97565" lon="-0.42052">
        <ele>599</ele>
        <time>2019-06-16T16:50:38.275Z</time>
      </trkpt>
      <trkpt lat="42.97565" lon="-0.42052">
        <ele>599</ele>
        <time>2019-06-16T16:50:38.276Z</time>
      </trkpt>
      <trkpt lat="42.97571" lon="-0.4204">
        <ele>599.3</ele>
        <time>2019-06-16T16:50:38.446Z</time>
      </trkpt>
      <trkpt lat="42.97571" lon="-0.4204">
        <ele>599.3</ele>
        <time>2019-06-16T16:50:38.446Z</time>
      </trkpt>
      <trkpt lat="42.97588" lon="-0.4202">
        <ele>597.4</ele>
        <time>2019-06-16T16:50:38.806Z</time>
      </trkpt>
      <trkpt lat="42.97588" lon="-0.4202">
        <ele>597.4</ele>
        <time>2019-06-16T16:50:38.806Z</time>
      </trkpt>
      <trkpt lat="42.97605" lon="-0.41997">
        <ele>595.9</ele>
        <time>2019-06-16T16:50:39.189Z</time>
      </trkpt>
      <trkpt lat="42.97605" lon="-0.41997">
        <ele>595.9</ele>
        <time>2019-06-16T16:50:39.189Z</time>
      </trkpt>
      <trkpt lat="42.97616" lon="-0.41976">
        <ele>594.3</ele>
        <time>2019-06-16T16:50:39.492Z</time>
      </trkpt>
      <trkpt lat="42.97616" lon="-0.41976">
        <ele>594.3</ele>
        <time>2019-06-16T16:50:39.494Z</time>
      </trkpt>
      <trkpt lat="42.97622" lon="-0.4196">
        <ele>594.3</ele>
        <time>2019-06-16T16:50:39.705Z</time>
      </trkpt>
      <trkpt lat="42.97622" lon="-0.4196">
        <ele>594.3</ele>
        <time>2019-06-16T16:50:39.706Z</time>
      </trkpt>
      <trkpt lat="42.97637" lon="-0.41902">
        <ele>596</ele>
        <time>2019-06-16T16:50:40.428Z</time>
      </trkpt>
      <trkpt lat="42.97637" lon="-0.41902">
        <ele>596</ele>
        <time>2019-06-16T16:50:40.429Z</time>
      </trkpt>
      <trkpt lat="42.97644" lon="-0.41878">
        <ele>597</ele>
        <time>2019-06-16T16:50:40.732Z</time>
      </trkpt>
      <trkpt lat="42.97644" lon="-0.41878">
        <ele>597</ele>
        <time>2019-06-16T16:50:40.734Z</time>
      </trkpt>
      <trkpt lat="42.9766" lon="-0.4184">
        <ele>599.2</ele>
        <time>2019-06-16T16:50:41.248Z</time>
      </trkpt>
      <trkpt lat="42.9766" lon="-0.4184">
        <ele>599.2</ele>
        <time>2019-06-16T16:50:41.248Z</time>
      </trkpt>
      <trkpt lat="42.97702" lon="-0.41768">
        <ele>601</ele>
        <time>2019-06-16T16:50:42.328Z</time>
      </trkpt>
      <trkpt lat="42.97702" lon="-0.41768">
        <ele>601</ele>
        <time>2019-06-16T16:50:42.328Z</time>
      </trkpt>
      <trkpt lat="42.97731" lon="-0.41718">
        <ele>601.3</ele>
        <time>2019-06-16T16:50:43.076Z</time>
      </trkpt>
      <trkpt lat="42.97731" lon="-0.41718">
        <ele>601.3</ele>
        <time>2019-06-16T16:50:43.076Z</time>
      </trkpt>
      <trkpt lat="42.97743" lon="-0.41685">
        <ele>603.7</ele>
        <time>2019-06-16T16:50:43.508Z</time>
      </trkpt>
      <trkpt lat="42.97743" lon="-0.41685">
        <ele>603.7</ele>
        <time>2019-06-16T16:50:43.509Z</time>
      </trkpt>
      <trkpt lat="42.97748" lon="-0.41662">
        <ele>605.5</ele>
        <time>2019-06-16T16:50:43.790Z</time>
      </trkpt>
      <trkpt lat="42.97748" lon="-0.41662">
        <ele>605.5</ele>
        <time>2019-06-16T16:50:43.791Z</time>
      </trkpt>
      <trkpt lat="42.97751" lon="-0.41639">
        <ele>607.6</ele>
        <time>2019-06-16T16:50:44.065Z</time>
      </trkpt>
      <trkpt lat="42.97751" lon="-0.41639">
        <ele>607.6</ele>
        <time>2019-06-16T16:50:44.066Z</time>
      </trkpt>
      <trkpt lat="42.97751" lon="-0.41611">
        <ele>610.6</ele>
        <time>2019-06-16T16:50:44.394Z</time>
      </trkpt>
      <trkpt lat="42.97751" lon="-0.41611">
        <ele>610.6</ele>
        <time>2019-06-16T16:50:44.395Z</time>
      </trkpt>
      <trkpt lat="42.97749" lon="-0.41593">
        <ele>612</ele>
        <time>2019-06-16T16:50:44.609Z</time>
      </trkpt>
      <trkpt lat="42.97749" lon="-0.41593">
        <ele>612</ele>
        <time>2019-06-16T16:50:44.610Z</time>
      </trkpt>
      <trkpt lat="42.97743" lon="-0.41545">
        <ele>616.9</ele>
        <time>2019-06-16T16:50:45.181Z</time>
      </trkpt>
      <trkpt lat="42.97743" lon="-0.41545">
        <ele>616.9</ele>
        <time>2019-06-16T16:50:45.182Z</time>
      </trkpt>
      <trkpt lat="42.97741" lon="-0.41504">
        <ele>619.7</ele>
        <time>2019-06-16T16:50:45.664Z</time>
      </trkpt>
      <trkpt lat="42.97741" lon="-0.41504">
        <ele>619.7</ele>
        <time>2019-06-16T16:50:45.664Z</time>
      </trkpt>
      <trkpt lat="42.97747" lon="-0.41457">
        <ele>620.6</ele>
        <time>2019-06-16T16:50:46.224Z</time>
      </trkpt>
      <trkpt lat="42.97747" lon="-0.41457">
        <ele>620.6</ele>
        <time>2019-06-16T16:50:46.225Z</time>
      </trkpt>
      <trkpt lat="42.97771" lon="-0.4139">
        <ele>615.8</ele>
        <time>2019-06-16T16:50:47.100Z</time>
      </trkpt>
      <trkpt lat="42.97771" lon="-0.4139">
        <ele>615.8</ele>
        <time>2019-06-16T16:50:47.100Z</time>
      </trkpt>
      <trkpt lat="42.97775" lon="-0.41371">
        <ele>616.1</ele>
        <time>2019-06-16T16:50:47.332Z</time>
      </trkpt>
      <trkpt lat="42.97775" lon="-0.41371">
        <ele>616.1</ele>
        <time>2019-06-16T16:50:47.333Z</time>
      </trkpt>
      <trkpt lat="42.97777" lon="-0.41345">
        <ele>618.1</ele>
        <time>2019-06-16T16:50:47.640Z</time>
      </trkpt>
      <trkpt lat="42.97777" lon="-0.41345">
        <ele>618.1</ele>
        <time>2019-06-16T16:50:47.642Z</time>
      </trkpt>
      <trkpt lat="42.97779" lon="-0.41315">
        <ele>620.4</ele>
        <time>2019-06-16T16:50:47.995Z</time>
      </trkpt>
      <trkpt lat="42.97779" lon="-0.41315">
        <ele>620.4</ele>
        <time>2019-06-16T16:50:47.995Z</time>
      </trkpt>
      <trkpt lat="42.97783" lon="-0.41294">
        <ele>621.6</ele>
        <time>2019-06-16T16:50:48.250Z</time>
      </trkpt>
      <trkpt lat="42.97783" lon="-0.41294">
        <ele>621.6</ele>
        <time>2019-06-16T16:50:48.250Z</time>
      </trkpt>
      <trkpt lat="42.97792" lon="-0.41265">
        <ele>622.4</ele>
        <time>2019-06-16T16:50:48.619Z</time>
      </trkpt>
      <trkpt lat="42.97792" lon="-0.41265">
        <ele>622.4</ele>
        <time>2019-06-16T16:50:48.619Z</time>
      </trkpt>
      <trkpt lat="42.97807" lon="-0.41223">
        <ele>622.3</ele>
        <time>2019-06-16T16:50:49.167Z</time>
      </trkpt>
      <trkpt lat="42.97807" lon="-0.41223">
        <ele>622.3</ele>
        <time>2019-06-16T16:50:49.167Z</time>
      </trkpt>
      <trkpt lat="42.97813" lon="-0.41203">
        <ele>623.5</ele>
        <time>2019-06-16T16:50:49.421Z</time>
      </trkpt>
      <trkpt lat="42.97813" lon="-0.41203">
        <ele>623.5</ele>
        <time>2019-06-16T16:50:49.421Z</time>
      </trkpt>
      <trkpt lat="42.97816" lon="-0.41185">
        <ele>625.7</ele>
        <time>2019-06-16T16:50:49.638Z</time>
      </trkpt>
      <trkpt lat="42.97816" lon="-0.41185">
        <ele>625.7</ele>
        <time>2019-06-16T16:50:49.638Z</time>
      </trkpt>
      <trkpt lat="42.97825" lon="-0.41115">
        <ele>632.9</ele>
        <time>2019-06-16T16:50:50.472Z</time>
      </trkpt>
      <trkpt lat="42.97825" lon="-0.41115">
        <ele>632.9</ele>
        <time>2019-06-16T16:50:50.472Z</time>
      </trkpt>
      <trkpt lat="42.97837" lon="-0.41065">
        <ele>632</ele>
        <time>2019-06-16T16:50:51.089Z</time>
      </trkpt>
      <trkpt lat="42.97837" lon="-0.41065">
        <ele>632</ele>
        <time>2019-06-16T16:50:51.089Z</time>
      </trkpt>
      <trkpt lat="42.97837" lon="-0.41032">
        <ele>632.1</ele>
        <time>2019-06-16T16:50:51.476Z</time>
      </trkpt>
      <trkpt lat="42.97837" lon="-0.41032">
        <ele>632.1</ele>
        <time>2019-06-16T16:50:51.476Z</time>
      </trkpt>
      <trkpt lat="42.97834" lon="-0.41019">
        <ele>632.8</ele>
        <time>2019-06-16T16:50:51.636Z</time>
      </trkpt>
      <trkpt lat="42.97834" lon="-0.41019">
        <ele>632.8</ele>
        <time>2019-06-16T16:50:51.636Z</time>
      </trkpt>
      <trkpt lat="42.97821" lon="-0.4099">
        <ele>635.7</ele>
        <time>2019-06-16T16:50:52.035Z</time>
      </trkpt>
      <trkpt lat="42.97821" lon="-0.4099">
        <ele>635.7</ele>
        <time>2019-06-16T16:50:52.035Z</time>
      </trkpt>
      <trkpt lat="42.97804" lon="-0.40953">
        <ele>639.3</ele>
        <time>2019-06-16T16:50:52.547Z</time>
      </trkpt>
      <trkpt lat="42.97804" lon="-0.40953">
        <ele>639.3</ele>
        <time>2019-06-16T16:50:52.547Z</time>
      </trkpt>
      <trkpt lat="42.97798" lon="-0.40936">
        <ele>640.4</ele>
        <time>2019-06-16T16:50:52.768Z</time>
      </trkpt>
      <trkpt lat="42.97798" lon="-0.40936">
        <ele>640.4</ele>
        <time>2019-06-16T16:50:52.768Z</time>
      </trkpt>
      <trkpt lat="42.97796" lon="-0.40914">
        <ele>640.9</ele>
        <time>2019-06-16T16:50:53.028Z</time>
      </trkpt>
      <trkpt lat="42.97796" lon="-0.40914">
        <ele>640.9</ele>
        <time>2019-06-16T16:50:53.028Z</time>
      </trkpt>
      <trkpt lat="42.97797" lon="-0.40861">
        <ele>643.5</ele>
        <time>2019-06-16T16:50:53.650Z</time>
      </trkpt>
      <trkpt lat="42.97797" lon="-0.40861">
        <ele>643.5</ele>
        <time>2019-06-16T16:50:53.650Z</time>
      </trkpt>
      <trkpt lat="42.97797" lon="-0.40843">
        <ele>644.2</ele>
        <time>2019-06-16T16:50:53.861Z</time>
      </trkpt>
      <trkpt lat="42.97797" lon="-0.40843">
        <ele>644.2</ele>
        <time>2019-06-16T16:50:53.861Z</time>
      </trkpt>
      <trkpt lat="42.97794" lon="-0.40818">
        <ele>644.8</ele>
        <time>2019-06-16T16:50:54.158Z</time>
      </trkpt>
      <trkpt lat="42.97794" lon="-0.40818">
        <ele>644.8</ele>
        <time>2019-06-16T16:50:54.158Z</time>
      </trkpt>
      <trkpt lat="42.97789" lon="-0.40796">
        <ele>644.5</ele>
        <time>2019-06-16T16:50:54.428Z</time>
      </trkpt>
      <trkpt lat="42.97789" lon="-0.40796">
        <ele>644.5</ele>
        <time>2019-06-16T16:50:54.428Z</time>
      </trkpt>
      <trkpt lat="42.97778" lon="-0.4077">
        <ele>642.7</ele>
        <time>2019-06-16T16:50:54.780Z</time>
      </trkpt>
      <trkpt lat="42.97778" lon="-0.4077">
        <ele>642.7</ele>
        <time>2019-06-16T16:50:54.781Z</time>
      </trkpt>
      <trkpt lat="42.9777" lon="-0.40757">
        <ele>642.1</ele>
        <time>2019-06-16T16:50:54.980Z</time>
      </trkpt>
      <trkpt lat="42.9777" lon="-0.40757">
        <ele>642.1</ele>
        <time>2019-06-16T16:50:54.980Z</time>
      </trkpt>
      <trkpt lat="42.97757" lon="-0.40743">
        <ele>643.8</ele>
        <time>2019-06-16T16:50:55.245Z</time>
      </trkpt>
      <trkpt lat="42.97757" lon="-0.40743">
        <ele>643.8</ele>
        <time>2019-06-16T16:50:55.245Z</time>
      </trkpt>
      <trkpt lat="42.97711" lon="-0.4071">
        <ele>652.7</ele>
        <time>2019-06-16T16:50:56.078Z</time>
      </trkpt>
      <trkpt lat="42.97711" lon="-0.4071">
        <ele>652.7</ele>
        <time>2019-06-16T16:50:56.078Z</time>
      </trkpt>
      <trkpt lat="42.97703" lon="-0.40702">
        <ele>654</ele>
        <time>2019-06-16T16:50:56.237Z</time>
      </trkpt>
      <trkpt lat="42.97703" lon="-0.40702">
        <ele>654</ele>
        <time>2019-06-16T16:50:56.237Z</time>
      </trkpt>
      <trkpt lat="42.97696" lon="-0.40692">
        <ele>655</ele>
        <time>2019-06-16T16:50:56.399Z</time>
      </trkpt>
      <trkpt lat="42.97696" lon="-0.40692">
        <ele>655</ele>
        <time>2019-06-16T16:50:56.399Z</time>
      </trkpt>
      <trkpt lat="42.97688" lon="-0.40673">
        <ele>654.5</ele>
        <time>2019-06-16T16:50:56.656Z</time>
      </trkpt>
      <trkpt lat="42.97688" lon="-0.40673">
        <ele>654.5</ele>
        <time>2019-06-16T16:50:56.656Z</time>
      </trkpt>
      <trkpt lat="42.97682" lon="-0.40648">
        <ele>653.5</ele>
        <time>2019-06-16T16:50:56.965Z</time>
      </trkpt>
      <trkpt lat="42.97682" lon="-0.40648">
        <ele>653.5</ele>
        <time>2019-06-16T16:50:56.965Z</time>
      </trkpt>
      <trkpt lat="42.97674" lon="-0.4061">
        <ele>653.4</ele>
        <time>2019-06-16T16:50:57.429Z</time>
      </trkpt>
      <trkpt lat="42.97674" lon="-0.4061">
        <ele>653.4</ele>
        <time>2019-06-16T16:50:57.429Z</time>
      </trkpt>
      <trkpt lat="42.97661" lon="-0.40575">
        <ele>654.9</ele>
        <time>2019-06-16T16:50:57.889Z</time>
      </trkpt>
      <trkpt lat="42.97661" lon="-0.40575">
        <ele>654.9</ele>
        <time>2019-06-16T16:50:57.889Z</time>
      </trkpt>
      <trkpt lat="42.97653" lon="-0.40561">
        <ele>655.4</ele>
        <time>2019-06-16T16:50:58.097Z</time>
      </trkpt>
      <trkpt lat="42.97653" lon="-0.40561">
        <ele>655.4</ele>
        <time>2019-06-16T16:50:58.098Z</time>
      </trkpt>
      <trkpt lat="42.97643" lon="-0.40548">
        <ele>655.8</ele>
        <time>2019-06-16T16:50:58.319Z</time>
      </trkpt>
      <trkpt lat="42.97643" lon="-0.40548">
        <ele>655.8</ele>
        <time>2019-06-16T16:50:58.319Z</time>
      </trkpt>
      <trkpt lat="42.97637" lon="-0.40543">
        <ele>656.4</ele>
        <time>2019-06-16T16:50:58.432Z</time>
      </trkpt>
      <trkpt lat="42.97637" lon="-0.40543">
        <ele>656.4</ele>
        <time>2019-06-16T16:50:58.433Z</time>
      </trkpt>
      <trkpt lat="42.9761" lon="-0.40528">
        <ele>661.4</ele>
        <time>2019-06-16T16:50:58.900Z</time>
      </trkpt>
      <trkpt lat="42.9761" lon="-0.40528">
        <ele>661.4</ele>
        <time>2019-06-16T16:50:58.900Z</time>
      </trkpt>
      <trkpt lat="42.97589" lon="-0.4052">
        <ele>665.9</ele>
        <time>2019-06-16T16:50:59.249Z</time>
      </trkpt>
      <trkpt lat="42.97589" lon="-0.4052">
        <ele>665.9</ele>
        <time>2019-06-16T16:50:59.250Z</time>
      </trkpt>
      <trkpt lat="42.97576" lon="-0.40513">
        <ele>667.9</ele>
        <time>2019-06-16T16:50:59.474Z</time>
      </trkpt>
      <trkpt lat="42.97576" lon="-0.40513">
        <ele>667.9</ele>
        <time>2019-06-16T16:50:59.474Z</time>
      </trkpt>
      <trkpt lat="42.97566" lon="-0.40505">
        <ele>668.4</ele>
        <time>2019-06-16T16:50:59.660Z</time>
      </trkpt>
      <trkpt lat="42.97566" lon="-0.40505">
        <ele>668.4</ele>
        <time>2019-06-16T16:50:59.660Z</time>
      </trkpt>
      <trkpt lat="42.97522" lon="-0.40448">
        <ele>668</ele>
        <time>2019-06-16T16:51:00.632Z</time>
      </trkpt>
      <trkpt lat="42.97522" lon="-0.40448">
        <ele>668</ele>
        <time>2019-06-16T16:51:00.632Z</time>
      </trkpt>
      <trkpt lat="42.97506" lon="-0.40426">
        <ele>671</ele>
        <time>2019-06-16T16:51:00.996Z</time>
      </trkpt>
      <trkpt lat="42.97506" lon="-0.40426">
        <ele>671</ele>
        <time>2019-06-16T16:51:00.996Z</time>
      </trkpt>
      <trkpt lat="42.97496" lon="-0.40404">
        <ele>672.6</ele>
        <time>2019-06-16T16:51:01.300Z</time>
      </trkpt>
      <trkpt lat="42.97496" lon="-0.40404">
        <ele>672.6</ele>
        <time>2019-06-16T16:51:01.300Z</time>
      </trkpt>
      <trkpt lat="42.9749" lon="-0.40358">
        <ele>671</ele>
        <time>2019-06-16T16:51:01.848Z</time>
      </trkpt>
      <trkpt lat="42.9749" lon="-0.40358">
        <ele>671</ele>
        <time>2019-06-16T16:51:01.848Z</time>
      </trkpt>
      <trkpt lat="42.97481" lon="-0.4033">
        <ele>672.1</ele>
        <time>2019-06-16T16:51:02.207Z</time>
      </trkpt>
      <trkpt lat="42.97481" lon="-0.4033">
        <ele>672.1</ele>
        <time>2019-06-16T16:51:02.207Z</time>
      </trkpt>
      <trkpt lat="42.97473" lon="-0.40303">
        <ele>672.2</ele>
        <time>2019-06-16T16:51:02.549Z</time>
      </trkpt>
      <trkpt lat="42.97473" lon="-0.40303">
        <ele>672.2</ele>
        <time>2019-06-16T16:51:02.549Z</time>
      </trkpt>
      <trkpt lat="42.9747" lon="-0.40264">
        <ele>669.2</ele>
        <time>2019-06-16T16:51:03.009Z</time>
      </trkpt>
      <trkpt lat="42.9747" lon="-0.40264">
        <ele>669.2</ele>
        <time>2019-06-16T16:51:03.009Z</time>
      </trkpt>
      <trkpt lat="42.97472" lon="-0.40232">
        <ele>667.1</ele>
        <time>2019-06-16T16:51:03.386Z</time>
      </trkpt>
      <trkpt lat="42.97472" lon="-0.40232">
        <ele>667.1</ele>
        <time>2019-06-16T16:51:03.386Z</time>
      </trkpt>
      <trkpt lat="42.97469" lon="-0.40196">
        <ele>669.3</ele>
        <time>2019-06-16T16:51:03.811Z</time>
      </trkpt>
      <trkpt lat="42.97469" lon="-0.40196">
        <ele>669.3</ele>
        <time>2019-06-16T16:51:03.811Z</time>
      </trkpt>
      <trkpt lat="42.97457" lon="-0.40117">
        <ele>674.9</ele>
        <time>2019-06-16T16:51:04.757Z</time>
      </trkpt>
      <trkpt lat="42.97457" lon="-0.40117">
        <ele>674.9</ele>
        <time>2019-06-16T16:51:04.757Z</time>
      </trkpt>
      <trkpt lat="42.97449" lon="-0.40053">
        <ele>677</ele>
        <time>2019-06-16T16:51:05.519Z</time>
      </trkpt>
      <trkpt lat="42.97449" lon="-0.40053">
        <ele>677</ele>
        <time>2019-06-16T16:51:05.519Z</time>
      </trkpt>
      <trkpt lat="42.9745" lon="-0.4001">
        <ele>676.1</ele>
        <time>2019-06-16T16:51:06.024Z</time>
      </trkpt>
      <trkpt lat="42.9745" lon="-0.4001">
        <ele>676.1</ele>
        <time>2019-06-16T16:51:06.024Z</time>
      </trkpt>
      <trkpt lat="42.97453" lon="-0.39958">
        <ele>676.4</ele>
        <time>2019-06-16T16:51:06.636Z</time>
      </trkpt>
      <trkpt lat="42.97453" lon="-0.39958">
        <ele>676.4</ele>
        <time>2019-06-16T16:51:06.636Z</time>
      </trkpt>
      <trkpt lat="42.97453" lon="-0.39943">
        <ele>677.6</ele>
        <time>2019-06-16T16:51:06.812Z</time>
      </trkpt>
      <trkpt lat="42.97453" lon="-0.39943">
        <ele>677.6</ele>
        <time>2019-06-16T16:51:06.812Z</time>
      </trkpt>
      <trkpt lat="42.97449" lon="-0.39913">
        <ele>682.5</ele>
        <time>2019-06-16T16:51:07.170Z</time>
      </trkpt>
      <trkpt lat="42.97449" lon="-0.39913">
        <ele>682.5</ele>
        <time>2019-06-16T16:51:07.170Z</time>
      </trkpt>
      <trkpt lat="42.9744" lon="-0.39858">
        <ele>688</ele>
        <time>2019-06-16T16:51:07.831Z</time>
      </trkpt>
      <trkpt lat="42.9744" lon="-0.39858">
        <ele>688</ele>
        <time>2019-06-16T16:51:07.831Z</time>
      </trkpt>
      <trkpt lat="42.97435" lon="-0.39827">
        <ele>688</ele>
        <time>2019-06-16T16:51:08.203Z</time>
      </trkpt>
      <trkpt lat="42.97435" lon="-0.39827">
        <ele>688</ele>
        <time>2019-06-16T16:51:08.203Z</time>
      </trkpt>
      <trkpt lat="42.97428" lon="-0.39799">
        <ele>688.8</ele>
        <time>2019-06-16T16:51:08.550Z</time>
      </trkpt>
      <trkpt lat="42.97428" lon="-0.39799">
        <ele>688.8</ele>
        <time>2019-06-16T16:51:08.550Z</time>
      </trkpt>
      <trkpt lat="42.97413" lon="-0.39779">
        <ele>694.6</ele>
        <time>2019-06-16T16:51:08.886Z</time>
      </trkpt>
      <trkpt lat="42.97413" lon="-0.39779">
        <ele>694.6</ele>
        <time>2019-06-16T16:51:08.886Z</time>
      </trkpt>
      <trkpt lat="42.974" lon="-0.39762">
        <ele>697.9</ele>
        <time>2019-06-16T16:51:09.174Z</time>
      </trkpt>
      <trkpt lat="42.974" lon="-0.39762">
        <ele>697.9</ele>
        <time>2019-06-16T16:51:09.174Z</time>
      </trkpt>
      <trkpt lat="42.97392" lon="-0.3974">
        <ele>699.4</ele>
        <time>2019-06-16T16:51:09.462Z</time>
      </trkpt>
      <trkpt lat="42.97392" lon="-0.3974">
        <ele>699.4</ele>
        <time>2019-06-16T16:51:09.462Z</time>
      </trkpt>
      <trkpt lat="42.9739" lon="-0.39726">
        <ele>699.7</ele>
        <time>2019-06-16T16:51:09.629Z</time>
      </trkpt>
      <trkpt lat="42.9739" lon="-0.39726">
        <ele>699.7</ele>
        <time>2019-06-16T16:51:09.630Z</time>
      </trkpt>
      <trkpt lat="42.97391" lon="-0.39708">
        <ele>701.1</ele>
        <time>2019-06-16T16:51:09.842Z</time>
      </trkpt>
      <trkpt lat="42.97391" lon="-0.39708">
        <ele>701.1</ele>
        <time>2019-06-16T16:51:09.842Z</time>
      </trkpt>
      <trkpt lat="42.97401" lon="-0.39678">
        <ele>700.7</ele>
        <time>2019-06-16T16:51:10.229Z</time>
      </trkpt>
      <trkpt lat="42.97401" lon="-0.39678">
        <ele>700.7</ele>
        <time>2019-06-16T16:51:10.229Z</time>
      </trkpt>
      <trkpt lat="42.97404" lon="-0.39669">
        <ele>700.4</ele>
        <time>2019-06-16T16:51:10.345Z</time>
      </trkpt>
      <trkpt lat="42.97404" lon="-0.39669">
        <ele>700.4</ele>
        <time>2019-06-16T16:51:10.346Z</time>
      </trkpt>
      <trkpt lat="42.97406" lon="-0.39655">
        <ele>700.9</ele>
        <time>2019-06-16T16:51:10.513Z</time>
      </trkpt>
      <trkpt lat="42.97406" lon="-0.39655">
        <ele>700.9</ele>
        <time>2019-06-16T16:51:10.513Z</time>
      </trkpt>
      <trkpt lat="42.97406" lon="-0.39631">
        <ele>703.6</ele>
        <time>2019-06-16T16:51:10.795Z</time>
      </trkpt>
      <trkpt lat="42.97406" lon="-0.39631">
        <ele>703.6</ele>
        <time>2019-06-16T16:51:10.795Z</time>
      </trkpt>
      <trkpt lat="42.9741" lon="-0.39603">
        <ele>703.9</ele>
        <time>2019-06-16T16:51:11.130Z</time>
      </trkpt>
      <trkpt lat="42.9741" lon="-0.39603">
        <ele>703.9</ele>
        <time>2019-06-16T16:51:11.130Z</time>
      </trkpt>
      <trkpt lat="42.97419" lon="-0.39576">
        <ele>699.9</ele>
        <time>2019-06-16T16:51:11.478Z</time>
      </trkpt>
      <trkpt lat="42.97419" lon="-0.39576">
        <ele>699.9</ele>
        <time>2019-06-16T16:51:11.478Z</time>
      </trkpt>
      <trkpt lat="42.97424" lon="-0.39555">
        <ele>698</ele>
        <time>2019-06-16T16:51:11.737Z</time>
      </trkpt>
      <trkpt lat="42.97424" lon="-0.39555">
        <ele>698</ele>
        <time>2019-06-16T16:51:11.737Z</time>
      </trkpt>
      <trkpt lat="42.97421" lon="-0.39538">
        <ele>700.8</ele>
        <time>2019-06-16T16:51:11.942Z</time>
      </trkpt>
      <trkpt lat="42.97421" lon="-0.39538">
        <ele>700.8</ele>
        <time>2019-06-16T16:51:11.942Z</time>
      </trkpt>
      <trkpt lat="42.97409" lon="-0.39499">
        <ele>710</ele>
        <time>2019-06-16T16:51:12.438Z</time>
      </trkpt>
      <trkpt lat="42.97409" lon="-0.39499">
        <ele>710</ele>
        <time>2019-06-16T16:51:12.438Z</time>
      </trkpt>
      <trkpt lat="42.97405" lon="-0.39474">
        <ele>712.2</ele>
        <time>2019-06-16T16:51:12.738Z</time>
      </trkpt>
      <trkpt lat="42.97405" lon="-0.39474">
        <ele>712.2</ele>
        <time>2019-06-16T16:51:12.738Z</time>
      </trkpt>
      <trkpt lat="42.97403" lon="-0.39424">
        <ele>705.5</ele>
        <time>2019-06-16T16:51:13.325Z</time>
      </trkpt>
      <trkpt lat="42.97403" lon="-0.39424">
        <ele>705.5</ele>
        <time>2019-06-16T16:51:13.325Z</time>
      </trkpt>
      <trkpt lat="42.97401" lon="-0.39411">
        <ele>703.7</ele>
        <time>2019-06-16T16:51:13.481Z</time>
      </trkpt>
      <trkpt lat="42.97401" lon="-0.39411">
        <ele>703.7</ele>
        <time>2019-06-16T16:51:13.481Z</time>
      </trkpt>
      <trkpt lat="42.97388" lon="-0.39382">
        <ele>704.3</ele>
        <time>2019-06-16T16:51:13.880Z</time>
      </trkpt>
      <trkpt lat="42.97388" lon="-0.39382">
        <ele>704.3</ele>
        <time>2019-06-16T16:51:13.881Z</time>
      </trkpt>
      <trkpt lat="42.9737" lon="-0.39359">
        <ele>706.7</ele>
        <time>2019-06-16T16:51:14.276Z</time>
      </trkpt>
      <trkpt lat="42.9737" lon="-0.39359">
        <ele>706.7</ele>
        <time>2019-06-16T16:51:14.276Z</time>
      </trkpt>
      <trkpt lat="42.97347" lon="-0.39324">
        <ele>709.2</ele>
        <time>2019-06-16T16:51:14.828Z</time>
      </trkpt>
      <trkpt lat="42.97347" lon="-0.39324">
        <ele>709.2</ele>
        <time>2019-06-16T16:51:14.828Z</time>
      </trkpt>
      <trkpt lat="42.97294" lon="-0.39242">
        <ele>728.8</ele>
        <time>2019-06-16T16:51:16.111Z</time>
      </trkpt>
      <trkpt lat="42.97294" lon="-0.39242">
        <ele>728.8</ele>
        <time>2019-06-16T16:51:16.111Z</time>
      </trkpt>
      <trkpt lat="42.97272" lon="-0.39209">
        <ele>732.4</ele>
        <time>2019-06-16T16:51:16.635Z</time>
      </trkpt>
      <trkpt lat="42.97272" lon="-0.39209">
        <ele>732.4</ele>
        <time>2019-06-16T16:51:16.635Z</time>
      </trkpt>
      <trkpt lat="42.97323" lon="-0.39146">
        <ele>734.8</ele>
        <time>2019-06-16T16:51:17.737Z</time>
      </trkpt>
      <trkpt lat="42.97323" lon="-0.39146">
        <ele>734.8</ele>
        <time>2019-06-16T16:51:17.737Z</time>
      </trkpt>
      <trkpt lat="42.97324" lon="-0.39127">
        <ele>732.5</ele>
        <time>2019-06-16T16:51:17.960Z</time>
      </trkpt>
      <trkpt lat="42.97324" lon="-0.39127">
        <ele>732.5</ele>
        <time>2019-06-16T16:51:17.960Z</time>
      </trkpt>
      <trkpt lat="42.97322" lon="-0.39111">
        <ele>731.3</ele>
        <time>2019-06-16T16:51:18.150Z</time>
      </trkpt>
      <trkpt lat="42.97322" lon="-0.39111">
        <ele>731.3</ele>
        <time>2019-06-16T16:51:18.150Z</time>
      </trkpt>
      <trkpt lat="42.97295" lon="-0.39048">
        <ele>734.3</ele>
        <time>2019-06-16T16:51:19.006Z</time>
      </trkpt>
      <trkpt lat="42.97295" lon="-0.39048">
        <ele>734.3</ele>
        <time>2019-06-16T16:51:19.006Z</time>
      </trkpt>
      <trkpt lat="42.97254" lon="-0.38908">
        <ele>732.1</ele>
        <time>2019-06-16T16:51:20.775Z</time>
      </trkpt>
      <trkpt lat="42.97254" lon="-0.38908">
        <ele>732.1</ele>
        <time>2019-06-16T16:51:20.775Z</time>
      </trkpt>
      <trkpt lat="42.97231" lon="-0.38857">
        <ele>743.3</ele>
        <time>2019-06-16T16:51:21.478Z</time>
      </trkpt>
      <trkpt lat="42.97231" lon="-0.38857">
        <ele>743.3</ele>
        <time>2019-06-16T16:51:21.478Z</time>
      </trkpt>
      <trkpt lat="42.97219" lon="-0.38821">
        <ele>749.1</ele>
        <time>2019-06-16T16:51:21.942Z</time>
      </trkpt>
      <trkpt lat="42.97219" lon="-0.38821">
        <ele>749.1</ele>
        <time>2019-06-16T16:51:21.942Z</time>
      </trkpt>
      <trkpt lat="42.97216" lon="-0.38794">
        <ele>747.6</ele>
        <time>2019-06-16T16:51:22.262Z</time>
      </trkpt>
      <trkpt lat="42.97216" lon="-0.38794">
        <ele>747.6</ele>
        <time>2019-06-16T16:51:22.262Z</time>
      </trkpt>
      <trkpt lat="42.97205" lon="-0.38747">
        <ele>751.2</ele>
        <time>2019-06-16T16:51:22.841Z</time>
      </trkpt>
      <trkpt lat="42.97205" lon="-0.38747">
        <ele>751.2</ele>
        <time>2019-06-16T16:51:22.842Z</time>
      </trkpt>
      <trkpt lat="42.97176" lon="-0.38635">
        <ele>765</ele>
        <time>2019-06-16T16:51:24.236Z</time>
      </trkpt>
      <trkpt lat="42.97176" lon="-0.38635">
        <ele>765</ele>
        <time>2019-06-16T16:51:24.236Z</time>
      </trkpt>
      <trkpt lat="42.97176" lon="-0.38617">
        <ele>765.2</ele>
        <time>2019-06-16T16:51:24.447Z</time>
      </trkpt>
      <trkpt lat="42.97176" lon="-0.38617">
        <ele>765.2</ele>
        <time>2019-06-16T16:51:24.447Z</time>
      </trkpt>
      <trkpt lat="42.9718" lon="-0.38588">
        <ele>764.5</ele>
        <time>2019-06-16T16:51:24.793Z</time>
      </trkpt>
      <trkpt lat="42.9718" lon="-0.38588">
        <ele>764.5</ele>
        <time>2019-06-16T16:51:24.794Z</time>
      </trkpt>
      <trkpt lat="42.97189" lon="-0.38522">
        <ele>768.4</ele>
        <time>2019-06-16T16:51:25.582Z</time>
      </trkpt>
      <trkpt lat="42.97189" lon="-0.38522">
        <ele>768.4</ele>
        <time>2019-06-16T16:51:25.584Z</time>
      </trkpt>
      <trkpt lat="42.97188" lon="-0.385">
        <ele>772.2</ele>
        <time>2019-06-16T16:51:25.843Z</time>
      </trkpt>
      <trkpt lat="42.97188" lon="-0.385">
        <ele>772.2</ele>
        <time>2019-06-16T16:51:25.843Z</time>
      </trkpt>
      <trkpt lat="42.97183" lon="-0.38476">
        <ele>777.2</ele>
        <time>2019-06-16T16:51:26.136Z</time>
      </trkpt>
      <trkpt lat="42.97183" lon="-0.38476">
        <ele>777.2</ele>
        <time>2019-06-16T16:51:26.136Z</time>
      </trkpt>
      <trkpt lat="42.9717" lon="-0.38443">
        <ele>781.2</ele>
        <time>2019-06-16T16:51:26.576Z</time>
      </trkpt>
      <trkpt lat="42.9717" lon="-0.38443">
        <ele>781.2</ele>
        <time>2019-06-16T16:51:26.576Z</time>
      </trkpt>
      <trkpt lat="42.97153" lon="-0.38413">
        <ele>785.2</ele>
        <time>2019-06-16T16:51:27.021Z</time>
      </trkpt>
      <trkpt lat="42.97153" lon="-0.38413">
        <ele>785.2</ele>
        <time>2019-06-16T16:51:27.023Z</time>
      </trkpt>
      <trkpt lat="42.97109" lon="-0.38297">
        <ele>788.7</ele>
        <time>2019-06-16T16:51:28.556Z</time>
      </trkpt>
      <trkpt lat="42.97109" lon="-0.38297">
        <ele>788.7</ele>
        <time>2019-06-16T16:51:28.557Z</time>
      </trkpt>
      <trkpt lat="42.97099" lon="-0.38278">
        <ele>790.6</ele>
        <time>2019-06-16T16:51:28.832Z</time>
      </trkpt>
      <trkpt lat="42.97099" lon="-0.38278">
        <ele>790.6</ele>
        <time>2019-06-16T16:51:28.832Z</time>
      </trkpt>
      <trkpt lat="42.9709" lon="-0.38268">
        <ele>792</ele>
        <time>2019-06-16T16:51:29.018Z</time>
      </trkpt>
      <trkpt lat="42.9709" lon="-0.38268">
        <ele>792</ele>
        <time>2019-06-16T16:51:29.018Z</time>
      </trkpt>
      <trkpt lat="42.97083" lon="-0.38263">
        <ele>792.5</ele>
        <time>2019-06-16T16:51:29.145Z</time>
      </trkpt>
      <trkpt lat="42.97083" lon="-0.38263">
        <ele>792.5</ele>
        <time>2019-06-16T16:51:29.145Z</time>
      </trkpt>
      <trkpt lat="42.97066" lon="-0.38251">
        <ele>795.5</ele>
        <time>2019-06-16T16:51:29.452Z</time>
      </trkpt>
      <trkpt lat="42.97066" lon="-0.38251">
        <ele>795.5</ele>
        <time>2019-06-16T16:51:29.452Z</time>
      </trkpt>
      <trkpt lat="42.9704" lon="-0.38231">
        <ele>800</ele>
        <time>2019-06-16T16:51:29.930Z</time>
      </trkpt>
      <trkpt lat="42.9704" lon="-0.38231">
        <ele>800</ele>
        <time>2019-06-16T16:51:29.930Z</time>
      </trkpt>
      <trkpt lat="42.97028" lon="-0.38216">
        <ele>801.3</ele>
        <time>2019-06-16T16:51:30.191Z</time>
      </trkpt>
      <trkpt lat="42.97028" lon="-0.38216">
        <ele>801.3</ele>
        <time>2019-06-16T16:51:30.191Z</time>
      </trkpt>
      <trkpt lat="42.97021" lon="-0.38195">
        <ele>801</ele>
        <time>2019-06-16T16:51:30.462Z</time>
      </trkpt>
      <trkpt lat="42.97021" lon="-0.38195">
        <ele>801</ele>
        <time>2019-06-16T16:51:30.463Z</time>
      </trkpt>
      <trkpt lat="42.96999" lon="-0.38099">
        <ele>801.2</ele>
        <time>2019-06-16T16:51:31.643Z</time>
      </trkpt>
      <trkpt lat="42.96999" lon="-0.38099">
        <ele>801.2</ele>
        <time>2019-06-16T16:51:31.643Z</time>
      </trkpt>
      <trkpt lat="42.96991" lon="-0.38079">
        <ele>802.4</ele>
        <time>2019-06-16T16:51:31.910Z</time>
      </trkpt>
      <trkpt lat="42.96991" lon="-0.38079">
        <ele>802.4</ele>
        <time>2019-06-16T16:51:31.910Z</time>
      </trkpt>
      <trkpt lat="42.96976" lon="-0.38055">
        <ele>803.8</ele>
        <time>2019-06-16T16:51:32.280Z</time>
      </trkpt>
      <trkpt lat="42.96976" lon="-0.38055">
        <ele>803.8</ele>
        <time>2019-06-16T16:51:32.280Z</time>
      </trkpt>
      <trkpt lat="42.96972" lon="-0.38054">
        <ele>804.1</ele>
        <time>2019-06-16T16:51:32.345Z</time>
      </trkpt>
      <trkpt lat="42.96972" lon="-0.38054">
        <ele>804.1</ele>
        <time>2019-06-16T16:51:32.346Z</time>
      </trkpt>
      <trkpt lat="42.96968" lon="-0.38055">
        <ele>805.1</ele>
        <time>2019-06-16T16:51:32.411Z</time>
      </trkpt>
      <trkpt lat="42.96968" lon="-0.38055">
        <ele>805.1</ele>
        <time>2019-06-16T16:51:32.412Z</time>
      </trkpt>
      <trkpt lat="42.96967" lon="-0.38073">
        <ele>805.9</ele>
        <time>2019-06-16T16:51:32.624Z</time>
      </trkpt>
      <trkpt lat="42.96967" lon="-0.38073">
        <ele>805.9</ele>
        <time>2019-06-16T16:51:32.624Z</time>
      </trkpt>
      <trkpt lat="42.96969" lon="-0.38084">
        <ele>805.9</ele>
        <time>2019-06-16T16:51:32.757Z</time>
      </trkpt>
      <trkpt lat="42.96969" lon="-0.38084">
        <ele>805.9</ele>
        <time>2019-06-16T16:51:32.757Z</time>
      </trkpt>
      <trkpt lat="42.96978" lon="-0.3811">
        <ele>805.7</ele>
        <time>2019-06-16T16:51:33.094Z</time>
      </trkpt>
      <trkpt lat="42.96978" lon="-0.3811">
        <ele>805.7</ele>
        <time>2019-06-16T16:51:33.094Z</time>
      </trkpt>
      <trkpt lat="42.96996" lon="-0.38148">
        <ele>803.9</ele>
        <time>2019-06-16T16:51:33.625Z</time>
      </trkpt>
      <trkpt lat="42.96996" lon="-0.38148">
        <ele>803.9</ele>
        <time>2019-06-16T16:51:33.625Z</time>
      </trkpt>
      <trkpt lat="42.96997" lon="-0.38202">
        <ele>809</ele>
        <time>2019-06-16T16:51:34.259Z</time>
      </trkpt>
      <trkpt lat="42.96997" lon="-0.38202">
        <ele>809</ele>
        <time>2019-06-16T16:51:34.260Z</time>
      </trkpt>
      <trkpt lat="42.97002" lon="-0.3823">
        <ele>811.5</ele>
        <time>2019-06-16T16:51:34.598Z</time>
      </trkpt>
      <trkpt lat="42.97002" lon="-0.3823">
        <ele>811.5</ele>
        <time>2019-06-16T16:51:34.598Z</time>
      </trkpt>
      <trkpt lat="42.97003" lon="-0.38236">
        <ele>812</ele>
        <time>2019-06-16T16:51:34.670Z</time>
      </trkpt>
      <trkpt lat="42.97003" lon="-0.38236">
        <ele>812</ele>
        <time>2019-06-16T16:51:34.670Z</time>
      </trkpt>
      <trkpt lat="42.97001" lon="-0.38242">
        <ele>813.5</ele>
        <time>2019-06-16T16:51:34.747Z</time>
      </trkpt>
      <trkpt lat="42.97001" lon="-0.38242">
        <ele>813.5</ele>
        <time>2019-06-16T16:51:34.748Z</time>
      </trkpt>
      <trkpt lat="42.96998" lon="-0.38245">
        <ele>814.9</ele>
        <time>2019-06-16T16:51:34.808Z</time>
      </trkpt>
      <trkpt lat="42.96998" lon="-0.38245">
        <ele>814.9</ele>
        <time>2019-06-16T16:51:34.808Z</time>
      </trkpt>
      <trkpt lat="42.96995" lon="-0.38246">
        <ele>815.9</ele>
        <time>2019-06-16T16:51:34.857Z</time>
      </trkpt>
      <trkpt lat="42.96995" lon="-0.38246">
        <ele>815.9</ele>
        <time>2019-06-16T16:51:34.857Z</time>
      </trkpt>
      <trkpt lat="42.9699" lon="-0.38244">
        <ele>817</ele>
        <time>2019-06-16T16:51:34.941Z</time>
      </trkpt>
      <trkpt lat="42.9699" lon="-0.38244">
        <ele>817</ele>
        <time>2019-06-16T16:51:34.941Z</time>
      </trkpt>
      <trkpt lat="42.96987" lon="-0.38241">
        <ele>817.4</ele>
        <time>2019-06-16T16:51:35.001Z</time>
      </trkpt>
      <trkpt lat="42.96987" lon="-0.38241">
        <ele>817.4</ele>
        <time>2019-06-16T16:51:35.001Z</time>
      </trkpt>
      <trkpt lat="42.96984" lon="-0.38221">
        <ele>815.5</ele>
        <time>2019-06-16T16:51:35.240Z</time>
      </trkpt>
      <trkpt lat="42.96984" lon="-0.38221">
        <ele>815.5</ele>
        <time>2019-06-16T16:51:35.240Z</time>
      </trkpt>
      <trkpt lat="42.96982" lon="-0.38176">
        <ele>810.8</ele>
        <time>2019-06-16T16:51:35.769Z</time>
      </trkpt>
      <trkpt lat="42.96982" lon="-0.38176">
        <ele>810.8</ele>
        <time>2019-06-16T16:51:35.769Z</time>
      </trkpt>
      <trkpt lat="42.96979" lon="-0.3816">
        <ele>810.1</ele>
        <time>2019-06-16T16:51:35.963Z</time>
      </trkpt>
      <trkpt lat="42.96979" lon="-0.3816">
        <ele>810.1</ele>
        <time>2019-06-16T16:51:35.964Z</time>
      </trkpt>
      <trkpt lat="42.96974" lon="-0.38149">
        <ele>810.6</ele>
        <time>2019-06-16T16:51:36.116Z</time>
      </trkpt>
      <trkpt lat="42.96974" lon="-0.38149">
        <ele>810.6</ele>
        <time>2019-06-16T16:51:36.116Z</time>
      </trkpt>
      <trkpt lat="42.96959" lon="-0.38138">
        <ele>813.7</ele>
        <time>2019-06-16T16:51:36.389Z</time>
      </trkpt>
      <trkpt lat="42.96959" lon="-0.38138">
        <ele>813.7</ele>
        <time>2019-06-16T16:51:36.389Z</time>
      </trkpt>
      <trkpt lat="42.96949" lon="-0.38126">
        <ele>815.3</ele>
        <time>2019-06-16T16:51:36.602Z</time>
      </trkpt>
      <trkpt lat="42.96949" lon="-0.38126">
        <ele>815.3</ele>
        <time>2019-06-16T16:51:36.602Z</time>
      </trkpt>
      <trkpt lat="42.96939" lon="-0.38101">
        <ele>815.4</ele>
        <time>2019-06-16T16:51:36.936Z</time>
      </trkpt>
      <trkpt lat="42.96939" lon="-0.38101">
        <ele>815.4</ele>
        <time>2019-06-16T16:51:36.936Z</time>
      </trkpt>
      <trkpt lat="42.9693" lon="-0.3809">
        <ele>816.8</ele>
        <time>2019-06-16T16:51:37.130Z</time>
      </trkpt>
      <trkpt lat="42.9693" lon="-0.3809">
        <ele>816.8</ele>
        <time>2019-06-16T16:51:37.131Z</time>
      </trkpt>
      <trkpt lat="42.96924" lon="-0.38088">
        <ele>818.3</ele>
        <time>2019-06-16T16:51:37.230Z</time>
      </trkpt>
      <trkpt lat="42.96924" lon="-0.38088">
        <ele>818.3</ele>
        <time>2019-06-16T16:51:37.230Z</time>
      </trkpt>
      <trkpt lat="42.96914" lon="-0.3809">
        <ele>821.2</ele>
        <time>2019-06-16T16:51:37.392Z</time>
      </trkpt>
      <trkpt lat="42.96914" lon="-0.3809">
        <ele>821.2</ele>
        <time>2019-06-16T16:51:37.392Z</time>
      </trkpt>
      <trkpt lat="42.96904" lon="-0.38092">
        <ele>823.8</ele>
        <time>2019-06-16T16:51:37.554Z</time>
      </trkpt>
      <trkpt lat="42.96904" lon="-0.38092">
        <ele>823.8</ele>
        <time>2019-06-16T16:51:37.554Z</time>
      </trkpt>
      <trkpt lat="42.96888" lon="-0.38091">
        <ele>827.8</ele>
        <time>2019-06-16T16:51:37.811Z</time>
      </trkpt>
      <trkpt lat="42.96888" lon="-0.38091">
        <ele>827.8</ele>
        <time>2019-06-16T16:51:37.811Z</time>
      </trkpt>
      <trkpt lat="42.96877" lon="-0.38082">
        <ele>830.9</ele>
        <time>2019-06-16T16:51:38.017Z</time>
      </trkpt>
      <trkpt lat="42.96877" lon="-0.38082">
        <ele>830.9</ele>
        <time>2019-06-16T16:51:38.017Z</time>
      </trkpt>
      <trkpt lat="42.96869" lon="-0.3807">
        <ele>833.4</ele>
        <time>2019-06-16T16:51:38.207Z</time>
      </trkpt>
      <trkpt lat="42.96869" lon="-0.3807">
        <ele>833.4</ele>
        <time>2019-06-16T16:51:38.207Z</time>
      </trkpt>
      <trkpt lat="42.96866" lon="-0.38055">
        <ele>834.4</ele>
        <time>2019-06-16T16:51:38.389Z</time>
      </trkpt>
      <trkpt lat="42.96866" lon="-0.38055">
        <ele>834.4</ele>
        <time>2019-06-16T16:51:38.389Z</time>
      </trkpt>
      <trkpt lat="42.96868" lon="-0.38038">
        <ele>834.4</ele>
        <time>2019-06-16T16:51:38.591Z</time>
      </trkpt>
      <trkpt lat="42.96868" lon="-0.38038">
        <ele>834.4</ele>
        <time>2019-06-16T16:51:38.591Z</time>
      </trkpt>
      <trkpt lat="42.96884" lon="-0.38015">
        <ele>829.6</ele>
        <time>2019-06-16T16:51:38.963Z</time>
      </trkpt>
      <trkpt lat="42.96884" lon="-0.38015">
        <ele>829.6</ele>
        <time>2019-06-16T16:51:38.963Z</time>
      </trkpt>
      <trkpt lat="42.96887" lon="-0.37996">
        <ele>828.2</ele>
        <time>2019-06-16T16:51:39.191Z</time>
      </trkpt>
      <trkpt lat="42.96887" lon="-0.37996">
        <ele>828.2</ele>
        <time>2019-06-16T16:51:39.192Z</time>
      </trkpt>
      <trkpt lat="42.96885" lon="-0.37976">
        <ele>826.7</ele>
        <time>2019-06-16T16:51:39.429Z</time>
      </trkpt>
      <trkpt lat="42.96885" lon="-0.37976">
        <ele>826.7</ele>
        <time>2019-06-16T16:51:39.429Z</time>
      </trkpt>
      <trkpt lat="42.96877" lon="-0.37955">
        <ele>826.5</ele>
        <time>2019-06-16T16:51:39.707Z</time>
      </trkpt>
      <trkpt lat="42.96877" lon="-0.37955">
        <ele>826.5</ele>
        <time>2019-06-16T16:51:39.707Z</time>
      </trkpt>
      <trkpt lat="42.96862" lon="-0.37944">
        <ele>828.7</ele>
        <time>2019-06-16T16:51:39.980Z</time>
      </trkpt>
      <trkpt lat="42.96862" lon="-0.37944">
        <ele>828.7</ele>
        <time>2019-06-16T16:51:39.980Z</time>
      </trkpt>
      <trkpt lat="42.96836" lon="-0.37941">
        <ele>835.7</ele>
        <time>2019-06-16T16:51:40.398Z</time>
      </trkpt>
      <trkpt lat="42.96836" lon="-0.37941">
        <ele>835.7</ele>
        <time>2019-06-16T16:51:40.398Z</time>
      </trkpt>
      <trkpt lat="42.9683" lon="-0.37938">
        <ele>837.3</ele>
        <time>2019-06-16T16:51:40.500Z</time>
      </trkpt>
      <trkpt lat="42.9683" lon="-0.37938">
        <ele>837.3</ele>
        <time>2019-06-16T16:51:40.500Z</time>
      </trkpt>
      <trkpt lat="42.96823" lon="-0.37931">
        <ele>838.8</ele>
        <time>2019-06-16T16:51:40.639Z</time>
      </trkpt>
      <trkpt lat="42.96823" lon="-0.37931">
        <ele>838.8</ele>
        <time>2019-06-16T16:51:40.640Z</time>
      </trkpt>
      <trkpt lat="42.96818" lon="-0.37915">
        <ele>838.4</ele>
        <time>2019-06-16T16:51:40.844Z</time>
      </trkpt>
      <trkpt lat="42.96818" lon="-0.37915">
        <ele>838.4</ele>
        <time>2019-06-16T16:51:40.844Z</time>
      </trkpt>
      <trkpt lat="42.96819" lon="-0.37884">
        <ele>836.1</ele>
        <time>2019-06-16T16:51:41.208Z</time>
      </trkpt>
      <trkpt lat="42.96819" lon="-0.37884">
        <ele>836.1</ele>
        <time>2019-06-16T16:51:41.208Z</time>
      </trkpt>
      <trkpt lat="42.96819" lon="-0.37863">
        <ele>835.7</ele>
        <time>2019-06-16T16:51:41.454Z</time>
      </trkpt>
      <trkpt lat="42.96819" lon="-0.37863">
        <ele>835.7</ele>
        <time>2019-06-16T16:51:41.454Z</time>
      </trkpt>
      <trkpt lat="42.96816" lon="-0.37851">
        <ele>836.2</ele>
        <time>2019-06-16T16:51:41.603Z</time>
      </trkpt>
      <trkpt lat="42.96816" lon="-0.37851">
        <ele>836.2</ele>
        <time>2019-06-16T16:51:41.604Z</time>
      </trkpt>
      <trkpt lat="42.96806" lon="-0.37829">
        <ele>837.9</ele>
        <time>2019-06-16T16:51:41.908Z</time>
      </trkpt>
      <trkpt lat="42.96806" lon="-0.37829">
        <ele>837.9</ele>
        <time>2019-06-16T16:51:41.909Z</time>
      </trkpt>
      <trkpt lat="42.96798" lon="-0.37803">
        <ele>840.8</ele>
        <time>2019-06-16T16:51:42.240Z</time>
      </trkpt>
      <trkpt lat="42.96798" lon="-0.37803">
        <ele>840.8</ele>
        <time>2019-06-16T16:51:42.240Z</time>
      </trkpt>
      <trkpt lat="42.96797" lon="-0.37769">
        <ele>841.4</ele>
        <time>2019-06-16T16:51:42.639Z</time>
      </trkpt>
      <trkpt lat="42.96797" lon="-0.37769">
        <ele>841.4</ele>
        <time>2019-06-16T16:51:42.640Z</time>
      </trkpt>
      <trkpt lat="42.96794" lon="-0.37748">
        <ele>841.8</ele>
        <time>2019-06-16T16:51:42.891Z</time>
      </trkpt>
      <trkpt lat="42.96794" lon="-0.37748">
        <ele>841.8</ele>
        <time>2019-06-16T16:51:42.892Z</time>
      </trkpt>
      <trkpt lat="42.96791" lon="-0.3774">
        <ele>842.1</ele>
        <time>2019-06-16T16:51:42.997Z</time>
      </trkpt>
      <trkpt lat="42.96791" lon="-0.3774">
        <ele>842.1</ele>
        <time>2019-06-16T16:51:42.997Z</time>
      </trkpt>
      <trkpt lat="42.96782" lon="-0.37725">
        <ele>842.6</ele>
        <time>2019-06-16T16:51:43.225Z</time>
      </trkpt>
      <trkpt lat="42.96782" lon="-0.37725">
        <ele>842.6</ele>
        <time>2019-06-16T16:51:43.225Z</time>
      </trkpt>
      <trkpt lat="42.96763" lon="-0.37698">
        <ele>848.4</ele>
        <time>2019-06-16T16:51:43.664Z</time>
      </trkpt>
      <trkpt lat="42.96763" lon="-0.37698">
        <ele>848.4</ele>
        <time>2019-06-16T16:51:43.664Z</time>
      </trkpt>
      <trkpt lat="42.96757" lon="-0.37685">
        <ele>850.2</ele>
        <time>2019-06-16T16:51:43.844Z</time>
      </trkpt>
      <trkpt lat="42.96757" lon="-0.37685">
        <ele>850.2</ele>
        <time>2019-06-16T16:51:43.844Z</time>
      </trkpt>
      <trkpt lat="42.96754" lon="-0.3767">
        <ele>850.8</ele>
        <time>2019-06-16T16:51:44.026Z</time>
      </trkpt>
      <trkpt lat="42.96754" lon="-0.3767">
        <ele>850.8</ele>
        <time>2019-06-16T16:51:44.026Z</time>
      </trkpt>
      <trkpt lat="42.96753" lon="-0.37657">
        <ele>850.7</ele>
        <time>2019-06-16T16:51:44.179Z</time>
      </trkpt>
      <trkpt lat="42.96753" lon="-0.37657">
        <ele>850.7</ele>
        <time>2019-06-16T16:51:44.179Z</time>
      </trkpt>
      <trkpt lat="42.96754" lon="-0.3765">
        <ele>850.1</ele>
        <time>2019-06-16T16:51:44.263Z</time>
      </trkpt>
      <trkpt lat="42.96754" lon="-0.3765">
        <ele>850.1</ele>
        <time>2019-06-16T16:51:44.263Z</time>
      </trkpt>
      <trkpt lat="42.96757" lon="-0.3764">
        <ele>848.8</ele>
        <time>2019-06-16T16:51:44.390Z</time>
      </trkpt>
      <trkpt lat="42.96757" lon="-0.3764">
        <ele>848.8</ele>
        <time>2019-06-16T16:51:44.390Z</time>
      </trkpt>
      <trkpt lat="42.96766" lon="-0.37628">
        <ele>845.9</ele>
        <time>2019-06-16T16:51:44.592Z</time>
      </trkpt>
      <trkpt lat="42.96766" lon="-0.37628">
        <ele>845.9</ele>
        <time>2019-06-16T16:51:44.592Z</time>
      </trkpt>
      <trkpt lat="42.96794" lon="-0.37604">
        <ele>843.1</ele>
        <time>2019-06-16T16:51:45.122Z</time>
      </trkpt>
      <trkpt lat="42.96794" lon="-0.37604">
        <ele>843.1</ele>
        <time>2019-06-16T16:51:45.123Z</time>
      </trkpt>
      <trkpt lat="42.96799" lon="-0.37593">
        <ele>844</ele>
        <time>2019-06-16T16:51:45.275Z</time>
      </trkpt>
      <trkpt lat="42.96799" lon="-0.37593">
        <ele>844</ele>
        <time>2019-06-16T16:51:45.275Z</time>
      </trkpt>
      <trkpt lat="42.96801" lon="-0.37585">
        <ele>844.8</ele>
        <time>2019-06-16T16:51:45.374Z</time>
      </trkpt>
      <trkpt lat="42.96801" lon="-0.37585">
        <ele>844.8</ele>
        <time>2019-06-16T16:51:45.375Z</time>
      </trkpt>
      <trkpt lat="42.96797" lon="-0.37571">
        <ele>846.6</ele>
        <time>2019-06-16T16:51:45.551Z</time>
      </trkpt>
      <trkpt lat="42.96797" lon="-0.37571">
        <ele>846.6</ele>
        <time>2019-06-16T16:51:45.552Z</time>
      </trkpt>
      <trkpt lat="42.96788" lon="-0.3756">
        <ele>847.8</ele>
        <time>2019-06-16T16:51:45.746Z</time>
      </trkpt>
      <trkpt lat="42.96788" lon="-0.3756">
        <ele>847.8</ele>
        <time>2019-06-16T16:51:45.747Z</time>
      </trkpt>
      <trkpt lat="42.96775" lon="-0.37545">
        <ele>849.4</ele>
        <time>2019-06-16T16:51:46.020Z</time>
      </trkpt>
      <trkpt lat="42.96775" lon="-0.37545">
        <ele>849.4</ele>
        <time>2019-06-16T16:51:46.020Z</time>
      </trkpt>
      <trkpt lat="42.96769" lon="-0.37533">
        <ele>850.2</ele>
        <time>2019-06-16T16:51:46.190Z</time>
      </trkpt>
      <trkpt lat="42.96769" lon="-0.37533">
        <ele>850.2</ele>
        <time>2019-06-16T16:51:46.190Z</time>
      </trkpt>
      <trkpt lat="42.9676" lon="-0.375">
        <ele>853.1</ele>
        <time>2019-06-16T16:51:46.603Z</time>
      </trkpt>
      <trkpt lat="42.9676" lon="-0.375">
        <ele>853.1</ele>
        <time>2019-06-16T16:51:46.603Z</time>
      </trkpt>
      <trkpt lat="42.96749" lon="-0.3743">
        <ele>854.6</ele>
        <time>2019-06-16T16:51:47.443Z</time>
      </trkpt>
      <trkpt lat="42.96749" lon="-0.3743">
        <ele>854.6</ele>
        <time>2019-06-16T16:51:47.443Z</time>
      </trkpt>
      <trkpt lat="42.9675" lon="-0.37393">
        <ele>855.9</ele>
        <time>2019-06-16T16:51:47.877Z</time>
      </trkpt>
      <trkpt lat="42.9675" lon="-0.37393">
        <ele>855.9</ele>
        <time>2019-06-16T16:51:47.877Z</time>
      </trkpt>
      <trkpt lat="42.96751" lon="-0.37378">
        <ele>857.4</ele>
        <time>2019-06-16T16:51:48.054Z</time>
      </trkpt>
      <trkpt lat="42.96751" lon="-0.37378">
        <ele>857.4</ele>
        <time>2019-06-16T16:51:48.054Z</time>
      </trkpt>
      <trkpt lat="42.96752" lon="-0.37352">
        <ele>860.1</ele>
        <time>2019-06-16T16:51:48.359Z</time>
      </trkpt>
      <trkpt lat="42.96752" lon="-0.37352">
        <ele>860.1</ele>
        <time>2019-06-16T16:51:48.361Z</time>
      </trkpt>
      <trkpt lat="42.96745" lon="-0.37285">
        <ele>865</ele>
        <time>2019-06-16T16:51:49.155Z</time>
      </trkpt>
      <trkpt lat="42.96745" lon="-0.37285">
        <ele>865</ele>
        <time>2019-06-16T16:51:49.155Z</time>
      </trkpt>
      <trkpt lat="42.96738" lon="-0.3723">
        <ele>865.9</ele>
        <time>2019-06-16T16:51:49.810Z</time>
      </trkpt>
      <trkpt lat="42.96738" lon="-0.3723">
        <ele>865.9</ele>
        <time>2019-06-16T16:51:49.810Z</time>
      </trkpt>
      <trkpt lat="42.96737" lon="-0.37204">
        <ele>867.2</ele>
        <time>2019-06-16T16:51:50.115Z</time>
      </trkpt>
      <trkpt lat="42.96737" lon="-0.37204">
        <ele>867.2</ele>
        <time>2019-06-16T16:51:50.115Z</time>
      </trkpt>
      <trkpt lat="42.9674" lon="-0.37185">
        <ele>869</ele>
        <time>2019-06-16T16:51:50.343Z</time>
      </trkpt>
      <trkpt lat="42.9674" lon="-0.37185">
        <ele>869</ele>
        <time>2019-06-16T16:51:50.343Z</time>
      </trkpt>
      <trkpt lat="42.96745" lon="-0.37176">
        <ele>870.5</ele>
        <time>2019-06-16T16:51:50.476Z</time>
      </trkpt>
      <trkpt lat="42.96745" lon="-0.37176">
        <ele>870.5</ele>
        <time>2019-06-16T16:51:50.476Z</time>
      </trkpt>
      <trkpt lat="42.96756" lon="-0.37166">
        <ele>873.1</ele>
        <time>2019-06-16T16:51:50.688Z</time>
      </trkpt>
      <trkpt lat="42.96756" lon="-0.37166">
        <ele>873.1</ele>
        <time>2019-06-16T16:51:50.688Z</time>
      </trkpt>
      <trkpt lat="42.96765" lon="-0.37162">
        <ele>875</ele>
        <time>2019-06-16T16:51:50.840Z</time>
      </trkpt>
      <trkpt lat="42.96765" lon="-0.37162">
        <ele>875</ele>
        <time>2019-06-16T16:51:50.840Z</time>
      </trkpt>
      <trkpt lat="42.96778" lon="-0.37166">
        <ele>877.1</ele>
        <time>2019-06-16T16:51:51.054Z</time>
      </trkpt>
      <trkpt lat="42.96778" lon="-0.37166">
        <ele>877.1</ele>
        <time>2019-06-16T16:51:51.054Z</time>
      </trkpt>
      <trkpt lat="42.96788" lon="-0.37176">
        <ele>878.5</ele>
        <time>2019-06-16T16:51:51.253Z</time>
      </trkpt>
      <trkpt lat="42.96788" lon="-0.37176">
        <ele>878.5</ele>
        <time>2019-06-16T16:51:51.254Z</time>
      </trkpt>
      <trkpt lat="42.9681" lon="-0.37221">
        <ele>881</ele>
        <time>2019-06-16T16:51:51.889Z</time>
      </trkpt>
      <trkpt lat="42.9681" lon="-0.37221">
        <ele>881</ele>
        <time>2019-06-16T16:51:51.889Z</time>
      </trkpt>
      <trkpt lat="42.96826" lon="-0.37244">
        <ele>883.1</ele>
        <time>2019-06-16T16:51:52.261Z</time>
      </trkpt>
      <trkpt lat="42.96826" lon="-0.37244">
        <ele>883.1</ele>
        <time>2019-06-16T16:51:52.261Z</time>
      </trkpt>
      <trkpt lat="42.9684" lon="-0.37256">
        <ele>884.6</ele>
        <time>2019-06-16T16:51:52.526Z</time>
      </trkpt>
      <trkpt lat="42.9684" lon="-0.37256">
        <ele>884.6</ele>
        <time>2019-06-16T16:51:52.526Z</time>
      </trkpt>
      <trkpt lat="42.96859" lon="-0.37262">
        <ele>887.6</ele>
        <time>2019-06-16T16:51:52.839Z</time>
      </trkpt>
      <trkpt lat="42.96859" lon="-0.37262">
        <ele>887.6</ele>
        <time>2019-06-16T16:51:52.839Z</time>
      </trkpt>
      <trkpt lat="42.96879" lon="-0.37258">
        <ele>889.7</ele>
        <time>2019-06-16T16:51:53.163Z</time>
      </trkpt>
      <trkpt lat="42.96879" lon="-0.37258">
        <ele>889.7</ele>
        <time>2019-06-16T16:51:53.163Z</time>
      </trkpt>
      <trkpt lat="42.96894" lon="-0.37249">
        <ele>891.5</ele>
        <time>2019-06-16T16:51:53.426Z</time>
      </trkpt>
      <trkpt lat="42.96894" lon="-0.37249">
        <ele>891.5</ele>
        <time>2019-06-16T16:51:53.426Z</time>
      </trkpt>
      <trkpt lat="42.969" lon="-0.37242">
        <ele>892.5</ele>
        <time>2019-06-16T16:51:53.552Z</time>
      </trkpt>
      <trkpt lat="42.969" lon="-0.37242">
        <ele>892.5</ele>
        <time>2019-06-16T16:51:53.552Z</time>
      </trkpt>
      <trkpt lat="42.96906" lon="-0.37229">
        <ele>894</ele>
        <time>2019-06-16T16:51:53.732Z</time>
      </trkpt>
      <trkpt lat="42.96906" lon="-0.37229">
        <ele>894</ele>
        <time>2019-06-16T16:51:53.732Z</time>
      </trkpt>
      <trkpt lat="42.96907" lon="-0.37207">
        <ele>896.8</ele>
        <time>2019-06-16T16:51:53.991Z</time>
      </trkpt>
      <trkpt lat="42.96907" lon="-0.37207">
        <ele>896.8</ele>
        <time>2019-06-16T16:51:53.993Z</time>
      </trkpt>
      <trkpt lat="42.96901" lon="-0.37183">
        <ele>899.6</ele>
        <time>2019-06-16T16:51:54.291Z</time>
      </trkpt>
      <trkpt lat="42.96901" lon="-0.37183">
        <ele>899.6</ele>
        <time>2019-06-16T16:51:54.291Z</time>
      </trkpt>
      <trkpt lat="42.96895" lon="-0.37171">
        <ele>900.3</ele>
        <time>2019-06-16T16:51:54.461Z</time>
      </trkpt>
      <trkpt lat="42.96895" lon="-0.37171">
        <ele>900.3</ele>
        <time>2019-06-16T16:51:54.462Z</time>
      </trkpt>
      <trkpt lat="42.96886" lon="-0.37148">
        <ele>900.3</ele>
        <time>2019-06-16T16:51:54.768Z</time>
      </trkpt>
      <trkpt lat="42.96886" lon="-0.37148">
        <ele>900.3</ele>
        <time>2019-06-16T16:51:54.768Z</time>
      </trkpt>
      <trkpt lat="42.96886" lon="-0.37135">
        <ele>900.7</ele>
        <time>2019-06-16T16:51:54.921Z</time>
      </trkpt>
      <trkpt lat="42.96886" lon="-0.37135">
        <ele>900.7</ele>
        <time>2019-06-16T16:51:54.921Z</time>
      </trkpt>
      <trkpt lat="42.96892" lon="-0.37099">
        <ele>903.2</ele>
        <time>2019-06-16T16:51:55.354Z</time>
      </trkpt>
      <trkpt lat="42.96892" lon="-0.37099">
        <ele>903.2</ele>
        <time>2019-06-16T16:51:55.354Z</time>
      </trkpt>
      <trkpt lat="42.96893" lon="-0.37086">
        <ele>904.1</ele>
        <time>2019-06-16T16:51:55.507Z</time>
      </trkpt>
      <trkpt lat="42.96893" lon="-0.37086">
        <ele>904.1</ele>
        <time>2019-06-16T16:51:55.507Z</time>
      </trkpt>
      <trkpt lat="42.96891" lon="-0.37071">
        <ele>905.4</ele>
        <time>2019-06-16T16:51:55.686Z</time>
      </trkpt>
      <trkpt lat="42.96891" lon="-0.37071">
        <ele>905.4</ele>
        <time>2019-06-16T16:51:55.686Z</time>
      </trkpt>
      <trkpt lat="42.96885" lon="-0.37049">
        <ele>907.5</ele>
        <time>2019-06-16T16:51:55.961Z</time>
      </trkpt>
      <trkpt lat="42.96885" lon="-0.37049">
        <ele>907.5</ele>
        <time>2019-06-16T16:51:55.961Z</time>
      </trkpt>
      <trkpt lat="42.96875" lon="-0.37028">
        <ele>909</ele>
        <time>2019-06-16T16:51:56.255Z</time>
      </trkpt>
      <trkpt lat="42.96875" lon="-0.37028">
        <ele>909</ele>
        <time>2019-06-16T16:51:56.255Z</time>
      </trkpt>
      <trkpt lat="42.96843" lon="-0.36974">
        <ele>911.4</ele>
        <time>2019-06-16T16:51:57.070Z</time>
      </trkpt>
      <trkpt lat="42.96843" lon="-0.36974">
        <ele>911.4</ele>
        <time>2019-06-16T16:51:57.070Z</time>
      </trkpt>
      <trkpt lat="42.96836" lon="-0.36961">
        <ele>911.6</ele>
        <time>2019-06-16T16:51:57.259Z</time>
      </trkpt>
      <trkpt lat="42.96836" lon="-0.36961">
        <ele>911.6</ele>
        <time>2019-06-16T16:51:57.259Z</time>
      </trkpt>
      <trkpt lat="42.96829" lon="-0.36944">
        <ele>912.3</ele>
        <time>2019-06-16T16:51:57.488Z</time>
      </trkpt>
      <trkpt lat="42.96829" lon="-0.36944">
        <ele>912.3</ele>
        <time>2019-06-16T16:51:57.488Z</time>
      </trkpt>
      <trkpt lat="42.96821" lon="-0.36911">
        <ele>917.9</ele>
        <time>2019-06-16T16:51:57.896Z</time>
      </trkpt>
      <trkpt lat="42.96821" lon="-0.36911">
        <ele>917.9</ele>
        <time>2019-06-16T16:51:57.896Z</time>
      </trkpt>
      <trkpt lat="42.96805" lon="-0.36868">
        <ele>924.7</ele>
        <time>2019-06-16T16:51:58.462Z</time>
      </trkpt>
      <trkpt lat="42.96805" lon="-0.36868">
        <ele>924.7</ele>
        <time>2019-06-16T16:51:58.462Z</time>
      </trkpt>
      <trkpt lat="42.96785" lon="-0.36814">
        <ele>930.8</ele>
        <time>2019-06-16T16:51:59.172Z</time>
      </trkpt>
      <trkpt lat="42.96785" lon="-0.36814">
        <ele>930.8</ele>
        <time>2019-06-16T16:51:59.173Z</time>
      </trkpt>
      <trkpt lat="42.96774" lon="-0.36764">
        <ele>932.2</ele>
        <time>2019-06-16T16:51:59.785Z</time>
      </trkpt>
      <trkpt lat="42.96774" lon="-0.36764">
        <ele>932.2</ele>
        <time>2019-06-16T16:51:59.785Z</time>
      </trkpt>
      <trkpt lat="42.96771" lon="-0.36733">
        <ele>935.2</ele>
        <time>2019-06-16T16:52:00.152Z</time>
      </trkpt>
      <trkpt lat="42.96771" lon="-0.36733">
        <ele>935.2</ele>
        <time>2019-06-16T16:52:00.152Z</time>
      </trkpt>
      <trkpt lat="42.96769" lon="-0.36691">
        <ele>943</ele>
        <time>2019-06-16T16:52:00.646Z</time>
      </trkpt>
      <trkpt lat="42.96769" lon="-0.36691">
        <ele>943</ele>
        <time>2019-06-16T16:52:00.646Z</time>
      </trkpt>
      <trkpt lat="42.96757" lon="-0.36626">
        <ele>945.8</ele>
        <time>2019-06-16T16:52:01.432Z</time>
      </trkpt>
      <trkpt lat="42.96757" lon="-0.36626">
        <ele>945.8</ele>
        <time>2019-06-16T16:52:01.432Z</time>
      </trkpt>
      <trkpt lat="42.96749" lon="-0.36602">
        <ele>946.1</ele>
        <time>2019-06-16T16:52:01.741Z</time>
      </trkpt>
      <trkpt lat="42.96749" lon="-0.36602">
        <ele>946.1</ele>
        <time>2019-06-16T16:52:01.741Z</time>
      </trkpt>
      <trkpt lat="42.96736" lon="-0.36574">
        <ele>946.8</ele>
        <time>2019-06-16T16:52:02.130Z</time>
      </trkpt>
      <trkpt lat="42.96736" lon="-0.36574">
        <ele>946.8</ele>
        <time>2019-06-16T16:52:02.130Z</time>
      </trkpt>
      <trkpt lat="42.96729" lon="-0.36551">
        <ele>948.1</ele>
        <time>2019-06-16T16:52:02.422Z</time>
      </trkpt>
      <trkpt lat="42.96729" lon="-0.36551">
        <ele>948.1</ele>
        <time>2019-06-16T16:52:02.422Z</time>
      </trkpt>
      <trkpt lat="42.96726" lon="-0.36525">
        <ele>951.2</ele>
        <time>2019-06-16T16:52:02.731Z</time>
      </trkpt>
      <trkpt lat="42.96726" lon="-0.36525">
        <ele>951.2</ele>
        <time>2019-06-16T16:52:02.731Z</time>
      </trkpt>
      <trkpt lat="42.96724" lon="-0.36493">
        <ele>955.2</ele>
        <time>2019-06-16T16:52:03.108Z</time>
      </trkpt>
      <trkpt lat="42.96724" lon="-0.36493">
        <ele>955.2</ele>
        <time>2019-06-16T16:52:03.108Z</time>
      </trkpt>
      <trkpt lat="42.96719" lon="-0.3646">
        <ele>957.6</ele>
        <time>2019-06-16T16:52:03.503Z</time>
      </trkpt>
      <trkpt lat="42.96719" lon="-0.3646">
        <ele>957.6</ele>
        <time>2019-06-16T16:52:03.503Z</time>
      </trkpt>
      <trkpt lat="42.96709" lon="-0.36429">
        <ele>957.5</ele>
        <time>2019-06-16T16:52:03.900Z</time>
      </trkpt>
      <trkpt lat="42.96709" lon="-0.36429">
        <ele>957.5</ele>
        <time>2019-06-16T16:52:03.901Z</time>
      </trkpt>
      <trkpt lat="42.96705" lon="-0.36419">
        <ele>956.8</ele>
        <time>2019-06-16T16:52:04.035Z</time>
      </trkpt>
      <trkpt lat="42.96705" lon="-0.36419">
        <ele>956.8</ele>
        <time>2019-06-16T16:52:04.035Z</time>
      </trkpt>
      <trkpt lat="42.96702" lon="-0.364">
        <ele>958</ele>
        <time>2019-06-16T16:52:04.263Z</time>
      </trkpt>
      <trkpt lat="42.96702" lon="-0.364">
        <ele>958</ele>
        <time>2019-06-16T16:52:04.263Z</time>
      </trkpt>
      <trkpt lat="42.96697" lon="-0.36335">
        <ele>965.4</ele>
        <time>2019-06-16T16:52:05.030Z</time>
      </trkpt>
      <trkpt lat="42.96697" lon="-0.36335">
        <ele>965.4</ele>
        <time>2019-06-16T16:52:05.030Z</time>
      </trkpt>
      <trkpt lat="42.96681" lon="-0.3626">
        <ele>969.3</ele>
        <time>2019-06-16T16:52:05.946Z</time>
      </trkpt>
      <trkpt lat="42.96681" lon="-0.3626">
        <ele>969.3</ele>
        <time>2019-06-16T16:52:05.946Z</time>
      </trkpt>
      <trkpt lat="42.96666" lon="-0.36199">
        <ele>972.6</ele>
        <time>2019-06-16T16:52:06.701Z</time>
      </trkpt>
      <trkpt lat="42.96666" lon="-0.36199">
        <ele>972.6</ele>
        <time>2019-06-16T16:52:06.701Z</time>
      </trkpt>
      <trkpt lat="42.96649" lon="-0.36123">
        <ele>977.1</ele>
        <time>2019-06-16T16:52:07.633Z</time>
      </trkpt>
      <trkpt lat="42.96649" lon="-0.36123">
        <ele>977.1</ele>
        <time>2019-06-16T16:52:07.633Z</time>
      </trkpt>
      <trkpt lat="42.96647" lon="-0.36097">
        <ele>980.5</ele>
        <time>2019-06-16T16:52:07.940Z</time>
      </trkpt>
      <trkpt lat="42.96647" lon="-0.36097">
        <ele>980.5</ele>
        <time>2019-06-16T16:52:07.940Z</time>
      </trkpt>
      <trkpt lat="42.96646" lon="-0.3607">
        <ele>984</ele>
        <time>2019-06-16T16:52:08.257Z</time>
      </trkpt>
      <trkpt lat="42.96646" lon="-0.3607">
        <ele>984</ele>
        <time>2019-06-16T16:52:08.257Z</time>
      </trkpt>
      <trkpt lat="42.96641" lon="-0.36035">
        <ele>986.9</ele>
        <time>2019-06-16T16:52:08.675Z</time>
      </trkpt>
      <trkpt lat="42.96641" lon="-0.36035">
        <ele>986.9</ele>
        <time>2019-06-16T16:52:08.675Z</time>
      </trkpt>
      <trkpt lat="42.9663" lon="-0.35991">
        <ele>986.9</ele>
        <time>2019-06-16T16:52:09.220Z</time>
      </trkpt>
      <trkpt lat="42.9663" lon="-0.35991">
        <ele>986.9</ele>
        <time>2019-06-16T16:52:09.220Z</time>
      </trkpt>
      <trkpt lat="42.96627" lon="-0.3594">
        <ele>991.1</ele>
        <time>2019-06-16T16:52:09.820Z</time>
      </trkpt>
      <trkpt lat="42.96627" lon="-0.3594">
        <ele>991.1</ele>
        <time>2019-06-16T16:52:09.820Z</time>
      </trkpt>
      <trkpt lat="42.96626" lon="-0.35905">
        <ele>994.3</ele>
        <time>2019-06-16T16:52:10.231Z</time>
      </trkpt>
      <trkpt lat="42.96626" lon="-0.35905">
        <ele>994.3</ele>
        <time>2019-06-16T16:52:10.231Z</time>
      </trkpt>
      <trkpt lat="42.96621" lon="-0.35835">
        <ele>1000.8</ele>
        <time>2019-06-16T16:52:11.056Z</time>
      </trkpt>
      <trkpt lat="42.96621" lon="-0.35835">
        <ele>1000.8</ele>
        <time>2019-06-16T16:52:11.056Z</time>
      </trkpt>
      <trkpt lat="42.96614" lon="-0.35797">
        <ele>1002.7</ele>
        <time>2019-06-16T16:52:11.516Z</time>
      </trkpt>
      <trkpt lat="42.96614" lon="-0.35797">
        <ele>1002.7</ele>
        <time>2019-06-16T16:52:11.516Z</time>
      </trkpt>
      <trkpt lat="42.96604" lon="-0.35753">
        <ele>1007</ele>
        <time>2019-06-16T16:52:12.056Z</time>
      </trkpt>
      <trkpt lat="42.96604" lon="-0.35753">
        <ele>1007</ele>
        <time>2019-06-16T16:52:12.056Z</time>
      </trkpt>
      <trkpt lat="42.96582" lon="-0.3566">
        <ele>1013.9</ele>
        <time>2019-06-16T16:52:13.203Z</time>
      </trkpt>
      <trkpt lat="42.96582" lon="-0.3566">
        <ele>1013.9</ele>
        <time>2019-06-16T16:52:13.203Z</time>
      </trkpt>
      <trkpt lat="42.96573" lon="-0.35626">
        <ele>1017.8</ele>
        <time>2019-06-16T16:52:13.627Z</time>
      </trkpt>
      <trkpt lat="42.96573" lon="-0.35626">
        <ele>1017.8</ele>
        <time>2019-06-16T16:52:13.627Z</time>
      </trkpt>
      <trkpt lat="42.96556" lon="-0.35598">
        <ele>1019.9</ele>
        <time>2019-06-16T16:52:14.054Z</time>
      </trkpt>
      <trkpt lat="42.96556" lon="-0.35598">
        <ele>1019.9</ele>
        <time>2019-06-16T16:52:14.055Z</time>
      </trkpt>
      <trkpt lat="42.96525" lon="-0.3557">
        <ele>1021.6</ele>
        <time>2019-06-16T16:52:14.651Z</time>
      </trkpt>
      <trkpt lat="42.96525" lon="-0.3557">
        <ele>1021.6</ele>
        <time>2019-06-16T16:52:14.651Z</time>
      </trkpt>
      <trkpt lat="42.96492" lon="-0.35528">
        <ele>1027.8</ele>
        <time>2019-06-16T16:52:15.374Z</time>
      </trkpt>
      <trkpt lat="42.96492" lon="-0.35528">
        <ele>1027.8</ele>
        <time>2019-06-16T16:52:15.374Z</time>
      </trkpt>
      <trkpt lat="42.96458" lon="-0.35491">
        <ele>1028.9</ele>
        <time>2019-06-16T16:52:16.071Z</time>
      </trkpt>
      <trkpt lat="42.96458" lon="-0.35491">
        <ele>1028.9</ele>
        <time>2019-06-16T16:52:16.071Z</time>
      </trkpt>
      <trkpt lat="42.96424" lon="-0.35436">
        <ele>1030.6</ele>
        <time>2019-06-16T16:52:16.916Z</time>
      </trkpt>
      <trkpt lat="42.96424" lon="-0.35436">
        <ele>1030.6</ele>
        <time>2019-06-16T16:52:16.917Z</time>
      </trkpt>
      <trkpt lat="42.96413" lon="-0.35411">
        <ele>1033</ele>
        <time>2019-06-16T16:52:17.259Z</time>
      </trkpt>
      <trkpt lat="42.96413" lon="-0.35411">
        <ele>1033</ele>
        <time>2019-06-16T16:52:17.259Z</time>
      </trkpt>
      <trkpt lat="42.96406" lon="-0.35381">
        <ele>1036.5</ele>
        <time>2019-06-16T16:52:17.628Z</time>
      </trkpt>
      <trkpt lat="42.96406" lon="-0.35381">
        <ele>1036.5</ele>
        <time>2019-06-16T16:52:17.628Z</time>
      </trkpt>
      <trkpt lat="42.96402" lon="-0.35366">
        <ele>1038.1</ele>
        <time>2019-06-16T16:52:17.815Z</time>
      </trkpt>
      <trkpt lat="42.96402" lon="-0.35366">
        <ele>1038.1</ele>
        <time>2019-06-16T16:52:17.815Z</time>
      </trkpt>
      <trkpt lat="42.96387" lon="-0.35378">
        <ele>1032.9</ele>
        <time>2019-06-16T16:52:18.094Z</time>
      </trkpt>
      <trkpt lat="42.96387" lon="-0.35378">
        <ele>1032.9</ele>
        <time>2019-06-16T16:52:18.094Z</time>
      </trkpt>
      <trkpt lat="42.96372" lon="-0.3539">
        <ele>1025.9</ele>
        <time>2019-06-16T16:52:18.373Z</time>
      </trkpt>
      <trkpt lat="42.96372" lon="-0.3539">
        <ele>1025.9</ele>
        <time>2019-06-16T16:52:18.373Z</time>
      </trkpt>
      <trkpt lat="42.96347" lon="-0.35376">
        <ele>1022.8</ele>
        <time>2019-06-16T16:52:18.806Z</time>
      </trkpt>
      <trkpt lat="42.96347" lon="-0.35376">
        <ele>1022.8</ele>
        <time>2019-06-16T16:52:18.806Z</time>
      </trkpt>
      <trkpt lat="42.9632" lon="-0.35348">
        <ele>1025.1</ele>
        <time>2019-06-16T16:52:19.349Z</time>
      </trkpt>
      <trkpt lat="42.9632" lon="-0.35348">
        <ele>1025.1</ele>
        <time>2019-06-16T16:52:19.349Z</time>
      </trkpt>
      <trkpt lat="42.96289" lon="-0.35299">
        <ele>1032.4</ele>
        <time>2019-06-16T16:52:20.109Z</time>
      </trkpt>
      <trkpt lat="42.96289" lon="-0.35299">
        <ele>1032.4</ele>
        <time>2019-06-16T16:52:20.109Z</time>
      </trkpt>
      <trkpt lat="42.96285" lon="-0.35292">
        <ele>1031.5</ele>
        <time>2019-06-16T16:52:20.213Z</time>
      </trkpt>
      <trkpt lat="42.96285" lon="-0.35292">
        <ele>1031.5</ele>
        <time>2019-06-16T16:52:20.213Z</time>
      </trkpt>
      <trkpt lat="42.96273" lon="-0.35292">
        <ele>1023.5</ele>
        <time>2019-06-16T16:52:20.405Z</time>
      </trkpt>
      <trkpt lat="42.96273" lon="-0.35292">
        <ele>1023.5</ele>
        <time>2019-06-16T16:52:20.405Z</time>
      </trkpt>
      <trkpt lat="42.96237" lon="-0.35292">
        <ele>1004.6</ele>
        <time>2019-06-16T16:52:20.982Z</time>
      </trkpt>
      <trkpt lat="42.96237" lon="-0.35292">
        <ele>1004.6</ele>
        <time>2019-06-16T16:52:20.982Z</time>
      </trkpt>
      <trkpt lat="42.96239" lon="-0.35271">
        <ele>1008.6</ele>
        <time>2019-06-16T16:52:21.230Z</time>
      </trkpt>
      <trkpt lat="42.96239" lon="-0.35271">
        <ele>1008.6</ele>
        <time>2019-06-16T16:52:21.230Z</time>
      </trkpt>
      <trkpt lat="42.96246" lon="-0.35246">
        <ele>1010.7</ele>
        <time>2019-06-16T16:52:21.544Z</time>
      </trkpt>
      <trkpt lat="42.96246" lon="-0.35246">
        <ele>1010.7</ele>
        <time>2019-06-16T16:52:21.544Z</time>
      </trkpt>
      <trkpt lat="42.96238" lon="-0.35229">
        <ele>1013.4</ele>
        <time>2019-06-16T16:52:21.781Z</time>
      </trkpt>
      <trkpt lat="42.96238" lon="-0.35229">
        <ele>1013.4</ele>
        <time>2019-06-16T16:52:21.782Z</time>
      </trkpt>
      <trkpt lat="42.96229" lon="-0.35216">
        <ele>1019.6</ele>
        <time>2019-06-16T16:52:21.992Z</time>
      </trkpt>
      <trkpt lat="42.96229" lon="-0.35216">
        <ele>1019.6</ele>
        <time>2019-06-16T16:52:21.992Z</time>
      </trkpt>
      <trkpt lat="42.96216" lon="-0.35209">
        <ele>1031.3</ele>
        <time>2019-06-16T16:52:22.216Z</time>
      </trkpt>
      <trkpt lat="42.96216" lon="-0.35209">
        <ele>1031.3</ele>
        <time>2019-06-16T16:52:22.216Z</time>
      </trkpt>
      <trkpt lat="42.96211" lon="-0.35209">
        <ele>1035.9</ele>
        <time>2019-06-16T16:52:22.296Z</time>
      </trkpt>
      <trkpt lat="42.96211" lon="-0.35209">
        <ele>1035.9</ele>
        <time>2019-06-16T16:52:22.296Z</time>
      </trkpt>
      <trkpt lat="42.96204" lon="-0.35215">
        <ele>1039</ele>
        <time>2019-06-16T16:52:22.428Z</time>
      </trkpt>
      <trkpt lat="42.96204" lon="-0.35215">
        <ele>1039</ele>
        <time>2019-06-16T16:52:22.428Z</time>
      </trkpt>
      <trkpt lat="42.96195" lon="-0.35213">
        <ele>1048.5</ele>
        <time>2019-06-16T16:52:22.574Z</time>
      </trkpt>
      <trkpt lat="42.96195" lon="-0.35213">
        <ele>1048.5</ele>
        <time>2019-06-16T16:52:22.574Z</time>
      </trkpt>
      <trkpt lat="42.96177" lon="-0.35203">
        <ele>1073.1</ele>
        <time>2019-06-16T16:52:22.886Z</time>
      </trkpt>
      <trkpt lat="42.96177" lon="-0.35203">
        <ele>1073.1</ele>
        <time>2019-06-16T16:52:22.886Z</time>
      </trkpt>
      <trkpt lat="42.96175" lon="-0.35194">
        <ele>1081</ele>
        <time>2019-06-16T16:52:22.996Z</time>
      </trkpt>
      <trkpt lat="42.96175" lon="-0.35194">
        <ele>1081</ele>
        <time>2019-06-16T16:52:22.996Z</time>
      </trkpt>
      <trkpt lat="42.96178" lon="-0.35156">
        <ele>1100.9</ele>
        <time>2019-06-16T16:52:23.444Z</time>
      </trkpt>
      <trkpt lat="42.96178" lon="-0.35156">
        <ele>1100.9</ele>
        <time>2019-06-16T16:52:23.444Z</time>
      </trkpt>
      <trkpt lat="42.96183" lon="-0.35097">
        <ele>1112.9</ele>
        <time>2019-06-16T16:52:24.141Z</time>
      </trkpt>
      <trkpt lat="42.96183" lon="-0.35097">
        <ele>1112.9</ele>
        <time>2019-06-16T16:52:24.141Z</time>
      </trkpt>
      <trkpt lat="42.96189" lon="-0.35048">
        <ele>1113.6</ele>
        <time>2019-06-16T16:52:24.724Z</time>
      </trkpt>
      <trkpt lat="42.96189" lon="-0.35048">
        <ele>1113.6</ele>
        <time>2019-06-16T16:52:24.724Z</time>
      </trkpt>
      <trkpt lat="42.96196" lon="-0.35026">
        <ele>1110.9</ele>
        <time>2019-06-16T16:52:25.005Z</time>
      </trkpt>
      <trkpt lat="42.96196" lon="-0.35026">
        <ele>1110.9</ele>
        <time>2019-06-16T16:52:25.005Z</time>
      </trkpt>
      <trkpt lat="42.96205" lon="-0.35001">
        <ele>1106.7</ele>
        <time>2019-06-16T16:52:25.332Z</time>
      </trkpt>
      <trkpt lat="42.96205" lon="-0.35001">
        <ele>1106.7</ele>
        <time>2019-06-16T16:52:25.332Z</time>
      </trkpt>
      <trkpt lat="42.96222" lon="-0.34967">
        <ele>1098.1</ele>
        <time>2019-06-16T16:52:25.815Z</time>
      </trkpt>
      <trkpt lat="42.96222" lon="-0.34967">
        <ele>1098.1</ele>
        <time>2019-06-16T16:52:25.815Z</time>
      </trkpt>
      <trkpt lat="42.96222" lon="-0.34962">
        <ele>1099</ele>
        <time>2019-06-16T16:52:25.874Z</time>
      </trkpt>
      <trkpt lat="42.96222" lon="-0.34962">
        <ele>1099</ele>
        <time>2019-06-16T16:52:25.874Z</time>
      </trkpt>
      <trkpt lat="42.9622" lon="-0.34959">
        <ele>1101.2</ele>
        <time>2019-06-16T16:52:25.922Z</time>
      </trkpt>
      <trkpt lat="42.9622" lon="-0.34959">
        <ele>1101.2</ele>
        <time>2019-06-16T16:52:25.922Z</time>
      </trkpt>
      <trkpt lat="42.96218" lon="-0.3495">
        <ele>1104.4</ele>
        <time>2019-06-16T16:52:26.032Z</time>
      </trkpt>
      <trkpt lat="42.96218" lon="-0.3495">
        <ele>1104.4</ele>
        <time>2019-06-16T16:52:26.032Z</time>
      </trkpt>
      <trkpt lat="42.96223" lon="-0.34917">
        <ele>1106.3</ele>
        <time>2019-06-16T16:52:26.427Z</time>
      </trkpt>
      <trkpt lat="42.96223" lon="-0.34917">
        <ele>1106.3</ele>
        <time>2019-06-16T16:52:26.428Z</time>
      </trkpt>
      <trkpt lat="42.96225" lon="-0.34893">
        <ele>1109.1</ele>
        <time>2019-06-16T16:52:26.711Z</time>
      </trkpt>
      <trkpt lat="42.96225" lon="-0.34893">
        <ele>1109.1</ele>
        <time>2019-06-16T16:52:26.711Z</time>
      </trkpt>
      <trkpt lat="42.96228" lon="-0.34842">
        <ele>1117.6</ele>
        <time>2019-06-16T16:52:27.311Z</time>
      </trkpt>
      <trkpt lat="42.96228" lon="-0.34842">
        <ele>1117.6</ele>
        <time>2019-06-16T16:52:27.311Z</time>
      </trkpt>
      <trkpt lat="42.96233" lon="-0.34805">
        <ele>1122</ele>
        <time>2019-06-16T16:52:27.752Z</time>
      </trkpt>
      <trkpt lat="42.96233" lon="-0.34805">
        <ele>1122</ele>
        <time>2019-06-16T16:52:27.752Z</time>
      </trkpt>
      <trkpt lat="42.96241" lon="-0.34772">
        <ele>1122.6</ele>
        <time>2019-06-16T16:52:28.160Z</time>
      </trkpt>
      <trkpt lat="42.96241" lon="-0.34772">
        <ele>1122.6</ele>
        <time>2019-06-16T16:52:28.160Z</time>
      </trkpt>
      <trkpt lat="42.96251" lon="-0.34725">
        <ele>1123.9</ele>
        <time>2019-06-16T16:52:28.734Z</time>
      </trkpt>
      <trkpt lat="42.96251" lon="-0.34725">
        <ele>1123.9</ele>
        <time>2019-06-16T16:52:28.734Z</time>
      </trkpt>
      <trkpt lat="42.96255" lon="-0.34681">
        <ele>1128.7</ele>
        <time>2019-06-16T16:52:29.254Z</time>
      </trkpt>
      <trkpt lat="42.96255" lon="-0.34681">
        <ele>1128.7</ele>
        <time>2019-06-16T16:52:29.254Z</time>
      </trkpt>
      <trkpt lat="42.9625" lon="-0.34638">
        <ele>1137.1</ele>
        <time>2019-06-16T16:52:29.765Z</time>
      </trkpt>
      <trkpt lat="42.9625" lon="-0.34638">
        <ele>1137.1</ele>
        <time>2019-06-16T16:52:29.766Z</time>
      </trkpt>
      <trkpt lat="42.9625" lon="-0.34603">
        <ele>1139.9</ele>
        <time>2019-06-16T16:52:30.177Z</time>
      </trkpt>
      <trkpt lat="42.9625" lon="-0.34603">
        <ele>1139.9</ele>
        <time>2019-06-16T16:52:30.178Z</time>
      </trkpt>
      <trkpt lat="42.96254" lon="-0.3458">
        <ele>1140.5</ele>
        <time>2019-06-16T16:52:30.455Z</time>
      </trkpt>
      <trkpt lat="42.96254" lon="-0.3458">
        <ele>1140.5</ele>
        <time>2019-06-16T16:52:30.455Z</time>
      </trkpt>
      <trkpt lat="42.96264" lon="-0.34563">
        <ele>1138</ele>
        <time>2019-06-16T16:52:30.711Z</time>
      </trkpt>
      <trkpt lat="42.96264" lon="-0.34563">
        <ele>1138</ele>
        <time>2019-06-16T16:52:30.711Z</time>
      </trkpt>
      <trkpt lat="42.9627" lon="-0.34559">
        <ele>1135.9</ele>
        <time>2019-06-16T16:52:30.818Z</time>
      </trkpt>
      <trkpt lat="42.9627" lon="-0.34559">
        <ele>1135.9</ele>
        <time>2019-06-16T16:52:30.818Z</time>
      </trkpt>
      <trkpt lat="42.96284" lon="-0.34557">
        <ele>1130.8</ele>
        <time>2019-06-16T16:52:31.044Z</time>
      </trkpt>
      <trkpt lat="42.96284" lon="-0.34557">
        <ele>1130.8</ele>
        <time>2019-06-16T16:52:31.044Z</time>
      </trkpt>
      <trkpt lat="42.96292" lon="-0.34556">
        <ele>1128.3</ele>
        <time>2019-06-16T16:52:31.173Z</time>
      </trkpt>
      <trkpt lat="42.96292" lon="-0.34556">
        <ele>1128.3</ele>
        <time>2019-06-16T16:52:31.174Z</time>
      </trkpt>
      <trkpt lat="42.963" lon="-0.34548">
        <ele>1127.2</ele>
        <time>2019-06-16T16:52:31.333Z</time>
      </trkpt>
      <trkpt lat="42.963" lon="-0.34548">
        <ele>1127.2</ele>
        <time>2019-06-16T16:52:31.333Z</time>
      </trkpt>
      <trkpt lat="42.96306" lon="-0.34529">
        <ele>1128.6</ele>
        <time>2019-06-16T16:52:31.576Z</time>
      </trkpt>
      <trkpt lat="42.96306" lon="-0.34529">
        <ele>1128.6</ele>
        <time>2019-06-16T16:52:31.576Z</time>
      </trkpt>
      <trkpt lat="42.96311" lon="-0.3449">
        <ele>1134.2</ele>
        <time>2019-06-16T16:52:32.041Z</time>
      </trkpt>
      <trkpt lat="42.96311" lon="-0.3449">
        <ele>1134.2</ele>
        <time>2019-06-16T16:52:32.041Z</time>
      </trkpt>
      <trkpt lat="42.96311" lon="-0.34466">
        <ele>1138.1</ele>
        <time>2019-06-16T16:52:32.323Z</time>
      </trkpt>
      <trkpt lat="42.96311" lon="-0.34466">
        <ele>1138.1</ele>
        <time>2019-06-16T16:52:32.323Z</time>
      </trkpt>
      <trkpt lat="42.96308" lon="-0.34448">
        <ele>1142.2</ele>
        <time>2019-06-16T16:52:32.540Z</time>
      </trkpt>
      <trkpt lat="42.96308" lon="-0.34448">
        <ele>1142.2</ele>
        <time>2019-06-16T16:52:32.540Z</time>
      </trkpt>
      <trkpt lat="42.96306" lon="-0.34437">
        <ele>1144.6</ele>
        <time>2019-06-16T16:52:32.673Z</time>
      </trkpt>
      <trkpt lat="42.96306" lon="-0.34437">
        <ele>1144.6</ele>
        <time>2019-06-16T16:52:32.673Z</time>
      </trkpt>
      <trkpt lat="42.96306" lon="-0.3443">
        <ele>1145.3</ele>
        <time>2019-06-16T16:52:32.755Z</time>
      </trkpt>
      <trkpt lat="42.96306" lon="-0.3443">
        <ele>1145.3</ele>
        <time>2019-06-16T16:52:32.755Z</time>
      </trkpt>
      <trkpt lat="42.9631" lon="-0.34412">
        <ele>1145.4</ele>
        <time>2019-06-16T16:52:32.976Z</time>
      </trkpt>
      <trkpt lat="42.9631" lon="-0.34412">
        <ele>1145.4</ele>
        <time>2019-06-16T16:52:32.976Z</time>
      </trkpt>
      <trkpt lat="42.9632" lon="-0.34385">
        <ele>1144.3</ele>
        <time>2019-06-16T16:52:33.331Z</time>
      </trkpt>
      <trkpt lat="42.9632" lon="-0.34385">
        <ele>1144.3</ele>
        <time>2019-06-16T16:52:33.331Z</time>
      </trkpt>
      <trkpt lat="42.96321" lon="-0.34349">
        <ele>1149.1</ele>
        <time>2019-06-16T16:52:33.754Z</time>
      </trkpt>
      <trkpt lat="42.96321" lon="-0.34349">
        <ele>1149.1</ele>
        <time>2019-06-16T16:52:33.755Z</time>
      </trkpt>
      <trkpt lat="42.96325" lon="-0.34302">
        <ele>1154.6</ele>
        <time>2019-06-16T16:52:34.310Z</time>
      </trkpt>
      <trkpt lat="42.96325" lon="-0.34302">
        <ele>1154.6</ele>
        <time>2019-06-16T16:52:34.310Z</time>
      </trkpt>
      <trkpt lat="42.96334" lon="-0.34267">
        <ele>1157.9</ele>
        <time>2019-06-16T16:52:34.745Z</time>
      </trkpt>
      <trkpt lat="42.96334" lon="-0.34267">
        <ele>1157.9</ele>
        <time>2019-06-16T16:52:34.745Z</time>
      </trkpt>
      <trkpt lat="42.96338" lon="-0.34232">
        <ele>1164.6</ele>
        <time>2019-06-16T16:52:35.161Z</time>
      </trkpt>
      <trkpt lat="42.96338" lon="-0.34232">
        <ele>1164.6</ele>
        <time>2019-06-16T16:52:35.161Z</time>
      </trkpt>
      <trkpt lat="42.96349" lon="-0.34187">
        <ele>1175.1</ele>
        <time>2019-06-16T16:52:35.718Z</time>
      </trkpt>
      <trkpt lat="42.96349" lon="-0.34187">
        <ele>1175.1</ele>
        <time>2019-06-16T16:52:35.718Z</time>
      </trkpt>
      <trkpt lat="42.96353" lon="-0.34136">
        <ele>1180.6</ele>
        <time>2019-06-16T16:52:36.320Z</time>
      </trkpt>
      <trkpt lat="42.96353" lon="-0.34136">
        <ele>1180.6</ele>
        <time>2019-06-16T16:52:36.320Z</time>
      </trkpt>
      <trkpt lat="42.96348" lon="-0.34111">
        <ele>1177.7</ele>
        <time>2019-06-16T16:52:36.624Z</time>
      </trkpt>
      <trkpt lat="42.96348" lon="-0.34111">
        <ele>1177.7</ele>
        <time>2019-06-16T16:52:36.624Z</time>
      </trkpt>
      <trkpt lat="42.96334" lon="-0.34074">
        <ele>1173.8</ele>
        <time>2019-06-16T16:52:37.113Z</time>
      </trkpt>
      <trkpt lat="42.96334" lon="-0.34074">
        <ele>1173.8</ele>
        <time>2019-06-16T16:52:37.113Z</time>
      </trkpt>
      <trkpt lat="42.96312" lon="-0.34019">
        <ele>1176.4</ele>
        <time>2019-06-16T16:52:37.848Z</time>
      </trkpt>
      <trkpt lat="42.96312" lon="-0.34019">
        <ele>1176.4</ele>
        <time>2019-06-16T16:52:37.848Z</time>
      </trkpt>
      <trkpt lat="42.96305" lon="-0.33995">
        <ele>1177.7</ele>
        <time>2019-06-16T16:52:38.151Z</time>
      </trkpt>
      <trkpt lat="42.96305" lon="-0.33995">
        <ele>1177.7</ele>
        <time>2019-06-16T16:52:38.151Z</time>
      </trkpt>
      <trkpt lat="42.96302" lon="-0.33973">
        <ele>1180.5</ele>
        <time>2019-06-16T16:52:38.414Z</time>
      </trkpt>
      <trkpt lat="42.96302" lon="-0.33973">
        <ele>1180.5</ele>
        <time>2019-06-16T16:52:38.414Z</time>
      </trkpt>
      <trkpt lat="42.96303" lon="-0.33964">
        <ele>1181.6</ele>
        <time>2019-06-16T16:52:38.521Z</time>
      </trkpt>
      <trkpt lat="42.96303" lon="-0.33964">
        <ele>1181.6</ele>
        <time>2019-06-16T16:52:38.521Z</time>
      </trkpt>
      <trkpt lat="42.96306" lon="-0.33951">
        <ele>1183.3</ele>
        <time>2019-06-16T16:52:38.681Z</time>
      </trkpt>
      <trkpt lat="42.96306" lon="-0.33951">
        <ele>1183.3</ele>
        <time>2019-06-16T16:52:38.681Z</time>
      </trkpt>
      <trkpt lat="42.96311" lon="-0.33946">
        <ele>1184.4</ele>
        <time>2019-06-16T16:52:38.780Z</time>
      </trkpt>
      <trkpt lat="42.96311" lon="-0.33946">
        <ele>1184.4</ele>
        <time>2019-06-16T16:52:38.780Z</time>
      </trkpt>
      <trkpt lat="42.96319" lon="-0.3394">
        <ele>1186</ele>
        <time>2019-06-16T16:52:38.926Z</time>
      </trkpt>
      <trkpt lat="42.96319" lon="-0.3394">
        <ele>1186</ele>
        <time>2019-06-16T16:52:38.926Z</time>
      </trkpt>
      <trkpt lat="42.96347" lon="-0.33934">
        <ele>1190.2</ele>
        <time>2019-06-16T16:52:39.380Z</time>
      </trkpt>
      <trkpt lat="42.96347" lon="-0.33934">
        <ele>1190.2</ele>
        <time>2019-06-16T16:52:39.380Z</time>
      </trkpt>
      <trkpt lat="42.96362" lon="-0.33932">
        <ele>1192.5</ele>
        <time>2019-06-16T16:52:39.622Z</time>
      </trkpt>
      <trkpt lat="42.96362" lon="-0.33932">
        <ele>1192.5</ele>
        <time>2019-06-16T16:52:39.622Z</time>
      </trkpt>
      <trkpt lat="42.96377" lon="-0.33933">
        <ele>1196.1</ele>
        <time>2019-06-16T16:52:39.863Z</time>
      </trkpt>
      <trkpt lat="42.96377" lon="-0.33933">
        <ele>1196.1</ele>
        <time>2019-06-16T16:52:39.863Z</time>
      </trkpt>
      <trkpt lat="42.9639" lon="-0.33938">
        <ele>1198.8</ele>
        <time>2019-06-16T16:52:40.080Z</time>
      </trkpt>
      <trkpt lat="42.9639" lon="-0.33938">
        <ele>1198.8</ele>
        <time>2019-06-16T16:52:40.080Z</time>
      </trkpt>
      <trkpt lat="42.96395" lon="-0.33942">
        <ele>1201.2</ele>
        <time>2019-06-16T16:52:40.173Z</time>
      </trkpt>
      <trkpt lat="42.96395" lon="-0.33942">
        <ele>1201.2</ele>
        <time>2019-06-16T16:52:40.173Z</time>
      </trkpt>
      <trkpt lat="42.96406" lon="-0.33959">
        <ele>1205.3</ele>
        <time>2019-06-16T16:52:40.439Z</time>
      </trkpt>
      <trkpt lat="42.96406" lon="-0.33959">
        <ele>1205.3</ele>
        <time>2019-06-16T16:52:40.439Z</time>
      </trkpt>
      <trkpt lat="42.96412" lon="-0.33978">
        <ele>1206</ele>
        <time>2019-06-16T16:52:40.682Z</time>
      </trkpt>
      <trkpt lat="42.96412" lon="-0.33978">
        <ele>1206</ele>
        <time>2019-06-16T16:52:40.682Z</time>
      </trkpt>
      <trkpt lat="42.96413" lon="-0.33991">
        <ele>1205.6</ele>
        <time>2019-06-16T16:52:40.835Z</time>
      </trkpt>
      <trkpt lat="42.96413" lon="-0.33991">
        <ele>1205.6</ele>
        <time>2019-06-16T16:52:40.835Z</time>
      </trkpt>
      <trkpt lat="42.96418" lon="-0.34117">
        <ele>1204.9</ele>
        <time>2019-06-16T16:52:42.315Z</time>
      </trkpt>
      <trkpt lat="42.96418" lon="-0.34117">
        <ele>1204.9</ele>
        <time>2019-06-16T16:52:42.315Z</time>
      </trkpt>
      <trkpt lat="42.9642" lon="-0.34135">
        <ele>1206.6</ele>
        <time>2019-06-16T16:52:42.529Z</time>
      </trkpt>
      <trkpt lat="42.9642" lon="-0.34135">
        <ele>1206.6</ele>
        <time>2019-06-16T16:52:42.530Z</time>
      </trkpt>
      <trkpt lat="42.96436" lon="-0.342">
        <ele>1216.9</ele>
        <time>2019-06-16T16:52:43.335Z</time>
      </trkpt>
      <trkpt lat="42.96436" lon="-0.342">
        <ele>1216.9</ele>
        <time>2019-06-16T16:52:43.336Z</time>
      </trkpt>
      <trkpt lat="42.96468" lon="-0.3432">
        <ele>1219.6</ele>
        <time>2019-06-16T16:52:44.834Z</time>
      </trkpt>
      <trkpt lat="42.96468" lon="-0.3432">
        <ele>1219.6</ele>
        <time>2019-06-16T16:52:44.834Z</time>
      </trkpt>
      <trkpt lat="42.96476" lon="-0.34336">
        <ele>1220.5</ele>
        <time>2019-06-16T16:52:45.061Z</time>
      </trkpt>
      <trkpt lat="42.96476" lon="-0.34336">
        <ele>1220.5</ele>
        <time>2019-06-16T16:52:45.061Z</time>
      </trkpt>
      <trkpt lat="42.9648" lon="-0.34342">
        <ele>1220.9</ele>
        <time>2019-06-16T16:52:45.156Z</time>
      </trkpt>
      <trkpt lat="42.9648" lon="-0.34342">
        <ele>1220.9</ele>
        <time>2019-06-16T16:52:45.156Z</time>
      </trkpt>
      <trkpt lat="42.9649" lon="-0.34346">
        <ele>1222.6</ele>
        <time>2019-06-16T16:52:45.323Z</time>
      </trkpt>
      <trkpt lat="42.9649" lon="-0.34346">
        <ele>1222.6</ele>
        <time>2019-06-16T16:52:45.323Z</time>
      </trkpt>
      <trkpt lat="42.965" lon="-0.34341">
        <ele>1224.7</ele>
        <time>2019-06-16T16:52:45.494Z</time>
      </trkpt>
      <trkpt lat="42.965" lon="-0.34341">
        <ele>1224.7</ele>
        <time>2019-06-16T16:52:45.494Z</time>
      </trkpt>
      <trkpt lat="42.96507" lon="-0.34328">
        <ele>1227.2</ele>
        <time>2019-06-16T16:52:45.683Z</time>
      </trkpt>
      <trkpt lat="42.96507" lon="-0.34328">
        <ele>1227.2</ele>
        <time>2019-06-16T16:52:45.683Z</time>
      </trkpt>
      <trkpt lat="42.96511" lon="-0.34293">
        <ele>1230</ele>
        <time>2019-06-16T16:52:46.099Z</time>
      </trkpt>
      <trkpt lat="42.96511" lon="-0.34293">
        <ele>1230</ele>
        <time>2019-06-16T16:52:46.099Z</time>
      </trkpt>
      <trkpt lat="42.96505" lon="-0.3421">
        <ele>1233.3</ele>
        <time>2019-06-16T16:52:47.077Z</time>
      </trkpt>
      <trkpt lat="42.96505" lon="-0.3421">
        <ele>1233.3</ele>
        <time>2019-06-16T16:52:47.077Z</time>
      </trkpt>
      <trkpt lat="42.965" lon="-0.34162">
        <ele>1234</ele>
        <time>2019-06-16T16:52:47.646Z</time>
      </trkpt>
      <trkpt lat="42.965" lon="-0.34162">
        <ele>1234</ele>
        <time>2019-06-16T16:52:47.646Z</time>
      </trkpt>
      <trkpt lat="42.96495" lon="-0.34093">
        <ele>1248.5</ele>
        <time>2019-06-16T16:52:48.459Z</time>
      </trkpt>
      <trkpt lat="42.96495" lon="-0.34093">
        <ele>1248.5</ele>
        <time>2019-06-16T16:52:48.459Z</time>
      </trkpt>
      <trkpt lat="42.96488" lon="-0.34057">
        <ele>1251.1</ele>
        <time>2019-06-16T16:52:48.896Z</time>
      </trkpt>
      <trkpt lat="42.96488" lon="-0.34057">
        <ele>1251.1</ele>
        <time>2019-06-16T16:52:48.897Z</time>
      </trkpt>
      <trkpt lat="42.9648" lon="-0.34031">
        <ele>1249.1</ele>
        <time>2019-06-16T16:52:49.228Z</time>
      </trkpt>
      <trkpt lat="42.9648" lon="-0.34031">
        <ele>1249.1</ele>
        <time>2019-06-16T16:52:49.228Z</time>
      </trkpt>
      <trkpt lat="42.96475" lon="-0.33987">
        <ele>1249.3</ele>
        <time>2019-06-16T16:52:49.750Z</time>
      </trkpt>
      <trkpt lat="42.96475" lon="-0.33987">
        <ele>1249.3</ele>
        <time>2019-06-16T16:52:49.750Z</time>
      </trkpt>
      <trkpt lat="42.96474" lon="-0.33961">
        <ele>1250.9</ele>
        <time>2019-06-16T16:52:50.055Z</time>
      </trkpt>
      <trkpt lat="42.96474" lon="-0.33961">
        <ele>1250.9</ele>
        <time>2019-06-16T16:52:50.055Z</time>
      </trkpt>
      <trkpt lat="42.96472" lon="-0.33942">
        <ele>1251</ele>
        <time>2019-06-16T16:52:50.280Z</time>
      </trkpt>
      <trkpt lat="42.96472" lon="-0.33942">
        <ele>1251</ele>
        <time>2019-06-16T16:52:50.280Z</time>
      </trkpt>
      <trkpt lat="42.96467" lon="-0.33925">
        <ele>1249.3</ele>
        <time>2019-06-16T16:52:50.495Z</time>
      </trkpt>
      <trkpt lat="42.96467" lon="-0.33925">
        <ele>1249.3</ele>
        <time>2019-06-16T16:52:50.495Z</time>
      </trkpt>
      <trkpt lat="42.96462" lon="-0.33899">
        <ele>1249.7</ele>
        <time>2019-06-16T16:52:50.810Z</time>
      </trkpt>
      <trkpt lat="42.96462" lon="-0.33899">
        <ele>1249.7</ele>
        <time>2019-06-16T16:52:50.810Z</time>
      </trkpt>
      <trkpt lat="42.96463" lon="-0.33888">
        <ele>1251.8</ele>
        <time>2019-06-16T16:52:50.940Z</time>
      </trkpt>
      <trkpt lat="42.96463" lon="-0.33888">
        <ele>1251.8</ele>
        <time>2019-06-16T16:52:50.940Z</time>
      </trkpt>
      <trkpt lat="42.96466" lon="-0.3387">
        <ele>1256.1</ele>
        <time>2019-06-16T16:52:51.157Z</time>
      </trkpt>
      <trkpt lat="42.96466" lon="-0.3387">
        <ele>1256.1</ele>
        <time>2019-06-16T16:52:51.157Z</time>
      </trkpt>
      <trkpt lat="42.96466" lon="-0.33847">
        <ele>1260.2</ele>
        <time>2019-06-16T16:52:51.427Z</time>
      </trkpt>
      <trkpt lat="42.96466" lon="-0.33847">
        <ele>1260.2</ele>
        <time>2019-06-16T16:52:51.427Z</time>
      </trkpt>
      <trkpt lat="42.96457" lon="-0.33812">
        <ele>1261.2</ele>
        <time>2019-06-16T16:52:51.862Z</time>
      </trkpt>
      <trkpt lat="42.96457" lon="-0.33812">
        <ele>1261.2</ele>
        <time>2019-06-16T16:52:51.862Z</time>
      </trkpt>
      <trkpt lat="42.9645" lon="-0.33786">
        <ele>1261</ele>
        <time>2019-06-16T16:52:52.187Z</time>
      </trkpt>
      <trkpt lat="42.9645" lon="-0.33786">
        <ele>1261</ele>
        <time>2019-06-16T16:52:52.187Z</time>
      </trkpt>
      <trkpt lat="42.96449" lon="-0.33749">
        <ele>1265.4</ele>
        <time>2019-06-16T16:52:52.621Z</time>
      </trkpt>
      <trkpt lat="42.96449" lon="-0.33749">
        <ele>1265.4</ele>
        <time>2019-06-16T16:52:52.621Z</time>
      </trkpt>
      <trkpt lat="42.96449" lon="-0.33716">
        <ele>1270.8</ele>
        <time>2019-06-16T16:52:53.008Z</time>
      </trkpt>
      <trkpt lat="42.96449" lon="-0.33716">
        <ele>1270.8</ele>
        <time>2019-06-16T16:52:53.008Z</time>
      </trkpt>
      <trkpt lat="42.96431" lon="-0.33584">
        <ele>1290.1</ele>
        <time>2019-06-16T16:52:54.583Z</time>
      </trkpt>
      <trkpt lat="42.96431" lon="-0.33584">
        <ele>1290.1</ele>
        <time>2019-06-16T16:52:54.583Z</time>
      </trkpt>
      <trkpt lat="42.96423" lon="-0.33554">
        <ele>1296.1</ele>
        <time>2019-06-16T16:52:54.958Z</time>
      </trkpt>
      <trkpt lat="42.96423" lon="-0.33554">
        <ele>1296.1</ele>
        <time>2019-06-16T16:52:54.958Z</time>
      </trkpt>
      <trkpt lat="42.96413" lon="-0.33528">
        <ele>1298.4</ele>
        <time>2019-06-16T16:52:55.303Z</time>
      </trkpt>
      <trkpt lat="42.96413" lon="-0.33528">
        <ele>1298.4</ele>
        <time>2019-06-16T16:52:55.303Z</time>
      </trkpt>
      <trkpt lat="42.96396" lon="-0.3349">
        <ele>1299.7</ele>
        <time>2019-06-16T16:52:55.826Z</time>
      </trkpt>
      <trkpt lat="42.96396" lon="-0.3349">
        <ele>1299.7</ele>
        <time>2019-06-16T16:52:55.826Z</time>
      </trkpt>
      <trkpt lat="42.96368" lon="-0.33428">
        <ele>1301.6</ele>
        <time>2019-06-16T16:52:56.681Z</time>
      </trkpt>
      <trkpt lat="42.96368" lon="-0.33428">
        <ele>1301.6</ele>
        <time>2019-06-16T16:52:56.681Z</time>
      </trkpt>
      <trkpt lat="42.96358" lon="-0.33407">
        <ele>1302.8</ele>
        <time>2019-06-16T16:52:56.975Z</time>
      </trkpt>
      <trkpt lat="42.96358" lon="-0.33407">
        <ele>1302.8</ele>
        <time>2019-06-16T16:52:56.975Z</time>
      </trkpt>
      <trkpt lat="42.96335" lon="-0.33369">
        <ele>1304.6</ele>
        <time>2019-06-16T16:52:57.554Z</time>
      </trkpt>
      <trkpt lat="42.96335" lon="-0.33369">
        <ele>1304.6</ele>
        <time>2019-06-16T16:52:57.554Z</time>
      </trkpt>
      <trkpt lat="42.96315" lon="-0.3334">
        <ele>1306.5</ele>
        <time>2019-06-16T16:52:58.021Z</time>
      </trkpt>
      <trkpt lat="42.96315" lon="-0.3334">
        <ele>1306.5</ele>
        <time>2019-06-16T16:52:58.021Z</time>
      </trkpt>
      <trkpt lat="42.96266" lon="-0.33295">
        <ele>1310.4</ele>
        <time>2019-06-16T16:52:58.967Z</time>
      </trkpt>
      <trkpt lat="42.96266" lon="-0.33295">
        <ele>1310.4</ele>
        <time>2019-06-16T16:52:58.967Z</time>
      </trkpt>
      <trkpt lat="42.96249" lon="-0.33281">
        <ele>1312.9</ele>
        <time>2019-06-16T16:52:59.285Z</time>
      </trkpt>
      <trkpt lat="42.96249" lon="-0.33281">
        <ele>1312.9</ele>
        <time>2019-06-16T16:52:59.286Z</time>
      </trkpt>
      <trkpt lat="42.96242" lon="-0.33276">
        <ele>1313.9</ele>
        <time>2019-06-16T16:52:59.413Z</time>
      </trkpt>
      <trkpt lat="42.96242" lon="-0.33276">
        <ele>1313.9</ele>
        <time>2019-06-16T16:52:59.414Z</time>
      </trkpt>
      <trkpt lat="42.9619" lon="-0.33266">
        <ele>1313.1</ele>
        <time>2019-06-16T16:53:00.256Z</time>
      </trkpt>
      <trkpt lat="42.9619" lon="-0.33266">
        <ele>1313.1</ele>
        <time>2019-06-16T16:53:00.256Z</time>
      </trkpt>
      <trkpt lat="42.96171" lon="-0.33264">
        <ele>1315.6</ele>
        <time>2019-06-16T16:53:00.561Z</time>
      </trkpt>
      <trkpt lat="42.96171" lon="-0.33264">
        <ele>1315.6</ele>
        <time>2019-06-16T16:53:00.561Z</time>
      </trkpt>
      <trkpt lat="42.9615" lon="-0.33271">
        <ele>1319.1</ele>
        <time>2019-06-16T16:53:00.908Z</time>
      </trkpt>
      <trkpt lat="42.9615" lon="-0.33271">
        <ele>1319.1</ele>
        <time>2019-06-16T16:53:00.908Z</time>
      </trkpt>
      <trkpt lat="42.96121" lon="-0.333">
        <ele>1316.1</ele>
        <time>2019-06-16T16:53:01.484Z</time>
      </trkpt>
      <trkpt lat="42.96121" lon="-0.333">
        <ele>1316.1</ele>
        <time>2019-06-16T16:53:01.485Z</time>
      </trkpt>
      <trkpt lat="42.9611" lon="-0.33305">
        <ele>1318.5</ele>
        <time>2019-06-16T16:53:01.671Z</time>
      </trkpt>
      <trkpt lat="42.9611" lon="-0.33305">
        <ele>1318.5</ele>
        <time>2019-06-16T16:53:01.671Z</time>
      </trkpt>
      <trkpt lat="42.96104" lon="-0.33304">
        <ele>1320.2</ele>
        <time>2019-06-16T16:53:01.768Z</time>
      </trkpt>
      <trkpt lat="42.96104" lon="-0.33304">
        <ele>1320.2</ele>
        <time>2019-06-16T16:53:01.768Z</time>
      </trkpt>
      <trkpt lat="42.96095" lon="-0.333">
        <ele>1323.6</ele>
        <time>2019-06-16T16:53:01.920Z</time>
      </trkpt>
      <trkpt lat="42.96095" lon="-0.333">
        <ele>1323.6</ele>
        <time>2019-06-16T16:53:01.920Z</time>
      </trkpt>
      <trkpt lat="42.96071" lon="-0.33282">
        <ele>1333.8</ele>
        <time>2019-06-16T16:53:02.359Z</time>
      </trkpt>
      <trkpt lat="42.96071" lon="-0.33282">
        <ele>1333.8</ele>
        <time>2019-06-16T16:53:02.360Z</time>
      </trkpt>
      <trkpt lat="42.9606" lon="-0.33277">
        <ele>1336.8</ele>
        <time>2019-06-16T16:53:02.546Z</time>
      </trkpt>
      <trkpt lat="42.9606" lon="-0.33277">
        <ele>1336.8</ele>
        <time>2019-06-16T16:53:02.546Z</time>
      </trkpt>
      <trkpt lat="42.96044" lon="-0.33279">
        <ele>1338.7</ele>
        <time>2019-06-16T16:53:02.804Z</time>
      </trkpt>
      <trkpt lat="42.96044" lon="-0.33279">
        <ele>1338.7</ele>
        <time>2019-06-16T16:53:02.804Z</time>
      </trkpt>
      <trkpt lat="42.96012" lon="-0.33299">
        <ele>1339.2</ele>
        <time>2019-06-16T16:53:03.368Z</time>
      </trkpt>
      <trkpt lat="42.96012" lon="-0.33299">
        <ele>1339.2</ele>
        <time>2019-06-16T16:53:03.368Z</time>
      </trkpt>
      <trkpt lat="42.95989" lon="-0.33306">
        <ele>1342</ele>
        <time>2019-06-16T16:53:03.746Z</time>
      </trkpt>
      <trkpt lat="42.95989" lon="-0.33306">
        <ele>1342</ele>
        <time>2019-06-16T16:53:03.746Z</time>
      </trkpt>
      <trkpt lat="42.95956" lon="-0.33302">
        <ele>1347.4</ele>
        <time>2019-06-16T16:53:04.277Z</time>
      </trkpt>
      <trkpt lat="42.95956" lon="-0.33302">
        <ele>1347.4</ele>
        <time>2019-06-16T16:53:04.277Z</time>
      </trkpt>
      <trkpt lat="42.95941" lon="-0.33298">
        <ele>1349.5</ele>
        <time>2019-06-16T16:53:04.522Z</time>
      </trkpt>
      <trkpt lat="42.95941" lon="-0.33298">
        <ele>1349.5</ele>
        <time>2019-06-16T16:53:04.522Z</time>
      </trkpt>
      <trkpt lat="42.95909" lon="-0.33295">
        <ele>1350.5</ele>
        <time>2019-06-16T16:53:05.036Z</time>
      </trkpt>
      <trkpt lat="42.95909" lon="-0.33295">
        <ele>1350.5</ele>
        <time>2019-06-16T16:53:05.037Z</time>
      </trkpt>
      <trkpt lat="42.95881" lon="-0.33301">
        <ele>1350.1</ele>
        <time>2019-06-16T16:53:05.491Z</time>
      </trkpt>
      <trkpt lat="42.95881" lon="-0.33301">
        <ele>1350.1</ele>
        <time>2019-06-16T16:53:05.491Z</time>
      </trkpt>
      <trkpt lat="42.95855" lon="-0.33299">
        <ele>1349.9</ele>
        <time>2019-06-16T16:53:05.908Z</time>
      </trkpt>
      <trkpt lat="42.95855" lon="-0.33299">
        <ele>1349.9</ele>
        <time>2019-06-16T16:53:05.908Z</time>
      </trkpt>
      <trkpt lat="42.95847" lon="-0.33297">
        <ele>1350</ele>
        <time>2019-06-16T16:53:06.038Z</time>
      </trkpt>
      <trkpt lat="42.95847" lon="-0.33297">
        <ele>1350</ele>
        <time>2019-06-16T16:53:06.038Z</time>
      </trkpt>
      <trkpt lat="42.95834" lon="-0.33291">
        <ele>1349.9</ele>
        <time>2019-06-16T16:53:06.258Z</time>
      </trkpt>
      <trkpt lat="42.95834" lon="-0.33291">
        <ele>1349.9</ele>
        <time>2019-06-16T16:53:06.258Z</time>
      </trkpt>
      <trkpt lat="42.95823" lon="-0.33281">
        <ele>1348.8</ele>
        <time>2019-06-16T16:53:06.470Z</time>
      </trkpt>
      <trkpt lat="42.95823" lon="-0.33281">
        <ele>1348.8</ele>
        <time>2019-06-16T16:53:06.470Z</time>
      </trkpt>
      <trkpt lat="42.95817" lon="-0.33273">
        <ele>1348.4</ele>
        <time>2019-06-16T16:53:06.604Z</time>
      </trkpt>
      <trkpt lat="42.95817" lon="-0.33273">
        <ele>1348.4</ele>
        <time>2019-06-16T16:53:06.604Z</time>
      </trkpt>
      <trkpt lat="42.95809" lon="-0.33249">
        <ele>1348.2</ele>
        <time>2019-06-16T16:53:06.913Z</time>
      </trkpt>
      <trkpt lat="42.95809" lon="-0.33249">
        <ele>1348.2</ele>
        <time>2019-06-16T16:53:06.913Z</time>
      </trkpt>
      <trkpt lat="42.95812" lon="-0.33237">
        <ele>1350</ele>
        <time>2019-06-16T16:53:07.062Z</time>
      </trkpt>
      <trkpt lat="42.95812" lon="-0.33237">
        <ele>1350</ele>
        <time>2019-06-16T16:53:07.062Z</time>
      </trkpt>
      <trkpt lat="42.9581" lon="-0.33233">
        <ele>1350.3</ele>
        <time>2019-06-16T16:53:07.119Z</time>
      </trkpt>
      <trkpt lat="42.9581" lon="-0.33233">
        <ele>1350.3</ele>
        <time>2019-06-16T16:53:07.119Z</time>
      </trkpt>
      <trkpt lat="42.95812" lon="-0.33237">
        <ele>1350</ele>
        <time>2019-06-16T16:53:07.176Z</time>
      </trkpt>
      <trkpt lat="42.95812" lon="-0.33237">
        <ele>1350</ele>
        <time>2019-06-16T16:53:07.176Z</time>
      </trkpt>
      <trkpt lat="42.95816" lon="-0.33232">
        <ele>1351.1</ele>
        <time>2019-06-16T16:53:07.263Z</time>
      </trkpt>
      <trkpt lat="42.95816" lon="-0.33232">
        <ele>1351.1</ele>
        <time>2019-06-16T16:53:07.264Z</time>
      </trkpt>
      <trkpt lat="42.95821" lon="-0.33229">
        <ele>1352.1</ele>
        <time>2019-06-16T16:53:07.352Z</time>
      </trkpt>
      <trkpt lat="42.95821" lon="-0.33229">
        <ele>1352.1</ele>
        <time>2019-06-16T16:53:07.352Z</time>
      </trkpt>
      <trkpt lat="42.95828" lon="-0.33229">
        <ele>1352.9</ele>
        <time>2019-06-16T16:53:07.464Z</time>
      </trkpt>
      <trkpt lat="42.95828" lon="-0.33229">
        <ele>1352.9</ele>
        <time>2019-06-16T16:53:07.464Z</time>
      </trkpt>
      <trkpt lat="42.95837" lon="-0.33232">
        <ele>1353.5</ele>
        <time>2019-06-16T16:53:07.613Z</time>
      </trkpt>
      <trkpt lat="42.95837" lon="-0.33232">
        <ele>1353.5</ele>
        <time>2019-06-16T16:53:07.614Z</time>
      </trkpt>
      <trkpt lat="42.95843" lon="-0.33236">
        <ele>1353.6</ele>
        <time>2019-06-16T16:53:07.721Z</time>
      </trkpt>
      <trkpt lat="42.95843" lon="-0.33236">
        <ele>1353.6</ele>
        <time>2019-06-16T16:53:07.721Z</time>
      </trkpt>
      <trkpt lat="42.95858" lon="-0.33255">
        <ele>1351.9</ele>
        <time>2019-06-16T16:53:08.049Z</time>
      </trkpt>
      <trkpt lat="42.95858" lon="-0.33255">
        <ele>1351.9</ele>
        <time>2019-06-16T16:53:08.049Z</time>
      </trkpt>
      <trkpt lat="42.95868" lon="-0.33263">
        <ele>1351.9</ele>
        <time>2019-06-16T16:53:08.235Z</time>
      </trkpt>
      <trkpt lat="42.95868" lon="-0.33263">
        <ele>1351.9</ele>
        <time>2019-06-16T16:53:08.235Z</time>
      </trkpt>
      <trkpt lat="42.95879" lon="-0.33268">
        <ele>1352.1</ele>
        <time>2019-06-16T16:53:08.421Z</time>
      </trkpt>
      <trkpt lat="42.95879" lon="-0.33268">
        <ele>1352.1</ele>
        <time>2019-06-16T16:53:08.422Z</time>
      </trkpt>
      <trkpt lat="42.9589" lon="-0.33266">
        <ele>1353.6</ele>
        <time>2019-06-16T16:53:08.600Z</time>
      </trkpt>
      <trkpt lat="42.9589" lon="-0.33266">
        <ele>1353.6</ele>
        <time>2019-06-16T16:53:08.600Z</time>
      </trkpt>
      <trkpt lat="42.95908" lon="-0.33259">
        <ele>1356.9</ele>
        <time>2019-06-16T16:53:08.900Z</time>
      </trkpt>
      <trkpt lat="42.95908" lon="-0.33259">
        <ele>1356.9</ele>
        <time>2019-06-16T16:53:08.901Z</time>
      </trkpt>
      <trkpt lat="42.95918" lon="-0.33258">
        <ele>1358</ele>
        <time>2019-06-16T16:53:09.062Z</time>
      </trkpt>
      <trkpt lat="42.95918" lon="-0.33258">
        <ele>1358</ele>
        <time>2019-06-16T16:53:09.062Z</time>
      </trkpt>
      <trkpt lat="42.95932" lon="-0.33259">
        <ele>1357.7</ele>
        <time>2019-06-16T16:53:09.287Z</time>
      </trkpt>
      <trkpt lat="42.95932" lon="-0.33259">
        <ele>1357.7</ele>
        <time>2019-06-16T16:53:09.287Z</time>
      </trkpt>
      <trkpt lat="42.95945" lon="-0.33261">
        <ele>1357.2</ele>
        <time>2019-06-16T16:53:09.497Z</time>
      </trkpt>
      <trkpt lat="42.95945" lon="-0.33261">
        <ele>1357.2</ele>
        <time>2019-06-16T16:53:09.499Z</time>
      </trkpt>
      <trkpt lat="42.95958" lon="-0.33258">
        <ele>1357</ele>
        <time>2019-06-16T16:53:09.710Z</time>
      </trkpt>
      <trkpt lat="42.95958" lon="-0.33258">
        <ele>1357</ele>
        <time>2019-06-16T16:53:09.710Z</time>
      </trkpt>
      <trkpt lat="42.95964" lon="-0.33255">
        <ele>1357.3</ele>
        <time>2019-06-16T16:53:09.812Z</time>
      </trkpt>
      <trkpt lat="42.95964" lon="-0.33255">
        <ele>1357.3</ele>
        <time>2019-06-16T16:53:09.812Z</time>
      </trkpt>
      <trkpt lat="42.95972" lon="-0.33247">
        <ele>1358.8</ele>
        <time>2019-06-16T16:53:09.971Z</time>
      </trkpt>
      <trkpt lat="42.95972" lon="-0.33247">
        <ele>1358.8</ele>
        <time>2019-06-16T16:53:09.971Z</time>
      </trkpt>
      <trkpt lat="42.95981" lon="-0.33231">
        <ele>1362.1</ele>
        <time>2019-06-16T16:53:10.208Z</time>
      </trkpt>
      <trkpt lat="42.95981" lon="-0.33231">
        <ele>1362.1</ele>
        <time>2019-06-16T16:53:10.208Z</time>
      </trkpt>
      <trkpt lat="42.95988" lon="-0.33207">
        <ele>1367.2</ele>
        <time>2019-06-16T16:53:10.511Z</time>
      </trkpt>
      <trkpt lat="42.95988" lon="-0.33207">
        <ele>1367.2</ele>
        <time>2019-06-16T16:53:10.512Z</time>
      </trkpt>
      <trkpt lat="42.95995" lon="-0.33186">
        <ele>1370.9</ele>
        <time>2019-06-16T16:53:10.783Z</time>
      </trkpt>
      <trkpt lat="42.95995" lon="-0.33186">
        <ele>1370.9</ele>
        <time>2019-06-16T16:53:10.783Z</time>
      </trkpt>
      <trkpt lat="42.96012" lon="-0.33161">
        <ele>1374.2</ele>
        <time>2019-06-16T16:53:11.183Z</time>
      </trkpt>
      <trkpt lat="42.96012" lon="-0.33161">
        <ele>1374.2</ele>
        <time>2019-06-16T16:53:11.183Z</time>
      </trkpt>
      <trkpt lat="42.96036" lon="-0.33133">
        <ele>1377.7</ele>
        <time>2019-06-16T16:53:11.689Z</time>
      </trkpt>
      <trkpt lat="42.96036" lon="-0.33133">
        <ele>1377.7</ele>
        <time>2019-06-16T16:53:11.690Z</time>
      </trkpt>
      <trkpt lat="42.96052" lon="-0.33121">
        <ele>1379.1</ele>
        <time>2019-06-16T16:53:11.983Z</time>
      </trkpt>
      <trkpt lat="42.96052" lon="-0.33121">
        <ele>1379.1</ele>
        <time>2019-06-16T16:53:11.983Z</time>
      </trkpt>
      <trkpt lat="42.96067" lon="-0.33121">
        <ele>1378.4</ele>
        <time>2019-06-16T16:53:12.223Z</time>
      </trkpt>
      <trkpt lat="42.96067" lon="-0.33121">
        <ele>1378.4</ele>
        <time>2019-06-16T16:53:12.223Z</time>
      </trkpt>
      <trkpt lat="42.96084" lon="-0.33115">
        <ele>1379.7</ele>
        <time>2019-06-16T16:53:12.504Z</time>
      </trkpt>
      <trkpt lat="42.96084" lon="-0.33115">
        <ele>1379.7</ele>
        <time>2019-06-16T16:53:12.504Z</time>
      </trkpt>
      <trkpt lat="42.96105" lon="-0.33104">
        <ele>1381.9</ele>
        <time>2019-06-16T16:53:12.865Z</time>
      </trkpt>
      <trkpt lat="42.96105" lon="-0.33104">
        <ele>1381.9</ele>
        <time>2019-06-16T16:53:12.865Z</time>
      </trkpt>
      <trkpt lat="42.96119" lon="-0.33105">
        <ele>1380.4</ele>
        <time>2019-06-16T16:53:13.090Z</time>
      </trkpt>
      <trkpt lat="42.96119" lon="-0.33105">
        <ele>1380.4</ele>
        <time>2019-06-16T16:53:13.090Z</time>
      </trkpt>
      <trkpt lat="42.96125" lon="-0.33107">
        <ele>1379.1</ele>
        <time>2019-06-16T16:53:13.189Z</time>
      </trkpt>
      <trkpt lat="42.96125" lon="-0.33107">
        <ele>1379.1</ele>
        <time>2019-06-16T16:53:13.189Z</time>
      </trkpt>
      <trkpt lat="42.96137" lon="-0.33107">
        <ele>1377.8</ele>
        <time>2019-06-16T16:53:13.381Z</time>
      </trkpt>
      <trkpt lat="42.96137" lon="-0.33107">
        <ele>1377.8</ele>
        <time>2019-06-16T16:53:13.381Z</time>
      </trkpt>
      <trkpt lat="42.96145" lon="-0.33104">
        <ele>1378.2</ele>
        <time>2019-06-16T16:53:13.514Z</time>
      </trkpt>
      <trkpt lat="42.96145" lon="-0.33104">
        <ele>1378.2</ele>
        <time>2019-06-16T16:53:13.514Z</time>
      </trkpt>
      <trkpt lat="42.96176" lon="-0.33089">
        <ele>1381.5</ele>
        <time>2019-06-16T16:53:14.041Z</time>
      </trkpt>
      <trkpt lat="42.96176" lon="-0.33089">
        <ele>1381.5</ele>
        <time>2019-06-16T16:53:14.041Z</time>
      </trkpt>
      <trkpt lat="42.96217" lon="-0.33059">
        <ele>1389.3</ele>
        <time>2019-06-16T16:53:14.787Z</time>
      </trkpt>
      <trkpt lat="42.96217" lon="-0.33059">
        <ele>1389.3</ele>
        <time>2019-06-16T16:53:14.788Z</time>
      </trkpt>
      <trkpt lat="42.9626" lon="-0.33039">
        <ele>1394.8</ele>
        <time>2019-06-16T16:53:15.516Z</time>
      </trkpt>
      <trkpt lat="42.9626" lon="-0.33039">
        <ele>1394.8</ele>
        <time>2019-06-16T16:53:15.516Z</time>
      </trkpt>
      <trkpt lat="42.96273" lon="-0.33034">
        <ele>1397.6</ele>
        <time>2019-06-16T16:53:15.733Z</time>
      </trkpt>
      <trkpt lat="42.96273" lon="-0.33034">
        <ele>1397.6</ele>
        <time>2019-06-16T16:53:15.733Z</time>
      </trkpt>
      <trkpt lat="42.96281" lon="-0.33034">
        <ele>1398.9</ele>
        <time>2019-06-16T16:53:15.861Z</time>
      </trkpt>
      <trkpt lat="42.96281" lon="-0.33034">
        <ele>1398.9</ele>
        <time>2019-06-16T16:53:15.861Z</time>
      </trkpt>
      <trkpt lat="42.96292" lon="-0.33034">
        <ele>1402.2</ele>
        <time>2019-06-16T16:53:16.037Z</time>
      </trkpt>
      <trkpt lat="42.96292" lon="-0.33034">
        <ele>1402.2</ele>
        <time>2019-06-16T16:53:16.038Z</time>
      </trkpt>
      <trkpt lat="42.96311" lon="-0.33043">
        <ele>1406.4</ele>
        <time>2019-06-16T16:53:16.360Z</time>
      </trkpt>
      <trkpt lat="42.96311" lon="-0.33043">
        <ele>1406.4</ele>
        <time>2019-06-16T16:53:16.360Z</time>
      </trkpt>
      <trkpt lat="42.96325" lon="-0.33056">
        <ele>1409.7</ele>
        <time>2019-06-16T16:53:16.631Z</time>
      </trkpt>
      <trkpt lat="42.96325" lon="-0.33056">
        <ele>1409.7</ele>
        <time>2019-06-16T16:53:16.631Z</time>
      </trkpt>
      <trkpt lat="42.9633" lon="-0.33065">
        <ele>1409.6</ele>
        <time>2019-06-16T16:53:16.764Z</time>
      </trkpt>
      <trkpt lat="42.9633" lon="-0.33065">
        <ele>1409.6</ele>
        <time>2019-06-16T16:53:16.766Z</time>
      </trkpt>
      <trkpt lat="42.96336" lon="-0.33085">
        <ele>1407</ele>
        <time>2019-06-16T16:53:17.020Z</time>
      </trkpt>
      <trkpt lat="42.96336" lon="-0.33085">
        <ele>1407</ele>
        <time>2019-06-16T16:53:17.020Z</time>
      </trkpt>
      <trkpt lat="42.96345" lon="-0.33106">
        <ele>1406</ele>
        <time>2019-06-16T16:53:17.306Z</time>
      </trkpt>
      <trkpt lat="42.96345" lon="-0.33106">
        <ele>1406</ele>
        <time>2019-06-16T16:53:17.306Z</time>
      </trkpt>
      <trkpt lat="42.96357" lon="-0.33119">
        <ele>1406.9</ele>
        <time>2019-06-16T16:53:17.551Z</time>
      </trkpt>
      <trkpt lat="42.96357" lon="-0.33119">
        <ele>1406.9</ele>
        <time>2019-06-16T16:53:17.552Z</time>
      </trkpt>
      <trkpt lat="42.96377" lon="-0.33127">
        <ele>1410.9</ele>
        <time>2019-06-16T16:53:17.886Z</time>
      </trkpt>
      <trkpt lat="42.96377" lon="-0.33127">
        <ele>1410.9</ele>
        <time>2019-06-16T16:53:17.886Z</time>
      </trkpt>
      <trkpt lat="42.96428" lon="-0.33151">
        <ele>1416</ele>
        <time>2019-06-16T16:53:18.751Z</time>
      </trkpt>
      <trkpt lat="42.96428" lon="-0.33151">
        <ele>1416</ele>
        <time>2019-06-16T16:53:18.751Z</time>
      </trkpt>
      <trkpt lat="42.96442" lon="-0.33159">
        <ele>1418.3</ele>
        <time>2019-06-16T16:53:18.994Z</time>
      </trkpt>
      <trkpt lat="42.96442" lon="-0.33159">
        <ele>1418.3</ele>
        <time>2019-06-16T16:53:18.994Z</time>
      </trkpt>
      <trkpt lat="42.96453" lon="-0.33177">
        <ele>1417.6</ele>
        <time>2019-06-16T16:53:19.269Z</time>
      </trkpt>
      <trkpt lat="42.96453" lon="-0.33177">
        <ele>1417.6</ele>
        <time>2019-06-16T16:53:19.269Z</time>
      </trkpt>
      <trkpt lat="42.9647" lon="-0.33192">
        <ele>1423.4</ele>
        <time>2019-06-16T16:53:19.593Z</time>
      </trkpt>
      <trkpt lat="42.9647" lon="-0.33192">
        <ele>1423.4</ele>
        <time>2019-06-16T16:53:19.593Z</time>
      </trkpt>
      <trkpt lat="42.96477" lon="-0.33201">
        <ele>1425.7</ele>
        <time>2019-06-16T16:53:19.747Z</time>
      </trkpt>
      <trkpt lat="42.96477" lon="-0.33201">
        <ele>1425.7</ele>
        <time>2019-06-16T16:53:19.747Z</time>
      </trkpt>
      <trkpt lat="42.96483" lon="-0.33211">
        <ele>1427.1</ele>
        <time>2019-06-16T16:53:19.899Z</time>
      </trkpt>
      <trkpt lat="42.96483" lon="-0.33211">
        <ele>1427.1</ele>
        <time>2019-06-16T16:53:19.900Z</time>
      </trkpt>
      <trkpt lat="42.96494" lon="-0.33231">
        <ele>1429.3</ele>
        <time>2019-06-16T16:53:20.194Z</time>
      </trkpt>
      <trkpt lat="42.96494" lon="-0.33231">
        <ele>1429.3</ele>
        <time>2019-06-16T16:53:20.194Z</time>
      </trkpt>
      <trkpt lat="42.96497" lon="-0.33241">
        <ele>1429.6</ele>
        <time>2019-06-16T16:53:20.321Z</time>
      </trkpt>
      <trkpt lat="42.96497" lon="-0.33241">
        <ele>1429.6</ele>
        <time>2019-06-16T16:53:20.321Z</time>
      </trkpt>
      <trkpt lat="42.96497" lon="-0.33251">
        <ele>1428.3</ele>
        <time>2019-06-16T16:53:20.438Z</time>
      </trkpt>
      <trkpt lat="42.96497" lon="-0.33251">
        <ele>1428.3</ele>
        <time>2019-06-16T16:53:20.438Z</time>
      </trkpt>
      <trkpt lat="42.96498" lon="-0.33264">
        <ele>1428.4</ele>
        <time>2019-06-16T16:53:20.591Z</time>
      </trkpt>
      <trkpt lat="42.96498" lon="-0.33264">
        <ele>1428.4</ele>
        <time>2019-06-16T16:53:20.591Z</time>
      </trkpt>
      <trkpt lat="42.96506" lon="-0.33295">
        <ele>1432.2</ele>
        <time>2019-06-16T16:53:20.977Z</time>
      </trkpt>
      <trkpt lat="42.96506" lon="-0.33295">
        <ele>1432.2</ele>
        <time>2019-06-16T16:53:20.977Z</time>
      </trkpt>
      <trkpt lat="42.96508" lon="-0.33327">
        <ele>1432</ele>
        <time>2019-06-16T16:53:21.354Z</time>
      </trkpt>
      <trkpt lat="42.96508" lon="-0.33327">
        <ele>1432</ele>
        <time>2019-06-16T16:53:21.354Z</time>
      </trkpt>
      <trkpt lat="42.9651" lon="-0.33341">
        <ele>1431.9</ele>
        <time>2019-06-16T16:53:21.521Z</time>
      </trkpt>
      <trkpt lat="42.9651" lon="-0.33341">
        <ele>1431.9</ele>
        <time>2019-06-16T16:53:21.521Z</time>
      </trkpt>
      <trkpt lat="42.9652" lon="-0.33375">
        <ele>1433.9</ele>
        <time>2019-06-16T16:53:21.951Z</time>
      </trkpt>
      <trkpt lat="42.9652" lon="-0.33375">
        <ele>1433.9</ele>
        <time>2019-06-16T16:53:21.951Z</time>
      </trkpt>
      <trkpt lat="42.96528" lon="-0.33412">
        <ele>1435.4</ele>
        <time>2019-06-16T16:53:22.404Z</time>
      </trkpt>
      <trkpt lat="42.96528" lon="-0.33412">
        <ele>1435.4</ele>
        <time>2019-06-16T16:53:22.404Z</time>
      </trkpt>
      <trkpt lat="42.96535" lon="-0.33427">
        <ele>1435.6</ele>
        <time>2019-06-16T16:53:22.613Z</time>
      </trkpt>
      <trkpt lat="42.96535" lon="-0.33427">
        <ele>1435.6</ele>
        <time>2019-06-16T16:53:22.613Z</time>
      </trkpt>
      <trkpt lat="42.96551" lon="-0.33444">
        <ele>1437.6</ele>
        <time>2019-06-16T16:53:22.938Z</time>
      </trkpt>
      <trkpt lat="42.96551" lon="-0.33444">
        <ele>1437.6</ele>
        <time>2019-06-16T16:53:22.938Z</time>
      </trkpt>
      <trkpt lat="42.96559" lon="-0.33447">
        <ele>1438.9</ele>
        <time>2019-06-16T16:53:23.071Z</time>
      </trkpt>
      <trkpt lat="42.96559" lon="-0.33447">
        <ele>1438.9</ele>
        <time>2019-06-16T16:53:23.071Z</time>
      </trkpt>
      <trkpt lat="42.96569" lon="-0.33447">
        <ele>1440.6</ele>
        <time>2019-06-16T16:53:23.231Z</time>
      </trkpt>
      <trkpt lat="42.96569" lon="-0.33447">
        <ele>1440.6</ele>
        <time>2019-06-16T16:53:23.231Z</time>
      </trkpt>
      <trkpt lat="42.96595" lon="-0.33439">
        <ele>1448.6</ele>
        <time>2019-06-16T16:53:23.658Z</time>
      </trkpt>
      <trkpt lat="42.96595" lon="-0.33439">
        <ele>1448.6</ele>
        <time>2019-06-16T16:53:23.658Z</time>
      </trkpt>
      <trkpt lat="42.96608" lon="-0.33438">
        <ele>1452.3</ele>
        <time>2019-06-16T16:53:23.867Z</time>
      </trkpt>
      <trkpt lat="42.96608" lon="-0.33438">
        <ele>1452.3</ele>
        <time>2019-06-16T16:53:23.867Z</time>
      </trkpt>
      <trkpt lat="42.96615" lon="-0.33439">
        <ele>1454.3</ele>
        <time>2019-06-16T16:53:23.980Z</time>
      </trkpt>
      <trkpt lat="42.96615" lon="-0.33439">
        <ele>1454.3</ele>
        <time>2019-06-16T16:53:23.980Z</time>
      </trkpt>
      <trkpt lat="42.96622" lon="-0.33443">
        <ele>1455.8</ele>
        <time>2019-06-16T16:53:24.102Z</time>
      </trkpt>
      <trkpt lat="42.96622" lon="-0.33443">
        <ele>1455.8</ele>
        <time>2019-06-16T16:53:24.102Z</time>
      </trkpt>
      <trkpt lat="42.96628" lon="-0.33449">
        <ele>1456.6</ele>
        <time>2019-06-16T16:53:24.221Z</time>
      </trkpt>
      <trkpt lat="42.96628" lon="-0.33449">
        <ele>1456.6</ele>
        <time>2019-06-16T16:53:24.221Z</time>
      </trkpt>
      <trkpt lat="42.96636" lon="-0.33474">
        <ele>1454.3</ele>
        <time>2019-06-16T16:53:24.541Z</time>
      </trkpt>
      <trkpt lat="42.96636" lon="-0.33474">
        <ele>1454.3</ele>
        <time>2019-06-16T16:53:24.541Z</time>
      </trkpt>
      <trkpt lat="42.96637" lon="-0.33494">
        <ele>1451.2</ele>
        <time>2019-06-16T16:53:24.776Z</time>
      </trkpt>
      <trkpt lat="42.96637" lon="-0.33494">
        <ele>1451.2</ele>
        <time>2019-06-16T16:53:24.776Z</time>
      </trkpt>
      <trkpt lat="42.96642" lon="-0.33518">
        <ele>1449.2</ele>
        <time>2019-06-16T16:53:25.069Z</time>
      </trkpt>
      <trkpt lat="42.96642" lon="-0.33518">
        <ele>1449.2</ele>
        <time>2019-06-16T16:53:25.069Z</time>
      </trkpt>
      <trkpt lat="42.96644" lon="-0.33523">
        <ele>1449.3</ele>
        <time>2019-06-16T16:53:25.136Z</time>
      </trkpt>
      <trkpt lat="42.96644" lon="-0.33523">
        <ele>1449.3</ele>
        <time>2019-06-16T16:53:25.138Z</time>
      </trkpt>
      <trkpt lat="42.96651" lon="-0.33531">
        <ele>1451</ele>
        <time>2019-06-16T16:53:25.284Z</time>
      </trkpt>
      <trkpt lat="42.96651" lon="-0.33531">
        <ele>1451</ele>
        <time>2019-06-16T16:53:25.284Z</time>
      </trkpt>
      <trkpt lat="42.96661" lon="-0.33539">
        <ele>1453.7</ele>
        <time>2019-06-16T16:53:25.470Z</time>
      </trkpt>
      <trkpt lat="42.96661" lon="-0.33539">
        <ele>1453.7</ele>
        <time>2019-06-16T16:53:25.471Z</time>
      </trkpt>
      <trkpt lat="42.96686" lon="-0.33552">
        <ele>1459.3</ele>
        <time>2019-06-16T16:53:25.900Z</time>
      </trkpt>
      <trkpt lat="42.96686" lon="-0.33552">
        <ele>1459.3</ele>
        <time>2019-06-16T16:53:25.900Z</time>
      </trkpt>
      <trkpt lat="42.96698" lon="-0.33556">
        <ele>1461.8</ele>
        <time>2019-06-16T16:53:26.098Z</time>
      </trkpt>
      <trkpt lat="42.96698" lon="-0.33556">
        <ele>1461.8</ele>
        <time>2019-06-16T16:53:26.098Z</time>
      </trkpt>
      <trkpt lat="42.96719" lon="-0.33556">
        <ele>1467.9</ele>
        <time>2019-06-16T16:53:26.435Z</time>
      </trkpt>
      <trkpt lat="42.96719" lon="-0.33556">
        <ele>1467.9</ele>
        <time>2019-06-16T16:53:26.435Z</time>
      </trkpt>
      <trkpt lat="42.96741" lon="-0.33567">
        <ele>1469.1</ele>
        <time>2019-06-16T16:53:26.811Z</time>
      </trkpt>
      <trkpt lat="42.96741" lon="-0.33567">
        <ele>1469.1</ele>
        <time>2019-06-16T16:53:26.812Z</time>
      </trkpt>
      <trkpt lat="42.96759" lon="-0.33584">
        <ele>1468</ele>
        <time>2019-06-16T16:53:27.163Z</time>
      </trkpt>
      <trkpt lat="42.96759" lon="-0.33584">
        <ele>1468</ele>
        <time>2019-06-16T16:53:27.164Z</time>
      </trkpt>
      <trkpt lat="42.9679" lon="-0.33594">
        <ele>1477.8</ele>
        <time>2019-06-16T16:53:27.675Z</time>
      </trkpt>
      <trkpt lat="42.9679" lon="-0.33594">
        <ele>1477.8</ele>
        <time>2019-06-16T16:53:27.675Z</time>
      </trkpt>
      <trkpt lat="42.96797" lon="-0.33602">
        <ele>1479.3</ele>
        <time>2019-06-16T16:53:27.821Z</time>
      </trkpt>
      <trkpt lat="42.96797" lon="-0.33602">
        <ele>1479.3</ele>
        <time>2019-06-16T16:53:27.822Z</time>
      </trkpt>
      <trkpt lat="42.96801" lon="-0.33613">
        <ele>1478.7</ele>
        <time>2019-06-16T16:53:27.966Z</time>
      </trkpt>
      <trkpt lat="42.96801" lon="-0.33613">
        <ele>1478.7</ele>
        <time>2019-06-16T16:53:27.967Z</time>
      </trkpt>
      <trkpt lat="42.96806" lon="-0.33623">
        <ele>1478</ele>
        <time>2019-06-16T16:53:28.109Z</time>
      </trkpt>
      <trkpt lat="42.96806" lon="-0.33623">
        <ele>1478</ele>
        <time>2019-06-16T16:53:28.110Z</time>
      </trkpt>
      <trkpt lat="42.96813" lon="-0.33631">
        <ele>1478.6</ele>
        <time>2019-06-16T16:53:28.256Z</time>
      </trkpt>
      <trkpt lat="42.96813" lon="-0.33631">
        <ele>1478.6</ele>
        <time>2019-06-16T16:53:28.256Z</time>
      </trkpt>
      <trkpt lat="42.9683" lon="-0.33646">
        <ele>1479.9</ele>
        <time>2019-06-16T16:53:28.580Z</time>
      </trkpt>
      <trkpt lat="42.9683" lon="-0.33646">
        <ele>1479.9</ele>
        <time>2019-06-16T16:53:28.580Z</time>
      </trkpt>
      <trkpt lat="42.96846" lon="-0.33654">
        <ele>1482.2</ele>
        <time>2019-06-16T16:53:28.853Z</time>
      </trkpt>
      <trkpt lat="42.96846" lon="-0.33654">
        <ele>1482.2</ele>
        <time>2019-06-16T16:53:28.853Z</time>
      </trkpt>
      <trkpt lat="42.96862" lon="-0.33655">
        <ele>1487.6</ele>
        <time>2019-06-16T16:53:29.110Z</time>
      </trkpt>
      <trkpt lat="42.96862" lon="-0.33655">
        <ele>1487.6</ele>
        <time>2019-06-16T16:53:29.110Z</time>
      </trkpt>
      <trkpt lat="42.9688" lon="-0.33661">
        <ele>1490.7</ele>
        <time>2019-06-16T16:53:29.407Z</time>
      </trkpt>
      <trkpt lat="42.9688" lon="-0.33661">
        <ele>1490.7</ele>
        <time>2019-06-16T16:53:29.407Z</time>
      </trkpt>
      <trkpt lat="42.96888" lon="-0.3367">
        <ele>1490.2</ele>
        <time>2019-06-16T16:53:29.573Z</time>
      </trkpt>
      <trkpt lat="42.96888" lon="-0.3367">
        <ele>1490.2</ele>
        <time>2019-06-16T16:53:29.573Z</time>
      </trkpt>
      <trkpt lat="42.96891" lon="-0.3368">
        <ele>1490.3</ele>
        <time>2019-06-16T16:53:29.700Z</time>
      </trkpt>
      <trkpt lat="42.96891" lon="-0.3368">
        <ele>1490.3</ele>
        <time>2019-06-16T16:53:29.700Z</time>
      </trkpt>
      <trkpt lat="42.96888" lon="-0.33697">
        <ele>1487.1</ele>
        <time>2019-06-16T16:53:29.905Z</time>
      </trkpt>
      <trkpt lat="42.96888" lon="-0.33697">
        <ele>1487.1</ele>
        <time>2019-06-16T16:53:29.905Z</time>
      </trkpt>
      <trkpt lat="42.96885" lon="-0.33709">
        <ele>1488.2</ele>
        <time>2019-06-16T16:53:30.054Z</time>
      </trkpt>
      <trkpt lat="42.96885" lon="-0.33709">
        <ele>1488.2</ele>
        <time>2019-06-16T16:53:30.054Z</time>
      </trkpt>
      <trkpt lat="42.96884" lon="-0.33716">
        <ele>1489.3</ele>
        <time>2019-06-16T16:53:30.138Z</time>
      </trkpt>
      <trkpt lat="42.96884" lon="-0.33716">
        <ele>1489.3</ele>
        <time>2019-06-16T16:53:30.138Z</time>
      </trkpt>
      <trkpt lat="42.96892" lon="-0.33737">
        <ele>1494.3</ele>
        <time>2019-06-16T16:53:30.416Z</time>
      </trkpt>
      <trkpt lat="42.96892" lon="-0.33737">
        <ele>1494.3</ele>
        <time>2019-06-16T16:53:30.416Z</time>
      </trkpt>
      <trkpt lat="42.96892" lon="-0.33755">
        <ele>1493.8</ele>
        <time>2019-06-16T16:53:30.627Z</time>
      </trkpt>
      <trkpt lat="42.96892" lon="-0.33755">
        <ele>1493.8</ele>
        <time>2019-06-16T16:53:30.627Z</time>
      </trkpt>
      <trkpt lat="42.96885" lon="-0.33795">
        <ele>1497.2</ele>
        <time>2019-06-16T16:53:31.109Z</time>
      </trkpt>
      <trkpt lat="42.96885" lon="-0.33795">
        <ele>1497.2</ele>
        <time>2019-06-16T16:53:31.109Z</time>
      </trkpt>
      <trkpt lat="42.96886" lon="-0.3381">
        <ele>1499.4</ele>
        <time>2019-06-16T16:53:31.286Z</time>
      </trkpt>
      <trkpt lat="42.96886" lon="-0.3381">
        <ele>1499.4</ele>
        <time>2019-06-16T16:53:31.286Z</time>
      </trkpt>
      <trkpt lat="42.96893" lon="-0.33848">
        <ele>1504.1</ele>
        <time>2019-06-16T16:53:31.746Z</time>
      </trkpt>
      <trkpt lat="42.96893" lon="-0.33848">
        <ele>1504.1</ele>
        <time>2019-06-16T16:53:31.746Z</time>
      </trkpt>
      <trkpt lat="42.96902" lon="-0.33891">
        <ele>1508.8</ele>
        <time>2019-06-16T16:53:32.271Z</time>
      </trkpt>
      <trkpt lat="42.96902" lon="-0.33891">
        <ele>1508.8</ele>
        <time>2019-06-16T16:53:32.271Z</time>
      </trkpt>
      <trkpt lat="42.96903" lon="-0.33916">
        <ele>1509.2</ele>
        <time>2019-06-16T16:53:32.565Z</time>
      </trkpt>
      <trkpt lat="42.96903" lon="-0.33916">
        <ele>1509.2</ele>
        <time>2019-06-16T16:53:32.565Z</time>
      </trkpt>
      <trkpt lat="42.96913" lon="-0.3396">
        <ele>1513</ele>
        <time>2019-06-16T16:53:33.105Z</time>
      </trkpt>
      <trkpt lat="42.96913" lon="-0.3396">
        <ele>1513</ele>
        <time>2019-06-16T16:53:33.105Z</time>
      </trkpt>
      <trkpt lat="42.96929" lon="-0.34022">
        <ele>1517</ele>
        <time>2019-06-16T16:53:33.876Z</time>
      </trkpt>
      <trkpt lat="42.96929" lon="-0.34022">
        <ele>1517</ele>
        <time>2019-06-16T16:53:33.876Z</time>
      </trkpt>
      <trkpt lat="42.96935" lon="-0.34038">
        <ele>1518.2</ele>
        <time>2019-06-16T16:53:34.087Z</time>
      </trkpt>
      <trkpt lat="42.96935" lon="-0.34038">
        <ele>1518.2</ele>
        <time>2019-06-16T16:53:34.087Z</time>
      </trkpt>
      <trkpt lat="42.96942" lon="-0.34048">
        <ele>1520.5</ele>
        <time>2019-06-16T16:53:34.249Z</time>
      </trkpt>
      <trkpt lat="42.96942" lon="-0.34048">
        <ele>1520.5</ele>
        <time>2019-06-16T16:53:34.249Z</time>
      </trkpt>
      <trkpt lat="42.96947" lon="-0.34062">
        <ele>1522.1</ele>
        <time>2019-06-16T16:53:34.432Z</time>
      </trkpt>
      <trkpt lat="42.96947" lon="-0.34062">
        <ele>1522.1</ele>
        <time>2019-06-16T16:53:34.432Z</time>
      </trkpt>
      <trkpt lat="42.96947" lon="-0.34074">
        <ele>1522.9</ele>
        <time>2019-06-16T16:53:34.573Z</time>
      </trkpt>
      <trkpt lat="42.96947" lon="-0.34074">
        <ele>1522.9</ele>
        <time>2019-06-16T16:53:34.573Z</time>
      </trkpt>
      <trkpt lat="42.96929" lon="-0.34116">
        <ele>1522.3</ele>
        <time>2019-06-16T16:53:35.144Z</time>
      </trkpt>
      <trkpt lat="42.96929" lon="-0.34116">
        <ele>1522.3</ele>
        <time>2019-06-16T16:53:35.144Z</time>
      </trkpt>
      <trkpt lat="42.96927" lon="-0.34131">
        <ele>1523.2</ele>
        <time>2019-06-16T16:53:35.323Z</time>
      </trkpt>
      <trkpt lat="42.96927" lon="-0.34131">
        <ele>1523.2</ele>
        <time>2019-06-16T16:53:35.323Z</time>
      </trkpt>
      <trkpt lat="42.96932" lon="-0.34146">
        <ele>1526.2</ele>
        <time>2019-06-16T16:53:35.516Z</time>
      </trkpt>
      <trkpt lat="42.96932" lon="-0.34146">
        <ele>1526.2</ele>
        <time>2019-06-16T16:53:35.516Z</time>
      </trkpt>
      <trkpt lat="42.96943" lon="-0.34167">
        <ele>1530</ele>
        <time>2019-06-16T16:53:35.819Z</time>
      </trkpt>
      <trkpt lat="42.96943" lon="-0.34167">
        <ele>1530</ele>
        <time>2019-06-16T16:53:35.819Z</time>
      </trkpt>
      <trkpt lat="42.9696" lon="-0.342">
        <ele>1533.8</ele>
        <time>2019-06-16T16:53:36.292Z</time>
      </trkpt>
      <trkpt lat="42.9696" lon="-0.342">
        <ele>1533.8</ele>
        <time>2019-06-16T16:53:36.292Z</time>
      </trkpt>
      <trkpt lat="42.96971" lon="-0.34224">
        <ele>1535.7</ele>
        <time>2019-06-16T16:53:36.624Z</time>
      </trkpt>
      <trkpt lat="42.96971" lon="-0.34224">
        <ele>1535.7</ele>
        <time>2019-06-16T16:53:36.624Z</time>
      </trkpt>
      <trkpt lat="42.9699" lon="-0.34274">
        <ele>1539.7</ele>
        <time>2019-06-16T16:53:37.285Z</time>
      </trkpt>
      <trkpt lat="42.9699" lon="-0.34274">
        <ele>1539.7</ele>
        <time>2019-06-16T16:53:37.285Z</time>
      </trkpt>
      <trkpt lat="42.96991" lon="-0.34295">
        <ele>1540.4</ele>
        <time>2019-06-16T16:53:37.532Z</time>
      </trkpt>
      <trkpt lat="42.96991" lon="-0.34295">
        <ele>1540.4</ele>
        <time>2019-06-16T16:53:37.532Z</time>
      </trkpt>
      <trkpt lat="42.96985" lon="-0.34349">
        <ele>1541.6</ele>
        <time>2019-06-16T16:53:38.173Z</time>
      </trkpt>
      <trkpt lat="42.96985" lon="-0.34349">
        <ele>1541.6</ele>
        <time>2019-06-16T16:53:38.175Z</time>
      </trkpt>
      <trkpt lat="42.96986" lon="-0.34363">
        <ele>1542.5</ele>
        <time>2019-06-16T16:53:38.340Z</time>
      </trkpt>
      <trkpt lat="42.96986" lon="-0.34363">
        <ele>1542.5</ele>
        <time>2019-06-16T16:53:38.340Z</time>
      </trkpt>
      <trkpt lat="42.96989" lon="-0.3437">
        <ele>1542.8</ele>
        <time>2019-06-16T16:53:38.435Z</time>
      </trkpt>
      <trkpt lat="42.96989" lon="-0.3437">
        <ele>1542.8</ele>
        <time>2019-06-16T16:53:38.435Z</time>
      </trkpt>
      <trkpt lat="42.96998" lon="-0.3438">
        <ele>1545.5</ele>
        <time>2019-06-16T16:53:38.621Z</time>
      </trkpt>
      <trkpt lat="42.96998" lon="-0.3438">
        <ele>1545.5</ele>
        <time>2019-06-16T16:53:38.621Z</time>
      </trkpt>
      <trkpt lat="42.97016" lon="-0.34395">
        <ele>1549</ele>
        <time>2019-06-16T16:53:38.959Z</time>
      </trkpt>
      <trkpt lat="42.97016" lon="-0.34395">
        <ele>1549</ele>
        <time>2019-06-16T16:53:38.959Z</time>
      </trkpt>
      <trkpt lat="42.9703" lon="-0.34411">
        <ele>1550.6</ele>
        <time>2019-06-16T16:53:39.252Z</time>
      </trkpt>
      <trkpt lat="42.9703" lon="-0.34411">
        <ele>1550.6</ele>
        <time>2019-06-16T16:53:39.252Z</time>
      </trkpt>
      <trkpt lat="42.97047" lon="-0.34445">
        <ele>1554</ele>
        <time>2019-06-16T16:53:39.735Z</time>
      </trkpt>
      <trkpt lat="42.97047" lon="-0.34445">
        <ele>1554</ele>
        <time>2019-06-16T16:53:39.735Z</time>
      </trkpt>
      <trkpt lat="42.97068" lon="-0.34487">
        <ele>1557.3</ele>
        <time>2019-06-16T16:53:40.332Z</time>
      </trkpt>
      <trkpt lat="42.97068" lon="-0.34487">
        <ele>1557.3</ele>
        <time>2019-06-16T16:53:40.332Z</time>
      </trkpt>
      <trkpt lat="42.97078" lon="-0.34516">
        <ele>1557.4</ele>
        <time>2019-06-16T16:53:40.708Z</time>
      </trkpt>
      <trkpt lat="42.97078" lon="-0.34516">
        <ele>1557.4</ele>
        <time>2019-06-16T16:53:40.708Z</time>
      </trkpt>
      <trkpt lat="42.97081" lon="-0.34524">
        <ele>1557.4</ele>
        <time>2019-06-16T16:53:40.813Z</time>
      </trkpt>
      <trkpt lat="42.97081" lon="-0.34524">
        <ele>1557.4</ele>
        <time>2019-06-16T16:53:40.814Z</time>
      </trkpt>
      <trkpt lat="42.9709" lon="-0.34536">
        <ele>1558.7</ele>
        <time>2019-06-16T16:53:41.016Z</time>
      </trkpt>
      <trkpt lat="42.9709" lon="-0.34536">
        <ele>1558.7</ele>
        <time>2019-06-16T16:53:41.016Z</time>
      </trkpt>
      <trkpt lat="42.97106" lon="-0.34549">
        <ele>1561.2</ele>
        <time>2019-06-16T16:53:41.314Z</time>
      </trkpt>
      <trkpt lat="42.97106" lon="-0.34549">
        <ele>1561.2</ele>
        <time>2019-06-16T16:53:41.314Z</time>
      </trkpt>
      <trkpt lat="42.9713" lon="-0.34564">
        <ele>1565.6</ele>
        <time>2019-06-16T16:53:41.737Z</time>
      </trkpt>
      <trkpt lat="42.9713" lon="-0.34564">
        <ele>1565.6</ele>
        <time>2019-06-16T16:53:41.737Z</time>
      </trkpt>
      <trkpt lat="42.97143" lon="-0.34573">
        <ele>1568</ele>
        <time>2019-06-16T16:53:41.971Z</time>
      </trkpt>
      <trkpt lat="42.97143" lon="-0.34573">
        <ele>1568</ele>
        <time>2019-06-16T16:53:41.971Z</time>
      </trkpt>
      <trkpt lat="42.97149" lon="-0.34588">
        <ele>1566</ele>
        <time>2019-06-16T16:53:42.172Z</time>
      </trkpt>
      <trkpt lat="42.97149" lon="-0.34588">
        <ele>1566</ele>
        <time>2019-06-16T16:53:42.172Z</time>
      </trkpt>
      <trkpt lat="42.97158" lon="-0.34626">
        <ele>1562.8</ele>
        <time>2019-06-16T16:53:42.641Z</time>
      </trkpt>
      <trkpt lat="42.97158" lon="-0.34626">
        <ele>1562.8</ele>
        <time>2019-06-16T16:53:42.641Z</time>
      </trkpt>
      <trkpt lat="42.97159" lon="-0.34649">
        <ele>1560.3</ele>
        <time>2019-06-16T16:53:42.911Z</time>
      </trkpt>
      <trkpt lat="42.97159" lon="-0.34649">
        <ele>1560.3</ele>
        <time>2019-06-16T16:53:42.911Z</time>
      </trkpt>
      <trkpt lat="42.97162" lon="-0.34672">
        <ele>1559.4</ele>
        <time>2019-06-16T16:53:43.185Z</time>
      </trkpt>
      <trkpt lat="42.97162" lon="-0.34672">
        <ele>1559.4</ele>
        <time>2019-06-16T16:53:43.185Z</time>
      </trkpt>
      <trkpt lat="42.97166" lon="-0.34679">
        <ele>1560.8</ele>
        <time>2019-06-16T16:53:43.289Z</time>
      </trkpt>
      <trkpt lat="42.97166" lon="-0.34679">
        <ele>1560.8</ele>
        <time>2019-06-16T16:53:43.289Z</time>
      </trkpt>
      <trkpt lat="42.97169" lon="-0.34682">
        <ele>1560.6</ele>
        <time>2019-06-16T16:53:43.349Z</time>
      </trkpt>
      <trkpt lat="42.97169" lon="-0.34682">
        <ele>1560.6</ele>
        <time>2019-06-16T16:53:43.349Z</time>
      </trkpt>
      <trkpt lat="42.97177" lon="-0.34683">
        <ele>1559.3</ele>
        <time>2019-06-16T16:53:43.478Z</time>
      </trkpt>
      <trkpt lat="42.97177" lon="-0.34683">
        <ele>1559.3</ele>
        <time>2019-06-16T16:53:43.478Z</time>
      </trkpt>
      <trkpt lat="42.97181" lon="-0.34678">
        <ele>1559.2</ele>
        <time>2019-06-16T16:53:43.565Z</time>
      </trkpt>
      <trkpt lat="42.97181" lon="-0.34678">
        <ele>1559.2</ele>
        <time>2019-06-16T16:53:43.565Z</time>
      </trkpt>
      <trkpt lat="42.97184" lon="-0.34652">
        <ele>1562</ele>
        <time>2019-06-16T16:53:43.874Z</time>
      </trkpt>
      <trkpt lat="42.97184" lon="-0.34652">
        <ele>1562</ele>
        <time>2019-06-16T16:53:43.874Z</time>
      </trkpt>
      <trkpt lat="42.97184" lon="-0.34612">
        <ele>1568.8</ele>
        <time>2019-06-16T16:53:44.343Z</time>
      </trkpt>
      <trkpt lat="42.97184" lon="-0.34612">
        <ele>1568.8</ele>
        <time>2019-06-16T16:53:44.343Z</time>
      </trkpt>
      <trkpt lat="42.97186" lon="-0.34602">
        <ele>1571.1</ele>
        <time>2019-06-16T16:53:44.465Z</time>
      </trkpt>
      <trkpt lat="42.97186" lon="-0.34602">
        <ele>1571.1</ele>
        <time>2019-06-16T16:53:44.465Z</time>
      </trkpt>
      <trkpt lat="42.9719" lon="-0.34589">
        <ele>1574.3</ele>
        <time>2019-06-16T16:53:44.630Z</time>
      </trkpt>
      <trkpt lat="42.9719" lon="-0.34589">
        <ele>1574.3</ele>
        <time>2019-06-16T16:53:44.630Z</time>
      </trkpt>
      <trkpt lat="42.97197" lon="-0.34582">
        <ele>1576.7</ele>
        <time>2019-06-16T16:53:44.769Z</time>
      </trkpt>
      <trkpt lat="42.97197" lon="-0.34582">
        <ele>1576.7</ele>
        <time>2019-06-16T16:53:44.769Z</time>
      </trkpt>
      <trkpt lat="42.97205" lon="-0.3458">
        <ele>1577.9</ele>
        <time>2019-06-16T16:53:44.899Z</time>
      </trkpt>
      <trkpt lat="42.97205" lon="-0.3458">
        <ele>1577.9</ele>
        <time>2019-06-16T16:53:44.900Z</time>
      </trkpt>
      <trkpt lat="42.97223" lon="-0.34578">
        <ele>1579.7</ele>
        <time>2019-06-16T16:53:45.190Z</time>
      </trkpt>
      <trkpt lat="42.97223" lon="-0.34578">
        <ele>1579.7</ele>
        <time>2019-06-16T16:53:45.191Z</time>
      </trkpt>
      <trkpt lat="42.97242" lon="-0.34578">
        <ele>1583.3</ele>
        <time>2019-06-16T16:53:45.496Z</time>
      </trkpt>
      <trkpt lat="42.97242" lon="-0.34578">
        <ele>1583.3</ele>
        <time>2019-06-16T16:53:45.496Z</time>
      </trkpt>
      <trkpt lat="42.97247" lon="-0.3458">
        <ele>1583.9</ele>
        <time>2019-06-16T16:53:45.580Z</time>
      </trkpt>
      <trkpt lat="42.97247" lon="-0.3458">
        <ele>1583.9</ele>
        <time>2019-06-16T16:53:45.580Z</time>
      </trkpt>
      <trkpt lat="42.97252" lon="-0.34584">
        <ele>1584.7</ele>
        <time>2019-06-16T16:53:45.673Z</time>
      </trkpt>
      <trkpt lat="42.97252" lon="-0.34584">
        <ele>1584.7</ele>
        <time>2019-06-16T16:53:45.673Z</time>
      </trkpt>
      <trkpt lat="42.97261" lon="-0.34597">
        <ele>1585.8</ele>
        <time>2019-06-16T16:53:45.883Z</time>
      </trkpt>
      <trkpt lat="42.97261" lon="-0.34597">
        <ele>1585.8</ele>
        <time>2019-06-16T16:53:45.883Z</time>
      </trkpt>
      <trkpt lat="42.97265" lon="-0.34618">
        <ele>1584.1</ele>
        <time>2019-06-16T16:53:46.138Z</time>
      </trkpt>
      <trkpt lat="42.97265" lon="-0.34618">
        <ele>1584.1</ele>
        <time>2019-06-16T16:53:46.138Z</time>
      </trkpt>
      <trkpt lat="42.97269" lon="-0.34634">
        <ele>1583.9</ele>
        <time>2019-06-16T16:53:46.336Z</time>
      </trkpt>
      <trkpt lat="42.97269" lon="-0.34634">
        <ele>1583.9</ele>
        <time>2019-06-16T16:53:46.336Z</time>
      </trkpt>
      <trkpt lat="42.97271" lon="-0.34637">
        <ele>1584.3</ele>
        <time>2019-06-16T16:53:46.384Z</time>
      </trkpt>
      <trkpt lat="42.97271" lon="-0.34637">
        <ele>1584.3</ele>
        <time>2019-06-16T16:53:46.384Z</time>
      </trkpt>
      <trkpt lat="42.97275" lon="-0.34641">
        <ele>1585.5</ele>
        <time>2019-06-16T16:53:46.463Z</time>
      </trkpt>
      <trkpt lat="42.97275" lon="-0.34641">
        <ele>1585.5</ele>
        <time>2019-06-16T16:53:46.464Z</time>
      </trkpt>
      <trkpt lat="42.97286" lon="-0.34645">
        <ele>1587.5</ele>
        <time>2019-06-16T16:53:46.646Z</time>
      </trkpt>
      <trkpt lat="42.97286" lon="-0.34645">
        <ele>1587.5</ele>
        <time>2019-06-16T16:53:46.646Z</time>
      </trkpt>
      <trkpt lat="42.97314" lon="-0.3465">
        <ele>1591.1</ele>
        <time>2019-06-16T16:53:47.099Z</time>
      </trkpt>
      <trkpt lat="42.97314" lon="-0.3465">
        <ele>1591.1</ele>
        <time>2019-06-16T16:53:47.099Z</time>
      </trkpt>
      <trkpt lat="42.97332" lon="-0.34652">
        <ele>1593.9</ele>
        <time>2019-06-16T16:53:47.389Z</time>
      </trkpt>
      <trkpt lat="42.97332" lon="-0.34652">
        <ele>1593.9</ele>
        <time>2019-06-16T16:53:47.389Z</time>
      </trkpt>
      <trkpt lat="42.97348" lon="-0.3465">
        <ele>1593.8</ele>
        <time>2019-06-16T16:53:47.647Z</time>
      </trkpt>
      <trkpt lat="42.97348" lon="-0.3465">
        <ele>1593.8</ele>
        <time>2019-06-16T16:53:47.647Z</time>
      </trkpt>
      <trkpt lat="42.97358" lon="-0.34644">
        <ele>1594.3</ele>
        <time>2019-06-16T16:53:47.822Z</time>
      </trkpt>
      <trkpt lat="42.97358" lon="-0.34644">
        <ele>1594.3</ele>
        <time>2019-06-16T16:53:47.822Z</time>
      </trkpt>
      <trkpt lat="42.97364" lon="-0.34636">
        <ele>1595.1</ele>
        <time>2019-06-16T16:53:47.956Z</time>
      </trkpt>
      <trkpt lat="42.97364" lon="-0.34636">
        <ele>1595.1</ele>
        <time>2019-06-16T16:53:47.956Z</time>
      </trkpt>
      <trkpt lat="42.97367" lon="-0.34625">
        <ele>1596.2</ele>
        <time>2019-06-16T16:53:48.094Z</time>
      </trkpt>
      <trkpt lat="42.97367" lon="-0.34625">
        <ele>1596.2</ele>
        <time>2019-06-16T16:53:48.094Z</time>
      </trkpt>
      <trkpt lat="42.97367" lon="-0.34609">
        <ele>1598.2</ele>
        <time>2019-06-16T16:53:48.282Z</time>
      </trkpt>
      <trkpt lat="42.97367" lon="-0.34609">
        <ele>1598.2</ele>
        <time>2019-06-16T16:53:48.282Z</time>
      </trkpt>
      <trkpt lat="42.97364" lon="-0.34587">
        <ele>1601.4</ele>
        <time>2019-06-16T16:53:48.544Z</time>
      </trkpt>
      <trkpt lat="42.97364" lon="-0.34587">
        <ele>1601.4</ele>
        <time>2019-06-16T16:53:48.544Z</time>
      </trkpt>
      <trkpt lat="42.97363" lon="-0.3456">
        <ele>1603.7</ele>
        <time>2019-06-16T16:53:48.861Z</time>
      </trkpt>
      <trkpt lat="42.97363" lon="-0.3456">
        <ele>1603.7</ele>
        <time>2019-06-16T16:53:48.861Z</time>
      </trkpt>
      <trkpt lat="42.97365" lon="-0.34548">
        <ele>1604.7</ele>
        <time>2019-06-16T16:53:49.005Z</time>
      </trkpt>
      <trkpt lat="42.97365" lon="-0.34548">
        <ele>1604.7</ele>
        <time>2019-06-16T16:53:49.005Z</time>
      </trkpt>
      <trkpt lat="42.9737" lon="-0.34539">
        <ele>1605.5</ele>
        <time>2019-06-16T16:53:49.138Z</time>
      </trkpt>
      <trkpt lat="42.9737" lon="-0.34539">
        <ele>1605.5</ele>
        <time>2019-06-16T16:53:49.138Z</time>
      </trkpt>
      <trkpt lat="42.9738" lon="-0.34531">
        <ele>1606.4</ele>
        <time>2019-06-16T16:53:49.324Z</time>
      </trkpt>
      <trkpt lat="42.9738" lon="-0.34531">
        <ele>1606.4</ele>
        <time>2019-06-16T16:53:49.324Z</time>
      </trkpt>
      <trkpt lat="42.97393" lon="-0.34528">
        <ele>1606.8</ele>
        <time>2019-06-16T16:53:49.535Z</time>
      </trkpt>
      <trkpt lat="42.97393" lon="-0.34528">
        <ele>1606.8</ele>
        <time>2019-06-16T16:53:49.535Z</time>
      </trkpt>
      <trkpt lat="42.97407" lon="-0.34517">
        <ele>1607.6</ele>
        <time>2019-06-16T16:53:49.794Z</time>
      </trkpt>
      <trkpt lat="42.97407" lon="-0.34517">
        <ele>1607.6</ele>
        <time>2019-06-16T16:53:49.794Z</time>
      </trkpt>
      <trkpt lat="42.97413" lon="-0.34508">
        <ele>1608.8</ele>
        <time>2019-06-16T16:53:49.937Z</time>
      </trkpt>
      <trkpt lat="42.97413" lon="-0.34508">
        <ele>1608.8</ele>
        <time>2019-06-16T16:53:49.937Z</time>
      </trkpt>
      <trkpt lat="42.97419" lon="-0.34486">
        <ele>1611.4</ele>
        <time>2019-06-16T16:53:50.212Z</time>
      </trkpt>
      <trkpt lat="42.97419" lon="-0.34486">
        <ele>1611.4</ele>
        <time>2019-06-16T16:53:50.212Z</time>
      </trkpt>
      <trkpt lat="42.97423" lon="-0.34473">
        <ele>1612.5</ele>
        <time>2019-06-16T16:53:50.377Z</time>
      </trkpt>
      <trkpt lat="42.97423" lon="-0.34473">
        <ele>1612.5</ele>
        <time>2019-06-16T16:53:50.377Z</time>
      </trkpt>
      <trkpt lat="42.97429" lon="-0.34458">
        <ele>1614.2</ele>
        <time>2019-06-16T16:53:50.578Z</time>
      </trkpt>
      <trkpt lat="42.97429" lon="-0.34458">
        <ele>1614.2</ele>
        <time>2019-06-16T16:53:50.578Z</time>
      </trkpt>
      <trkpt lat="42.97439" lon="-0.34447">
        <ele>1615</ele>
        <time>2019-06-16T16:53:50.784Z</time>
      </trkpt>
      <trkpt lat="42.97439" lon="-0.34447">
        <ele>1615</ele>
        <time>2019-06-16T16:53:50.784Z</time>
      </trkpt>
      <trkpt lat="42.97449" lon="-0.3444">
        <ele>1615.6</ele>
        <time>2019-06-16T16:53:50.964Z</time>
      </trkpt>
      <trkpt lat="42.97449" lon="-0.3444">
        <ele>1615.6</ele>
        <time>2019-06-16T16:53:50.964Z</time>
      </trkpt>
      <trkpt lat="42.97466" lon="-0.34442">
        <ele>1616.7</ele>
        <time>2019-06-16T16:53:51.238Z</time>
      </trkpt>
      <trkpt lat="42.97466" lon="-0.34442">
        <ele>1616.7</ele>
        <time>2019-06-16T16:53:51.238Z</time>
      </trkpt>
      <trkpt lat="42.97474" lon="-0.34445">
        <ele>1617.3</ele>
        <time>2019-06-16T16:53:51.371Z</time>
      </trkpt>
      <trkpt lat="42.97474" lon="-0.34445">
        <ele>1617.3</ele>
        <time>2019-06-16T16:53:51.371Z</time>
      </trkpt>
      <trkpt lat="42.97494" lon="-0.34458">
        <ele>1620.1</ele>
        <time>2019-06-16T16:53:51.726Z</time>
      </trkpt>
      <trkpt lat="42.97494" lon="-0.34458">
        <ele>1620.1</ele>
        <time>2019-06-16T16:53:51.727Z</time>
      </trkpt>
      <trkpt lat="42.97504" lon="-0.34467">
        <ele>1621.9</ele>
        <time>2019-06-16T16:53:51.919Z</time>
      </trkpt>
      <trkpt lat="42.97504" lon="-0.34467">
        <ele>1621.9</ele>
        <time>2019-06-16T16:53:51.919Z</time>
      </trkpt>
      <trkpt lat="42.97513" lon="-0.34477">
        <ele>1623.6</ele>
        <time>2019-06-16T16:53:52.105Z</time>
      </trkpt>
      <trkpt lat="42.97513" lon="-0.34477">
        <ele>1623.6</ele>
        <time>2019-06-16T16:53:52.105Z</time>
      </trkpt>
      <trkpt lat="42.97522" lon="-0.34489">
        <ele>1624.7</ele>
        <time>2019-06-16T16:53:52.307Z</time>
      </trkpt>
      <trkpt lat="42.97522" lon="-0.34489">
        <ele>1624.7</ele>
        <time>2019-06-16T16:53:52.307Z</time>
      </trkpt>
      <trkpt lat="42.97538" lon="-0.34519">
        <ele>1625.6</ele>
        <time>2019-06-16T16:53:52.742Z</time>
      </trkpt>
      <trkpt lat="42.97538" lon="-0.34519">
        <ele>1625.6</ele>
        <time>2019-06-16T16:53:52.742Z</time>
      </trkpt>
      <trkpt lat="42.97546" lon="-0.34526">
        <ele>1626.4</ele>
        <time>2019-06-16T16:53:52.894Z</time>
      </trkpt>
      <trkpt lat="42.97546" lon="-0.34526">
        <ele>1626.4</ele>
        <time>2019-06-16T16:53:52.895Z</time>
      </trkpt>
      <trkpt lat="42.97558" lon="-0.3453">
        <ele>1627.8</ele>
        <time>2019-06-16T16:53:53.093Z</time>
      </trkpt>
      <trkpt lat="42.97558" lon="-0.3453">
        <ele>1627.8</ele>
        <time>2019-06-16T16:53:53.093Z</time>
      </trkpt>
      <trkpt lat="42.97567" lon="-0.3453">
        <ele>1628.1</ele>
        <time>2019-06-16T16:53:53.237Z</time>
      </trkpt>
      <trkpt lat="42.97567" lon="-0.3453">
        <ele>1628.1</ele>
        <time>2019-06-16T16:53:53.237Z</time>
      </trkpt>
      <trkpt lat="42.97582" lon="-0.34522">
        <ele>1629.8</ele>
        <time>2019-06-16T16:53:53.495Z</time>
      </trkpt>
      <trkpt lat="42.97582" lon="-0.34522">
        <ele>1629.8</ele>
        <time>2019-06-16T16:53:53.495Z</time>
      </trkpt>
      <trkpt lat="42.97593" lon="-0.34505">
        <ele>1631.6</ele>
        <time>2019-06-16T16:53:53.761Z</time>
      </trkpt>
      <trkpt lat="42.97593" lon="-0.34505">
        <ele>1631.6</ele>
        <time>2019-06-16T16:53:53.761Z</time>
      </trkpt>
      <trkpt lat="42.97601" lon="-0.34491">
        <ele>1633.6</ele>
        <time>2019-06-16T16:53:53.969Z</time>
      </trkpt>
      <trkpt lat="42.97601" lon="-0.34491">
        <ele>1633.6</ele>
        <time>2019-06-16T16:53:53.970Z</time>
      </trkpt>
      <trkpt lat="42.97605" lon="-0.34485">
        <ele>1634.9</ele>
        <time>2019-06-16T16:53:54.065Z</time>
      </trkpt>
      <trkpt lat="42.97605" lon="-0.34485">
        <ele>1634.9</ele>
        <time>2019-06-16T16:53:54.065Z</time>
      </trkpt>
      <trkpt lat="42.97611" lon="-0.34482">
        <ele>1635.5</ele>
        <time>2019-06-16T16:53:54.167Z</time>
      </trkpt>
      <trkpt lat="42.97611" lon="-0.34482">
        <ele>1635.5</ele>
        <time>2019-06-16T16:53:54.167Z</time>
      </trkpt>
      <trkpt lat="42.97621" lon="-0.34482">
        <ele>1637.6</ele>
        <time>2019-06-16T16:53:54.327Z</time>
      </trkpt>
      <trkpt lat="42.97621" lon="-0.34482">
        <ele>1637.6</ele>
        <time>2019-06-16T16:53:54.327Z</time>
      </trkpt>
      <trkpt lat="42.97626" lon="-0.34486">
        <ele>1637.7</ele>
        <time>2019-06-16T16:53:54.420Z</time>
      </trkpt>
      <trkpt lat="42.97626" lon="-0.34486">
        <ele>1637.7</ele>
        <time>2019-06-16T16:53:54.420Z</time>
      </trkpt>
      <trkpt lat="42.9764" lon="-0.34503">
        <ele>1637.9</ele>
        <time>2019-06-16T16:53:54.720Z</time>
      </trkpt>
      <trkpt lat="42.9764" lon="-0.34503">
        <ele>1637.9</ele>
        <time>2019-06-16T16:53:54.720Z</time>
      </trkpt>
      <trkpt lat="42.97659" lon="-0.34521">
        <ele>1639.7</ele>
        <time>2019-06-16T16:53:55.091Z</time>
      </trkpt>
      <trkpt lat="42.97659" lon="-0.34521">
        <ele>1639.7</ele>
        <time>2019-06-16T16:53:55.091Z</time>
      </trkpt>
      <trkpt lat="42.97675" lon="-0.34529">
        <ele>1640.9</ele>
        <time>2019-06-16T16:53:55.364Z</time>
      </trkpt>
      <trkpt lat="42.97675" lon="-0.34529">
        <ele>1640.9</ele>
        <time>2019-06-16T16:53:55.364Z</time>
      </trkpt>
      <trkpt lat="42.97691" lon="-0.34532">
        <ele>1642.3</ele>
        <time>2019-06-16T16:53:55.623Z</time>
      </trkpt>
      <trkpt lat="42.97691" lon="-0.34532">
        <ele>1642.3</ele>
        <time>2019-06-16T16:53:55.623Z</time>
      </trkpt>
      <trkpt lat="42.97708" lon="-0.34527">
        <ele>1643.2</ele>
        <time>2019-06-16T16:53:55.902Z</time>
      </trkpt>
      <trkpt lat="42.97708" lon="-0.34527">
        <ele>1643.2</ele>
        <time>2019-06-16T16:53:55.903Z</time>
      </trkpt>
      <trkpt lat="42.97725" lon="-0.3451">
        <ele>1645.2</ele>
        <time>2019-06-16T16:53:56.241Z</time>
      </trkpt>
      <trkpt lat="42.97725" lon="-0.3451">
        <ele>1645.2</ele>
        <time>2019-06-16T16:53:56.241Z</time>
      </trkpt>
      <trkpt lat="42.97733" lon="-0.34494">
        <ele>1646.8</ele>
        <time>2019-06-16T16:53:56.468Z</time>
      </trkpt>
      <trkpt lat="42.97733" lon="-0.34494">
        <ele>1646.8</ele>
        <time>2019-06-16T16:53:56.468Z</time>
      </trkpt>
      <trkpt lat="42.97746" lon="-0.34464">
        <ele>1649.6</ele>
        <time>2019-06-16T16:53:56.877Z</time>
      </trkpt>
      <trkpt lat="42.97746" lon="-0.34464">
        <ele>1649.6</ele>
        <time>2019-06-16T16:53:56.878Z</time>
      </trkpt>
      <trkpt lat="42.97768" lon="-0.34433">
        <ele>1652.2</ele>
        <time>2019-06-16T16:53:57.385Z</time>
      </trkpt>
      <trkpt lat="42.97768" lon="-0.34433">
        <ele>1652.2</ele>
        <time>2019-06-16T16:53:57.385Z</time>
      </trkpt>
      <trkpt lat="42.97798" lon="-0.34372">
        <ele>1657</ele>
        <time>2019-06-16T16:53:58.247Z</time>
      </trkpt>
      <trkpt lat="42.97798" lon="-0.34372">
        <ele>1657</ele>
        <time>2019-06-16T16:53:58.247Z</time>
      </trkpt>
      <trkpt lat="42.97806" lon="-0.34356">
        <ele>1658</ele>
        <time>2019-06-16T16:53:58.474Z</time>
      </trkpt>
      <trkpt lat="42.97806" lon="-0.34356">
        <ele>1658</ele>
        <time>2019-06-16T16:53:58.474Z</time>
      </trkpt>
      <trkpt lat="42.9781" lon="-0.34339">
        <ele>1660.3</ele>
        <time>2019-06-16T16:53:58.683Z</time>
      </trkpt>
      <trkpt lat="42.9781" lon="-0.34339">
        <ele>1660.3</ele>
        <time>2019-06-16T16:53:58.683Z</time>
      </trkpt>
      <trkpt lat="42.97812" lon="-0.34327">
        <ele>1662.3</ele>
        <time>2019-06-16T16:53:58.827Z</time>
      </trkpt>
      <trkpt lat="42.97812" lon="-0.34327">
        <ele>1662.3</ele>
        <time>2019-06-16T16:53:58.827Z</time>
      </trkpt>
      <trkpt lat="42.97818" lon="-0.34311">
        <ele>1664.4</ele>
        <time>2019-06-16T16:53:59.038Z</time>
      </trkpt>
      <trkpt lat="42.97818" lon="-0.34311">
        <ele>1664.4</ele>
        <time>2019-06-16T16:53:59.038Z</time>
      </trkpt>
      <trkpt lat="42.97826" lon="-0.34303">
        <ele>1665.3</ele>
        <time>2019-06-16T16:53:59.197Z</time>
      </trkpt>
      <trkpt lat="42.97826" lon="-0.34303">
        <ele>1665.3</ele>
        <time>2019-06-16T16:53:59.197Z</time>
      </trkpt>
      <trkpt lat="42.97846" lon="-0.34297">
        <ele>1666.1</ele>
        <time>2019-06-16T16:53:59.525Z</time>
      </trkpt>
      <trkpt lat="42.97846" lon="-0.34297">
        <ele>1666.1</ele>
        <time>2019-06-16T16:53:59.525Z</time>
      </trkpt>
      <trkpt lat="42.97863" lon="-0.34301">
        <ele>1664.5</ele>
        <time>2019-06-16T16:53:59.802Z</time>
      </trkpt>
      <trkpt lat="42.97863" lon="-0.34301">
        <ele>1664.5</ele>
        <time>2019-06-16T16:53:59.802Z</time>
      </trkpt>
      <trkpt lat="42.97873" lon="-0.34306">
        <ele>1663.3</ele>
        <time>2019-06-16T16:53:59.973Z</time>
      </trkpt>
      <trkpt lat="42.97873" lon="-0.34306">
        <ele>1663.3</ele>
        <time>2019-06-16T16:53:59.973Z</time>
      </trkpt>
      <trkpt lat="42.9788" lon="-0.34308">
        <ele>1663.1</ele>
        <time>2019-06-16T16:54:00.088Z</time>
      </trkpt>
      <trkpt lat="42.9788" lon="-0.34308">
        <ele>1663.1</ele>
        <time>2019-06-16T16:54:00.088Z</time>
      </trkpt>
      <trkpt lat="42.97889" lon="-0.34306">
        <ele>1663.9</ele>
        <time>2019-06-16T16:54:00.234Z</time>
      </trkpt>
      <trkpt lat="42.97889" lon="-0.34306">
        <ele>1663.9</ele>
        <time>2019-06-16T16:54:00.234Z</time>
      </trkpt>
      <trkpt lat="42.97894" lon="-0.343">
        <ele>1665</ele>
        <time>2019-06-16T16:54:00.341Z</time>
      </trkpt>
      <trkpt lat="42.97894" lon="-0.343">
        <ele>1665</ele>
        <time>2019-06-16T16:54:00.341Z</time>
      </trkpt>
      <trkpt lat="42.97897" lon="-0.34291">
        <ele>1666.6</ele>
        <time>2019-06-16T16:54:00.457Z</time>
      </trkpt>
      <trkpt lat="42.97897" lon="-0.34291">
        <ele>1666.6</ele>
        <time>2019-06-16T16:54:00.457Z</time>
      </trkpt>
      <trkpt lat="42.97893" lon="-0.34279">
        <ele>1668.8</ele>
        <time>2019-06-16T16:54:00.612Z</time>
      </trkpt>
      <trkpt lat="42.97893" lon="-0.34279">
        <ele>1668.8</ele>
        <time>2019-06-16T16:54:00.612Z</time>
      </trkpt>
      <trkpt lat="42.97889" lon="-0.34276">
        <ele>1669.7</ele>
        <time>2019-06-16T16:54:00.685Z</time>
      </trkpt>
      <trkpt lat="42.97889" lon="-0.34276">
        <ele>1669.7</ele>
        <time>2019-06-16T16:54:00.685Z</time>
      </trkpt>
      <trkpt lat="42.97879" lon="-0.34275">
        <ele>1671.2</ele>
        <time>2019-06-16T16:54:00.846Z</time>
      </trkpt>
      <trkpt lat="42.97879" lon="-0.34275">
        <ele>1671.2</ele>
        <time>2019-06-16T16:54:00.846Z</time>
      </trkpt>
      <trkpt lat="42.97855" lon="-0.3428">
        <ele>1671.7</ele>
        <time>2019-06-16T16:54:01.235Z</time>
      </trkpt>
      <trkpt lat="42.97855" lon="-0.3428">
        <ele>1671.7</ele>
        <time>2019-06-16T16:54:01.235Z</time>
      </trkpt>
      <trkpt lat="42.9784" lon="-0.3428">
        <ele>1672.7</ele>
        <time>2019-06-16T16:54:01.475Z</time>
      </trkpt>
      <trkpt lat="42.9784" lon="-0.3428">
        <ele>1672.7</ele>
        <time>2019-06-16T16:54:01.475Z</time>
      </trkpt>
      <trkpt lat="42.97817" lon="-0.34278">
        <ele>1676.3</ele>
        <time>2019-06-16T16:54:01.844Z</time>
      </trkpt>
      <trkpt lat="42.97817" lon="-0.34278">
        <ele>1676.3</ele>
        <time>2019-06-16T16:54:01.844Z</time>
      </trkpt>
      <trkpt lat="42.97806" lon="-0.34283">
        <ele>1676.1</ele>
        <time>2019-06-16T16:54:02.030Z</time>
      </trkpt>
      <trkpt lat="42.97806" lon="-0.34283">
        <ele>1676.1</ele>
        <time>2019-06-16T16:54:02.030Z</time>
      </trkpt>
      <trkpt lat="42.97795" lon="-0.34295">
        <ele>1676.1</ele>
        <time>2019-06-16T16:54:02.256Z</time>
      </trkpt>
      <trkpt lat="42.97795" lon="-0.34295">
        <ele>1676.1</ele>
        <time>2019-06-16T16:54:02.256Z</time>
      </trkpt>
      <trkpt lat="42.97776" lon="-0.34314">
        <ele>1678.2</ele>
        <time>2019-06-16T16:54:02.633Z</time>
      </trkpt>
      <trkpt lat="42.97776" lon="-0.34314">
        <ele>1678.2</ele>
        <time>2019-06-16T16:54:02.633Z</time>
      </trkpt>
      <trkpt lat="42.97763" lon="-0.3432">
        <ele>1679</ele>
        <time>2019-06-16T16:54:02.853Z</time>
      </trkpt>
      <trkpt lat="42.97763" lon="-0.3432">
        <ele>1679</ele>
        <time>2019-06-16T16:54:02.853Z</time>
      </trkpt>
      <trkpt lat="42.97751" lon="-0.34323">
        <ele>1680.4</ele>
        <time>2019-06-16T16:54:03.049Z</time>
      </trkpt>
      <trkpt lat="42.97751" lon="-0.34323">
        <ele>1680.4</ele>
        <time>2019-06-16T16:54:03.050Z</time>
      </trkpt>
      <trkpt lat="42.97733" lon="-0.34323">
        <ele>1681.4</ele>
        <time>2019-06-16T16:54:03.339Z</time>
      </trkpt>
      <trkpt lat="42.97733" lon="-0.34323">
        <ele>1681.4</ele>
        <time>2019-06-16T16:54:03.339Z</time>
      </trkpt>
      <trkpt lat="42.9773" lon="-0.34323">
        <ele>1681.5</ele>
        <time>2019-06-16T16:54:03.387Z</time>
      </trkpt>
      <trkpt lat="42.9773" lon="-0.34323">
        <ele>1681.5</ele>
        <time>2019-06-16T16:54:03.387Z</time>
      </trkpt>
      <trkpt lat="42.9772" lon="-0.34315">
        <ele>1683</ele>
        <time>2019-06-16T16:54:03.573Z</time>
      </trkpt>
      <trkpt lat="42.9772" lon="-0.34315">
        <ele>1683</ele>
        <time>2019-06-16T16:54:03.573Z</time>
      </trkpt>
      <trkpt lat="42.97711" lon="-0.34301">
        <ele>1683.7</ele>
        <time>2019-06-16T16:54:03.792Z</time>
      </trkpt>
      <trkpt lat="42.97711" lon="-0.34301">
        <ele>1683.7</ele>
        <time>2019-06-16T16:54:03.792Z</time>
      </trkpt>
      <trkpt lat="42.97697" lon="-0.34231">
        <ele>1689.8</ele>
        <time>2019-06-16T16:54:04.643Z</time>
      </trkpt>
      <trkpt lat="42.97697" lon="-0.34231">
        <ele>1689.8</ele>
        <time>2019-06-16T16:54:04.643Z</time>
      </trkpt>
      <trkpt lat="42.9769" lon="-0.34209">
        <ele>1691.3</ele>
        <time>2019-06-16T16:54:04.924Z</time>
      </trkpt>
      <trkpt lat="42.9769" lon="-0.34209">
        <ele>1691.3</ele>
        <time>2019-06-16T16:54:04.924Z</time>
      </trkpt>
      <trkpt lat="42.97682" lon="-0.34195">
        <ele>1692.6</ele>
        <time>2019-06-16T16:54:05.132Z</time>
      </trkpt>
      <trkpt lat="42.97682" lon="-0.34195">
        <ele>1692.6</ele>
        <time>2019-06-16T16:54:05.132Z</time>
      </trkpt>
      <trkpt lat="42.97675" lon="-0.34186">
        <ele>1693.3</ele>
        <time>2019-06-16T16:54:05.286Z</time>
      </trkpt>
      <trkpt lat="42.97675" lon="-0.34186">
        <ele>1693.3</ele>
        <time>2019-06-16T16:54:05.286Z</time>
      </trkpt>
      <trkpt lat="42.97647" lon="-0.34148">
        <ele>1696.8</ele>
        <time>2019-06-16T16:54:05.919Z</time>
      </trkpt>
      <trkpt lat="42.97647" lon="-0.34148">
        <ele>1696.8</ele>
        <time>2019-06-16T16:54:05.919Z</time>
      </trkpt>
      <trkpt lat="42.9764" lon="-0.34134">
        <ele>1697.7</ele>
        <time>2019-06-16T16:54:06.118Z</time>
      </trkpt>
      <trkpt lat="42.9764" lon="-0.34134">
        <ele>1697.7</ele>
        <time>2019-06-16T16:54:06.118Z</time>
      </trkpt>
      <trkpt lat="42.97628" lon="-0.3409">
        <ele>1700.5</ele>
        <time>2019-06-16T16:54:06.669Z</time>
      </trkpt>
      <trkpt lat="42.97628" lon="-0.3409">
        <ele>1700.5</ele>
        <time>2019-06-16T16:54:06.669Z</time>
      </trkpt>
      <trkpt lat="42.97625" lon="-0.34048">
        <ele>1703.5</ele>
        <time>2019-06-16T16:54:07.164Z</time>
      </trkpt>
      <trkpt lat="42.97625" lon="-0.34048">
        <ele>1703.5</ele>
        <time>2019-06-16T16:54:07.164Z</time>
      </trkpt>
      <trkpt lat="42.97631" lon="-0.34023">
        <ele>1706.1</ele>
        <time>2019-06-16T16:54:07.473Z</time>
      </trkpt>
      <trkpt lat="42.97631" lon="-0.34023">
        <ele>1706.1</ele>
        <time>2019-06-16T16:54:07.473Z</time>
      </trkpt>
      <trkpt lat="42.97637" lon="-0.34007">
        <ele>1707.6</ele>
        <time>2019-06-16T16:54:07.684Z</time>
      </trkpt>
      <trkpt lat="42.97637" lon="-0.34007">
        <ele>1707.6</ele>
        <time>2019-06-16T16:54:07.685Z</time>
      </trkpt>
      <trkpt lat="42.97653" lon="-0.33984">
        <ele>1708.8</ele>
        <time>2019-06-16T16:54:08.057Z</time>
      </trkpt>
      <trkpt lat="42.97653" lon="-0.33984">
        <ele>1708.8</ele>
        <time>2019-06-16T16:54:08.058Z</time>
      </trkpt>
      <trkpt lat="42.97661" lon="-0.33969">
        <ele>1708.2</ele>
        <time>2019-06-16T16:54:08.276Z</time>
      </trkpt>
      <trkpt lat="42.97661" lon="-0.33969">
        <ele>1708.2</ele>
        <time>2019-06-16T16:54:08.276Z</time>
      </trkpt>
      <trkpt lat="42.97663" lon="-0.33959">
        <ele>1707.1</ele>
        <time>2019-06-16T16:54:08.398Z</time>
      </trkpt>
      <trkpt lat="42.97663" lon="-0.33959">
        <ele>1707.1</ele>
        <time>2019-06-16T16:54:08.398Z</time>
      </trkpt>
      <trkpt lat="42.9766" lon="-0.33942">
        <ele>1705.9</ele>
        <time>2019-06-16T16:54:08.603Z</time>
      </trkpt>
      <trkpt lat="42.9766" lon="-0.33942">
        <ele>1705.9</ele>
        <time>2019-06-16T16:54:08.603Z</time>
      </trkpt>
      <trkpt lat="42.97646" lon="-0.33915">
        <ele>1703.9</ele>
        <time>2019-06-16T16:54:08.991Z</time>
      </trkpt>
      <trkpt lat="42.97646" lon="-0.33915">
        <ele>1703.9</ele>
        <time>2019-06-16T16:54:08.992Z</time>
      </trkpt>
      <trkpt lat="42.97635" lon="-0.33884">
        <ele>1702.2</ele>
        <time>2019-06-16T16:54:09.396Z</time>
      </trkpt>
      <trkpt lat="42.97635" lon="-0.33884">
        <ele>1702.2</ele>
        <time>2019-06-16T16:54:09.396Z</time>
      </trkpt>
      <trkpt lat="42.97628" lon="-0.33845">
        <ele>1699.7</ele>
        <time>2019-06-16T16:54:09.867Z</time>
      </trkpt>
      <trkpt lat="42.97628" lon="-0.33845">
        <ele>1699.7</ele>
        <time>2019-06-16T16:54:09.867Z</time>
      </trkpt>
      <trkpt lat="42.97619" lon="-0.33813">
        <ele>1696.3</ele>
        <time>2019-06-16T16:54:10.269Z</time>
      </trkpt>
      <trkpt lat="42.97619" lon="-0.33813">
        <ele>1696.3</ele>
        <time>2019-06-16T16:54:10.269Z</time>
      </trkpt>
      <trkpt lat="42.97612" lon="-0.338">
        <ele>1694.7</ele>
        <time>2019-06-16T16:54:10.458Z</time>
      </trkpt>
      <trkpt lat="42.97612" lon="-0.338">
        <ele>1694.7</ele>
        <time>2019-06-16T16:54:10.458Z</time>
      </trkpt>
      <trkpt lat="42.97603" lon="-0.33789">
        <ele>1693</ele>
        <time>2019-06-16T16:54:10.652Z</time>
      </trkpt>
      <trkpt lat="42.97603" lon="-0.33789">
        <ele>1693</ele>
        <time>2019-06-16T16:54:10.652Z</time>
      </trkpt>
      <trkpt lat="42.9757" lon="-0.33764">
        <ele>1690.2</ele>
        <time>2019-06-16T16:54:11.257Z</time>
      </trkpt>
      <trkpt lat="42.9757" lon="-0.33764">
        <ele>1690.2</ele>
        <time>2019-06-16T16:54:11.257Z</time>
      </trkpt>
      <trkpt lat="42.97548" lon="-0.33747">
        <ele>1688.4</ele>
        <time>2019-06-16T16:54:11.662Z</time>
      </trkpt>
      <trkpt lat="42.97548" lon="-0.33747">
        <ele>1688.4</ele>
        <time>2019-06-16T16:54:11.663Z</time>
      </trkpt>
      <trkpt lat="42.97539" lon="-0.33739">
        <ele>1687.8</ele>
        <time>2019-06-16T16:54:11.835Z</time>
      </trkpt>
      <trkpt lat="42.97539" lon="-0.33739">
        <ele>1687.8</ele>
        <time>2019-06-16T16:54:11.835Z</time>
      </trkpt>
      <trkpt lat="42.97525" lon="-0.33721">
        <ele>1685.6</ele>
        <time>2019-06-16T16:54:12.143Z</time>
      </trkpt>
      <trkpt lat="42.97525" lon="-0.33721">
        <ele>1685.6</ele>
        <time>2019-06-16T16:54:12.143Z</time>
      </trkpt>
      <trkpt lat="42.97518" lon="-0.33703">
        <ele>1684.7</ele>
        <time>2019-06-16T16:54:12.382Z</time>
      </trkpt>
      <trkpt lat="42.97518" lon="-0.33703">
        <ele>1684.7</ele>
        <time>2019-06-16T16:54:12.382Z</time>
      </trkpt>
      <trkpt lat="42.97514" lon="-0.33686">
        <ele>1683.7</ele>
        <time>2019-06-16T16:54:12.591Z</time>
      </trkpt>
      <trkpt lat="42.97514" lon="-0.33686">
        <ele>1683.7</ele>
        <time>2019-06-16T16:54:12.591Z</time>
      </trkpt>
      <trkpt lat="42.97514" lon="-0.3365">
        <ele>1681.8</ele>
        <time>2019-06-16T16:54:13.013Z</time>
      </trkpt>
      <trkpt lat="42.97514" lon="-0.3365">
        <ele>1681.8</ele>
        <time>2019-06-16T16:54:13.013Z</time>
      </trkpt>
      <trkpt lat="42.97511" lon="-0.33599">
        <ele>1677.7</ele>
        <time>2019-06-16T16:54:13.613Z</time>
      </trkpt>
      <trkpt lat="42.97511" lon="-0.33599">
        <ele>1677.7</ele>
        <time>2019-06-16T16:54:13.613Z</time>
      </trkpt>
      <trkpt lat="42.975" lon="-0.3352">
        <ele>1672.6</ele>
        <time>2019-06-16T16:54:14.556Z</time>
      </trkpt>
      <trkpt lat="42.975" lon="-0.3352">
        <ele>1672.6</ele>
        <time>2019-06-16T16:54:14.556Z</time>
      </trkpt>
      <trkpt lat="42.97495" lon="-0.33496">
        <ele>1669.7</ele>
        <time>2019-06-16T16:54:14.849Z</time>
      </trkpt>
      <trkpt lat="42.97495" lon="-0.33496">
        <ele>1669.7</ele>
        <time>2019-06-16T16:54:14.849Z</time>
      </trkpt>
      <trkpt lat="42.97488" lon="-0.33471">
        <ele>1667.2</ele>
        <time>2019-06-16T16:54:15.163Z</time>
      </trkpt>
      <trkpt lat="42.97488" lon="-0.33471">
        <ele>1667.2</ele>
        <time>2019-06-16T16:54:15.163Z</time>
      </trkpt>
      <trkpt lat="42.97472" lon="-0.33443">
        <ele>1663.6</ele>
        <time>2019-06-16T16:54:15.580Z</time>
      </trkpt>
      <trkpt lat="42.97472" lon="-0.33443">
        <ele>1663.6</ele>
        <time>2019-06-16T16:54:15.580Z</time>
      </trkpt>
      <trkpt lat="42.97454" lon="-0.33422">
        <ele>1661.5</ele>
        <time>2019-06-16T16:54:15.959Z</time>
      </trkpt>
      <trkpt lat="42.97454" lon="-0.33422">
        <ele>1661.5</ele>
        <time>2019-06-16T16:54:15.959Z</time>
      </trkpt>
      <trkpt lat="42.97444" lon="-0.33408">
        <ele>1660.9</ele>
        <time>2019-06-16T16:54:16.188Z</time>
      </trkpt>
      <trkpt lat="42.97444" lon="-0.33408">
        <ele>1660.9</ele>
        <time>2019-06-16T16:54:16.188Z</time>
      </trkpt>
      <trkpt lat="42.97422" lon="-0.33349">
        <ele>1656.6</ele>
        <time>2019-06-16T16:54:16.965Z</time>
      </trkpt>
      <trkpt lat="42.97422" lon="-0.33349">
        <ele>1656.6</ele>
        <time>2019-06-16T16:54:16.965Z</time>
      </trkpt>
      <trkpt lat="42.97408" lon="-0.33302">
        <ele>1653</ele>
        <time>2019-06-16T16:54:17.560Z</time>
      </trkpt>
      <trkpt lat="42.97408" lon="-0.33302">
        <ele>1653</ele>
        <time>2019-06-16T16:54:17.561Z</time>
      </trkpt>
      <trkpt lat="42.97402" lon="-0.33289">
        <ele>1652.2</ele>
        <time>2019-06-16T16:54:17.741Z</time>
      </trkpt>
      <trkpt lat="42.97402" lon="-0.33289">
        <ele>1652.2</ele>
        <time>2019-06-16T16:54:17.741Z</time>
      </trkpt>
      <trkpt lat="42.97388" lon="-0.33261">
        <ele>1650.6</ele>
        <time>2019-06-16T16:54:18.139Z</time>
      </trkpt>
      <trkpt lat="42.97388" lon="-0.33261">
        <ele>1650.6</ele>
        <time>2019-06-16T16:54:18.140Z</time>
      </trkpt>
      <trkpt lat="42.97359" lon="-0.33226">
        <ele>1649.1</ele>
        <time>2019-06-16T16:54:18.760Z</time>
      </trkpt>
      <trkpt lat="42.97359" lon="-0.33226">
        <ele>1649.1</ele>
        <time>2019-06-16T16:54:18.760Z</time>
      </trkpt>
      <trkpt lat="42.97339" lon="-0.3321">
        <ele>1647.4</ele>
        <time>2019-06-16T16:54:19.132Z</time>
      </trkpt>
      <trkpt lat="42.97339" lon="-0.3321">
        <ele>1647.4</ele>
        <time>2019-06-16T16:54:19.132Z</time>
      </trkpt>
      <trkpt lat="42.97312" lon="-0.33196">
        <ele>1644.5</ele>
        <time>2019-06-16T16:54:19.595Z</time>
      </trkpt>
      <trkpt lat="42.97312" lon="-0.33196">
        <ele>1644.5</ele>
        <time>2019-06-16T16:54:19.595Z</time>
      </trkpt>
      <trkpt lat="42.97281" lon="-0.33191">
        <ele>1641.9</ele>
        <time>2019-06-16T16:54:20.095Z</time>
      </trkpt>
      <trkpt lat="42.97281" lon="-0.33191">
        <ele>1641.9</ele>
        <time>2019-06-16T16:54:20.095Z</time>
      </trkpt>
      <trkpt lat="42.97258" lon="-0.33195">
        <ele>1640.4</ele>
        <time>2019-06-16T16:54:20.467Z</time>
      </trkpt>
      <trkpt lat="42.97258" lon="-0.33195">
        <ele>1640.4</ele>
        <time>2019-06-16T16:54:20.467Z</time>
      </trkpt>
      <trkpt lat="42.97241" lon="-0.33201">
        <ele>1640.8</ele>
        <time>2019-06-16T16:54:20.748Z</time>
      </trkpt>
      <trkpt lat="42.97241" lon="-0.33201">
        <ele>1640.8</ele>
        <time>2019-06-16T16:54:20.748Z</time>
      </trkpt>
      <trkpt lat="42.9723" lon="-0.33203">
        <ele>1640.7</ele>
        <time>2019-06-16T16:54:20.926Z</time>
      </trkpt>
      <trkpt lat="42.9723" lon="-0.33203">
        <ele>1640.7</ele>
        <time>2019-06-16T16:54:20.926Z</time>
      </trkpt>
      <trkpt lat="42.97225" lon="-0.33201">
        <ele>1639.8</ele>
        <time>2019-06-16T16:54:21.010Z</time>
      </trkpt>
      <trkpt lat="42.97225" lon="-0.33201">
        <ele>1639.8</ele>
        <time>2019-06-16T16:54:21.010Z</time>
      </trkpt>
      <trkpt lat="42.97218" lon="-0.33194">
        <ele>1639.9</ele>
        <time>2019-06-16T16:54:21.149Z</time>
      </trkpt>
      <trkpt lat="42.97218" lon="-0.33194">
        <ele>1639.9</ele>
        <time>2019-06-16T16:54:21.149Z</time>
      </trkpt>
      <trkpt lat="42.97215" lon="-0.33183">
        <ele>1640.4</ele>
        <time>2019-06-16T16:54:21.287Z</time>
      </trkpt>
      <trkpt lat="42.97215" lon="-0.33183">
        <ele>1640.4</ele>
        <time>2019-06-16T16:54:21.287Z</time>
      </trkpt>
      <trkpt lat="42.97215" lon="-0.33159">
        <ele>1638.8</ele>
        <time>2019-06-16T16:54:21.569Z</time>
      </trkpt>
      <trkpt lat="42.97215" lon="-0.33159">
        <ele>1638.8</ele>
        <time>2019-06-16T16:54:21.569Z</time>
      </trkpt>
      <trkpt lat="42.97222" lon="-0.33126">
        <ele>1634.2</ele>
        <time>2019-06-16T16:54:21.972Z</time>
      </trkpt>
      <trkpt lat="42.97222" lon="-0.33126">
        <ele>1634.2</ele>
        <time>2019-06-16T16:54:21.972Z</time>
      </trkpt>
      <trkpt lat="42.97223" lon="-0.33103">
        <ele>1631.4</ele>
        <time>2019-06-16T16:54:22.242Z</time>
      </trkpt>
      <trkpt lat="42.97223" lon="-0.33103">
        <ele>1631.4</ele>
        <time>2019-06-16T16:54:22.243Z</time>
      </trkpt>
      <trkpt lat="42.97219" lon="-0.33092">
        <ele>1631.3</ele>
        <time>2019-06-16T16:54:22.387Z</time>
      </trkpt>
      <trkpt lat="42.97219" lon="-0.33092">
        <ele>1631.3</ele>
        <time>2019-06-16T16:54:22.387Z</time>
      </trkpt>
      <trkpt lat="42.972" lon="-0.3306">
        <ele>1628.5</ele>
        <time>2019-06-16T16:54:22.870Z</time>
      </trkpt>
      <trkpt lat="42.972" lon="-0.3306">
        <ele>1628.5</ele>
        <time>2019-06-16T16:54:22.870Z</time>
      </trkpt>
      <trkpt lat="42.97187" lon="-0.33034">
        <ele>1624.6</ele>
        <time>2019-06-16T16:54:23.239Z</time>
      </trkpt>
      <trkpt lat="42.97187" lon="-0.33034">
        <ele>1624.6</ele>
        <time>2019-06-16T16:54:23.239Z</time>
      </trkpt>
      <trkpt lat="42.9717" lon="-0.33">
        <ele>1622.9</ele>
        <time>2019-06-16T16:54:23.722Z</time>
      </trkpt>
      <trkpt lat="42.9717" lon="-0.33">
        <ele>1622.9</ele>
        <time>2019-06-16T16:54:23.722Z</time>
      </trkpt>
      <trkpt lat="42.97162" lon="-0.32966">
        <ele>1621.1</ele>
        <time>2019-06-16T16:54:24.141Z</time>
      </trkpt>
      <trkpt lat="42.97162" lon="-0.32966">
        <ele>1621.1</ele>
        <time>2019-06-16T16:54:24.141Z</time>
      </trkpt>
      <trkpt lat="42.9715" lon="-0.32905">
        <ele>1617.7</ele>
        <time>2019-06-16T16:54:24.882Z</time>
      </trkpt>
      <trkpt lat="42.9715" lon="-0.32905">
        <ele>1617.7</ele>
        <time>2019-06-16T16:54:24.882Z</time>
      </trkpt>
      <trkpt lat="42.97147" lon="-0.32881">
        <ele>1616.7</ele>
        <time>2019-06-16T16:54:25.168Z</time>
      </trkpt>
      <trkpt lat="42.97147" lon="-0.32881">
        <ele>1616.7</ele>
        <time>2019-06-16T16:54:25.168Z</time>
      </trkpt>
      <trkpt lat="42.97147" lon="-0.32862">
        <ele>1617.1</ele>
        <time>2019-06-16T16:54:25.391Z</time>
      </trkpt>
      <trkpt lat="42.97147" lon="-0.32862">
        <ele>1617.1</ele>
        <time>2019-06-16T16:54:25.391Z</time>
      </trkpt>
      <trkpt lat="42.97156" lon="-0.32827">
        <ele>1613</ele>
        <time>2019-06-16T16:54:25.826Z</time>
      </trkpt>
      <trkpt lat="42.97156" lon="-0.32827">
        <ele>1613</ele>
        <time>2019-06-16T16:54:25.827Z</time>
      </trkpt>
      <trkpt lat="42.97152" lon="-0.3281">
        <ele>1611.1</ele>
        <time>2019-06-16T16:54:26.036Z</time>
      </trkpt>
      <trkpt lat="42.97152" lon="-0.3281">
        <ele>1611.1</ele>
        <time>2019-06-16T16:54:26.036Z</time>
      </trkpt>
      <trkpt lat="42.97147" lon="-0.32802">
        <ele>1610.9</ele>
        <time>2019-06-16T16:54:26.159Z</time>
      </trkpt>
      <trkpt lat="42.97147" lon="-0.32802">
        <ele>1610.9</ele>
        <time>2019-06-16T16:54:26.159Z</time>
      </trkpt>
      <trkpt lat="42.97137" lon="-0.32792">
        <ele>1611.4</ele>
        <time>2019-06-16T16:54:26.358Z</time>
      </trkpt>
      <trkpt lat="42.97137" lon="-0.32792">
        <ele>1611.4</ele>
        <time>2019-06-16T16:54:26.359Z</time>
      </trkpt>
      <trkpt lat="42.97123" lon="-0.32775">
        <ele>1610.5</ele>
        <time>2019-06-16T16:54:26.659Z</time>
      </trkpt>
      <trkpt lat="42.97123" lon="-0.32775">
        <ele>1610.5</ele>
        <time>2019-06-16T16:54:26.659Z</time>
      </trkpt>
      <trkpt lat="42.97118" lon="-0.32763">
        <ele>1610</ele>
        <time>2019-06-16T16:54:26.821Z</time>
      </trkpt>
      <trkpt lat="42.97118" lon="-0.32763">
        <ele>1610</ele>
        <time>2019-06-16T16:54:26.821Z</time>
      </trkpt>
      <trkpt lat="42.97115" lon="-0.3275">
        <ele>1609.2</ele>
        <time>2019-06-16T16:54:26.981Z</time>
      </trkpt>
      <trkpt lat="42.97115" lon="-0.3275">
        <ele>1609.2</ele>
        <time>2019-06-16T16:54:26.982Z</time>
      </trkpt>
      <trkpt lat="42.97123" lon="-0.32715">
        <ele>1608.1</ele>
        <time>2019-06-16T16:54:27.412Z</time>
      </trkpt>
      <trkpt lat="42.97123" lon="-0.32715">
        <ele>1608.1</ele>
        <time>2019-06-16T16:54:27.412Z</time>
      </trkpt>
      <trkpt lat="42.97133" lon="-0.32689">
        <ele>1607.5</ele>
        <time>2019-06-16T16:54:27.757Z</time>
      </trkpt>
      <trkpt lat="42.97133" lon="-0.32689">
        <ele>1607.5</ele>
        <time>2019-06-16T16:54:27.758Z</time>
      </trkpt>
      <trkpt lat="42.97147" lon="-0.32667">
        <ele>1607.5</ele>
        <time>2019-06-16T16:54:28.100Z</time>
      </trkpt>
      <trkpt lat="42.97147" lon="-0.32667">
        <ele>1607.5</ele>
        <time>2019-06-16T16:54:28.100Z</time>
      </trkpt>
      <trkpt lat="42.97163" lon="-0.32639">
        <ele>1606.7</ele>
        <time>2019-06-16T16:54:28.517Z</time>
      </trkpt>
      <trkpt lat="42.97163" lon="-0.32639">
        <ele>1606.7</ele>
        <time>2019-06-16T16:54:28.517Z</time>
      </trkpt>
      <trkpt lat="42.97179" lon="-0.32616">
        <ele>1606.2</ele>
        <time>2019-06-16T16:54:28.889Z</time>
      </trkpt>
      <trkpt lat="42.97179" lon="-0.32616">
        <ele>1606.2</ele>
        <time>2019-06-16T16:54:28.889Z</time>
      </trkpt>
      <trkpt lat="42.97204" lon="-0.32591">
        <ele>1606.5</ele>
        <time>2019-06-16T16:54:29.386Z</time>
      </trkpt>
      <trkpt lat="42.97204" lon="-0.32591">
        <ele>1606.5</ele>
        <time>2019-06-16T16:54:29.386Z</time>
      </trkpt>
      <trkpt lat="42.97234" lon="-0.32564">
        <ele>1604.3</ele>
        <time>2019-06-16T16:54:29.962Z</time>
      </trkpt>
      <trkpt lat="42.97234" lon="-0.32564">
        <ele>1604.3</ele>
        <time>2019-06-16T16:54:29.962Z</time>
      </trkpt>
      <trkpt lat="42.97243" lon="-0.32546">
        <ele>1603.3</ele>
        <time>2019-06-16T16:54:30.218Z</time>
      </trkpt>
      <trkpt lat="42.97243" lon="-0.32546">
        <ele>1603.3</ele>
        <time>2019-06-16T16:54:30.218Z</time>
      </trkpt>
      <trkpt lat="42.97248" lon="-0.32525">
        <ele>1601.9</ele>
        <time>2019-06-16T16:54:30.477Z</time>
      </trkpt>
      <trkpt lat="42.97248" lon="-0.32525">
        <ele>1601.9</ele>
        <time>2019-06-16T16:54:30.477Z</time>
      </trkpt>
      <trkpt lat="42.97248" lon="-0.32502">
        <ele>1597.9</ele>
        <time>2019-06-16T16:54:30.747Z</time>
      </trkpt>
      <trkpt lat="42.97248" lon="-0.32502">
        <ele>1597.9</ele>
        <time>2019-06-16T16:54:30.747Z</time>
      </trkpt>
      <trkpt lat="42.97242" lon="-0.32479">
        <ele>1594.1</ele>
        <time>2019-06-16T16:54:31.033Z</time>
      </trkpt>
      <trkpt lat="42.97242" lon="-0.32479">
        <ele>1594.1</ele>
        <time>2019-06-16T16:54:31.033Z</time>
      </trkpt>
      <trkpt lat="42.97231" lon="-0.32462">
        <ele>1590.1</ele>
        <time>2019-06-16T16:54:31.299Z</time>
      </trkpt>
      <trkpt lat="42.97231" lon="-0.32462">
        <ele>1590.1</ele>
        <time>2019-06-16T16:54:31.299Z</time>
      </trkpt>
      <trkpt lat="42.97221" lon="-0.32457">
        <ele>1588.2</ele>
        <time>2019-06-16T16:54:31.470Z</time>
      </trkpt>
      <trkpt lat="42.97221" lon="-0.32457">
        <ele>1588.2</ele>
        <time>2019-06-16T16:54:31.470Z</time>
      </trkpt>
      <trkpt lat="42.97201" lon="-0.32457">
        <ele>1586.4</ele>
        <time>2019-06-16T16:54:31.791Z</time>
      </trkpt>
      <trkpt lat="42.97201" lon="-0.32457">
        <ele>1586.4</ele>
        <time>2019-06-16T16:54:31.791Z</time>
      </trkpt>
      <trkpt lat="42.97184" lon="-0.3246">
        <ele>1586.9</ele>
        <time>2019-06-16T16:54:32.066Z</time>
      </trkpt>
      <trkpt lat="42.97184" lon="-0.3246">
        <ele>1586.9</ele>
        <time>2019-06-16T16:54:32.066Z</time>
      </trkpt>
      <trkpt lat="42.97168" lon="-0.32454">
        <ele>1582.3</ele>
        <time>2019-06-16T16:54:32.332Z</time>
      </trkpt>
      <trkpt lat="42.97168" lon="-0.32454">
        <ele>1582.3</ele>
        <time>2019-06-16T16:54:32.332Z</time>
      </trkpt>
      <trkpt lat="42.97158" lon="-0.32451">
        <ele>1580.7</ele>
        <time>2019-06-16T16:54:32.496Z</time>
      </trkpt>
      <trkpt lat="42.97158" lon="-0.32451">
        <ele>1580.7</ele>
        <time>2019-06-16T16:54:32.496Z</time>
      </trkpt>
      <trkpt lat="42.97142" lon="-0.32453">
        <ele>1583</ele>
        <time>2019-06-16T16:54:32.754Z</time>
      </trkpt>
      <trkpt lat="42.97142" lon="-0.32453">
        <ele>1583</ele>
        <time>2019-06-16T16:54:32.754Z</time>
      </trkpt>
      <trkpt lat="42.97134" lon="-0.32451">
        <ele>1583</ele>
        <time>2019-06-16T16:54:32.884Z</time>
      </trkpt>
      <trkpt lat="42.97134" lon="-0.32451">
        <ele>1583</ele>
        <time>2019-06-16T16:54:32.884Z</time>
      </trkpt>
      <trkpt lat="42.97123" lon="-0.32444">
        <ele>1581.4</ele>
        <time>2019-06-16T16:54:33.079Z</time>
      </trkpt>
      <trkpt lat="42.97123" lon="-0.32444">
        <ele>1581.4</ele>
        <time>2019-06-16T16:54:33.079Z</time>
      </trkpt>
      <trkpt lat="42.97093" lon="-0.32421">
        <ele>1582.6</ele>
        <time>2019-06-16T16:54:33.630Z</time>
      </trkpt>
      <trkpt lat="42.97093" lon="-0.32421">
        <ele>1582.6</ele>
        <time>2019-06-16T16:54:33.630Z</time>
      </trkpt>
      <trkpt lat="42.97088" lon="-0.32411">
        <ele>1583.9</ele>
        <time>2019-06-16T16:54:33.772Z</time>
      </trkpt>
      <trkpt lat="42.97088" lon="-0.32411">
        <ele>1583.9</ele>
        <time>2019-06-16T16:54:33.772Z</time>
      </trkpt>
      <trkpt lat="42.97088" lon="-0.32404">
        <ele>1584.7</ele>
        <time>2019-06-16T16:54:33.854Z</time>
      </trkpt>
      <trkpt lat="42.97088" lon="-0.32404">
        <ele>1584.7</ele>
        <time>2019-06-16T16:54:33.854Z</time>
      </trkpt>
      <trkpt lat="42.9709" lon="-0.32394">
        <ele>1585.4</ele>
        <time>2019-06-16T16:54:33.976Z</time>
      </trkpt>
      <trkpt lat="42.9709" lon="-0.32394">
        <ele>1585.4</ele>
        <time>2019-06-16T16:54:33.976Z</time>
      </trkpt>
      <trkpt lat="42.97097" lon="-0.32384">
        <ele>1585.9</ele>
        <time>2019-06-16T16:54:34.138Z</time>
      </trkpt>
      <trkpt lat="42.97097" lon="-0.32384">
        <ele>1585.9</ele>
        <time>2019-06-16T16:54:34.138Z</time>
      </trkpt>
      <trkpt lat="42.97131" lon="-0.32361">
        <ele>1580.9</ele>
        <time>2019-06-16T16:54:34.746Z</time>
      </trkpt>
      <trkpt lat="42.97131" lon="-0.32361">
        <ele>1580.9</ele>
        <time>2019-06-16T16:54:34.746Z</time>
      </trkpt>
      <trkpt lat="42.97139" lon="-0.32349">
        <ele>1578.5</ele>
        <time>2019-06-16T16:54:34.936Z</time>
      </trkpt>
      <trkpt lat="42.97139" lon="-0.32349">
        <ele>1578.5</ele>
        <time>2019-06-16T16:54:34.936Z</time>
      </trkpt>
      <trkpt lat="42.97143" lon="-0.32339">
        <ele>1576.6</ele>
        <time>2019-06-16T16:54:35.070Z</time>
      </trkpt>
      <trkpt lat="42.97143" lon="-0.32339">
        <ele>1576.6</ele>
        <time>2019-06-16T16:54:35.070Z</time>
      </trkpt>
      <trkpt lat="42.97146" lon="-0.32326">
        <ele>1572.7</ele>
        <time>2019-06-16T16:54:35.230Z</time>
      </trkpt>
      <trkpt lat="42.97146" lon="-0.32326">
        <ele>1572.7</ele>
        <time>2019-06-16T16:54:35.230Z</time>
      </trkpt>
      <trkpt lat="42.97147" lon="-0.32305">
        <ele>1566.8</ele>
        <time>2019-06-16T16:54:35.477Z</time>
      </trkpt>
      <trkpt lat="42.97147" lon="-0.32305">
        <ele>1566.8</ele>
        <time>2019-06-16T16:54:35.477Z</time>
      </trkpt>
      <trkpt lat="42.97137" lon="-0.32277">
        <ele>1568.8</ele>
        <time>2019-06-16T16:54:35.842Z</time>
      </trkpt>
      <trkpt lat="42.97137" lon="-0.32277">
        <ele>1568.8</ele>
        <time>2019-06-16T16:54:35.843Z</time>
      </trkpt>
      <trkpt lat="42.97137" lon="-0.32265">
        <ele>1569.5</ele>
        <time>2019-06-16T16:54:35.984Z</time>
      </trkpt>
      <trkpt lat="42.97137" lon="-0.32265">
        <ele>1569.5</ele>
        <time>2019-06-16T16:54:35.985Z</time>
      </trkpt>
      <trkpt lat="42.97141" lon="-0.32243">
        <ele>1570</ele>
        <time>2019-06-16T16:54:36.251Z</time>
      </trkpt>
      <trkpt lat="42.97141" lon="-0.32243">
        <ele>1570</ele>
        <time>2019-06-16T16:54:36.252Z</time>
      </trkpt>
      <trkpt lat="42.97142" lon="-0.32241">
        <ele>1570.1</ele>
        <time>2019-06-16T16:54:36.280Z</time>
      </trkpt>
      <trkpt lat="42.97142" lon="-0.32241">
        <ele>1570.1</ele>
        <time>2019-06-16T16:54:36.280Z</time>
      </trkpt>
      <trkpt lat="42.97146" lon="-0.32231">
        <ele>1571.5</ele>
        <time>2019-06-16T16:54:36.414Z</time>
      </trkpt>
      <trkpt lat="42.97146" lon="-0.32231">
        <ele>1571.5</ele>
        <time>2019-06-16T16:54:36.414Z</time>
      </trkpt>
      <trkpt lat="42.97157" lon="-0.32221">
        <ele>1570.9</ele>
        <time>2019-06-16T16:54:36.626Z</time>
      </trkpt>
      <trkpt lat="42.97157" lon="-0.32221">
        <ele>1570.9</ele>
        <time>2019-06-16T16:54:36.626Z</time>
      </trkpt>
      <trkpt lat="42.97178" lon="-0.32207">
        <ele>1563</ele>
        <time>2019-06-16T16:54:37.001Z</time>
      </trkpt>
      <trkpt lat="42.97178" lon="-0.32207">
        <ele>1563</ele>
        <time>2019-06-16T16:54:37.001Z</time>
      </trkpt>
      <trkpt lat="42.97187" lon="-0.32196">
        <ele>1559.4</ele>
        <time>2019-06-16T16:54:37.195Z</time>
      </trkpt>
      <trkpt lat="42.97187" lon="-0.32196">
        <ele>1559.4</ele>
        <time>2019-06-16T16:54:37.195Z</time>
      </trkpt>
      <trkpt lat="42.97192" lon="-0.32183">
        <ele>1558.6</ele>
        <time>2019-06-16T16:54:37.367Z</time>
      </trkpt>
      <trkpt lat="42.97192" lon="-0.32183">
        <ele>1558.6</ele>
        <time>2019-06-16T16:54:37.367Z</time>
      </trkpt>
      <trkpt lat="42.97202" lon="-0.32158">
        <ele>1557.6</ele>
        <time>2019-06-16T16:54:37.701Z</time>
      </trkpt>
      <trkpt lat="42.97202" lon="-0.32158">
        <ele>1557.6</ele>
        <time>2019-06-16T16:54:37.701Z</time>
      </trkpt>
      <trkpt lat="42.97218" lon="-0.32129">
        <ele>1553.6</ele>
        <time>2019-06-16T16:54:38.127Z</time>
      </trkpt>
      <trkpt lat="42.97218" lon="-0.32129">
        <ele>1553.6</ele>
        <time>2019-06-16T16:54:38.127Z</time>
      </trkpt>
      <trkpt lat="42.97225" lon="-0.32108">
        <ele>1552.9</ele>
        <time>2019-06-16T16:54:38.398Z</time>
      </trkpt>
      <trkpt lat="42.97225" lon="-0.32108">
        <ele>1552.9</ele>
        <time>2019-06-16T16:54:38.398Z</time>
      </trkpt>
      <trkpt lat="42.97229" lon="-0.32083">
        <ele>1552.4</ele>
        <time>2019-06-16T16:54:38.698Z</time>
      </trkpt>
      <trkpt lat="42.97229" lon="-0.32083">
        <ele>1552.4</ele>
        <time>2019-06-16T16:54:38.698Z</time>
      </trkpt>
      <trkpt lat="42.97227" lon="-0.3203">
        <ele>1553.5</ele>
        <time>2019-06-16T16:54:39.321Z</time>
      </trkpt>
      <trkpt lat="42.97227" lon="-0.3203">
        <ele>1553.5</ele>
        <time>2019-06-16T16:54:39.321Z</time>
      </trkpt>
      <trkpt lat="42.97239" lon="-0.31951">
        <ele>1541.8</ele>
        <time>2019-06-16T16:54:40.267Z</time>
      </trkpt>
      <trkpt lat="42.97239" lon="-0.31951">
        <ele>1541.8</ele>
        <time>2019-06-16T16:54:40.267Z</time>
      </trkpt>
      <trkpt lat="42.97251" lon="-0.31853">
        <ele>1535.8</ele>
        <time>2019-06-16T16:54:41.433Z</time>
      </trkpt>
      <trkpt lat="42.97251" lon="-0.31853">
        <ele>1535.8</ele>
        <time>2019-06-16T16:54:41.433Z</time>
      </trkpt>
      <trkpt lat="42.97253" lon="-0.31831">
        <ele>1535.9</ele>
        <time>2019-06-16T16:54:41.693Z</time>
      </trkpt>
      <trkpt lat="42.97253" lon="-0.31831">
        <ele>1535.9</ele>
        <time>2019-06-16T16:54:41.693Z</time>
      </trkpt>
      <trkpt lat="42.97257" lon="-0.31816">
        <ele>1536.2</ele>
        <time>2019-06-16T16:54:41.880Z</time>
      </trkpt>
      <trkpt lat="42.97257" lon="-0.31816">
        <ele>1536.2</ele>
        <time>2019-06-16T16:54:41.881Z</time>
      </trkpt>
      <trkpt lat="42.97262" lon="-0.31809">
        <ele>1535.8</ele>
        <time>2019-06-16T16:54:41.996Z</time>
      </trkpt>
      <trkpt lat="42.97262" lon="-0.31809">
        <ele>1535.8</ele>
        <time>2019-06-16T16:54:41.996Z</time>
      </trkpt>
      <trkpt lat="42.9727" lon="-0.31804">
        <ele>1535.5</ele>
        <time>2019-06-16T16:54:42.137Z</time>
      </trkpt>
      <trkpt lat="42.9727" lon="-0.31804">
        <ele>1535.5</ele>
        <time>2019-06-16T16:54:42.137Z</time>
      </trkpt>
      <trkpt lat="42.97295" lon="-0.31799">
        <ele>1537.3</ele>
        <time>2019-06-16T16:54:42.542Z</time>
      </trkpt>
      <trkpt lat="42.97295" lon="-0.31799">
        <ele>1537.3</ele>
        <time>2019-06-16T16:54:42.542Z</time>
      </trkpt>
      <trkpt lat="42.97328" lon="-0.318">
        <ele>1539.2</ele>
        <time>2019-06-16T16:54:43.071Z</time>
      </trkpt>
      <trkpt lat="42.97328" lon="-0.318">
        <ele>1539.2</ele>
        <time>2019-06-16T16:54:43.071Z</time>
      </trkpt>
      <trkpt lat="42.97348" lon="-0.31804">
        <ele>1534.9</ele>
        <time>2019-06-16T16:54:43.395Z</time>
      </trkpt>
      <trkpt lat="42.97348" lon="-0.31804">
        <ele>1534.9</ele>
        <time>2019-06-16T16:54:43.395Z</time>
      </trkpt>
      <trkpt lat="42.97362" lon="-0.3181">
        <ele>1529.5</ele>
        <time>2019-06-16T16:54:43.630Z</time>
      </trkpt>
      <trkpt lat="42.97362" lon="-0.3181">
        <ele>1529.5</ele>
        <time>2019-06-16T16:54:43.630Z</time>
      </trkpt>
      <trkpt lat="42.97383" lon="-0.31815">
        <ele>1525</ele>
        <time>2019-06-16T16:54:43.972Z</time>
      </trkpt>
      <trkpt lat="42.97383" lon="-0.31815">
        <ele>1525</ele>
        <time>2019-06-16T16:54:43.972Z</time>
      </trkpt>
      <trkpt lat="42.97391" lon="-0.31816">
        <ele>1523.9</ele>
        <time>2019-06-16T16:54:44.101Z</time>
      </trkpt>
      <trkpt lat="42.97391" lon="-0.31816">
        <ele>1523.9</ele>
        <time>2019-06-16T16:54:44.101Z</time>
      </trkpt>
      <trkpt lat="42.97417" lon="-0.31824">
        <ele>1516.3</ele>
        <time>2019-06-16T16:54:44.528Z</time>
      </trkpt>
      <trkpt lat="42.97417" lon="-0.31824">
        <ele>1516.3</ele>
        <time>2019-06-16T16:54:44.528Z</time>
      </trkpt>
      <trkpt lat="42.97437" lon="-0.3183">
        <ele>1507.8</ele>
        <time>2019-06-16T16:54:44.856Z</time>
      </trkpt>
      <trkpt lat="42.97437" lon="-0.3183">
        <ele>1507.8</ele>
        <time>2019-06-16T16:54:44.856Z</time>
      </trkpt>
      <trkpt lat="42.97444" lon="-0.31829">
        <ele>1506.9</ele>
        <time>2019-06-16T16:54:44.969Z</time>
      </trkpt>
      <trkpt lat="42.97444" lon="-0.31829">
        <ele>1506.9</ele>
        <time>2019-06-16T16:54:44.969Z</time>
      </trkpt>
      <trkpt lat="42.97451" lon="-0.31823">
        <ele>1508.7</ele>
        <time>2019-06-16T16:54:45.101Z</time>
      </trkpt>
      <trkpt lat="42.97451" lon="-0.31823">
        <ele>1508.7</ele>
        <time>2019-06-16T16:54:45.101Z</time>
      </trkpt>
      <trkpt lat="42.97466" lon="-0.31808">
        <ele>1513.5</ele>
        <time>2019-06-16T16:54:45.399Z</time>
      </trkpt>
      <trkpt lat="42.97466" lon="-0.31808">
        <ele>1513.5</ele>
        <time>2019-06-16T16:54:45.399Z</time>
      </trkpt>
      <trkpt lat="42.97477" lon="-0.31799">
        <ele>1514.7</ele>
        <time>2019-06-16T16:54:45.605Z</time>
      </trkpt>
      <trkpt lat="42.97477" lon="-0.31799">
        <ele>1514.7</ele>
        <time>2019-06-16T16:54:45.605Z</time>
      </trkpt>
      <trkpt lat="42.9751" lon="-0.31785">
        <ele>1508</ele>
        <time>2019-06-16T16:54:46.159Z</time>
      </trkpt>
      <trkpt lat="42.9751" lon="-0.31785">
        <ele>1508</ele>
        <time>2019-06-16T16:54:46.159Z</time>
      </trkpt>
      <trkpt lat="42.97533" lon="-0.31767">
        <ele>1504.5</ele>
        <time>2019-06-16T16:54:46.584Z</time>
      </trkpt>
      <trkpt lat="42.97533" lon="-0.31767">
        <ele>1504.5</ele>
        <time>2019-06-16T16:54:46.584Z</time>
      </trkpt>
      <trkpt lat="42.97545" lon="-0.31752">
        <ele>1502.5</ele>
        <time>2019-06-16T16:54:46.845Z</time>
      </trkpt>
      <trkpt lat="42.97545" lon="-0.31752">
        <ele>1502.5</ele>
        <time>2019-06-16T16:54:46.845Z</time>
      </trkpt>
      <trkpt lat="42.97556" lon="-0.3173">
        <ele>1499.9</ele>
        <time>2019-06-16T16:54:47.158Z</time>
      </trkpt>
      <trkpt lat="42.97556" lon="-0.3173">
        <ele>1499.9</ele>
        <time>2019-06-16T16:54:47.158Z</time>
      </trkpt>
      <trkpt lat="42.97564" lon="-0.31707">
        <ele>1497.3</ele>
        <time>2019-06-16T16:54:47.457Z</time>
      </trkpt>
      <trkpt lat="42.97564" lon="-0.31707">
        <ele>1497.3</ele>
        <time>2019-06-16T16:54:47.457Z</time>
      </trkpt>
      <trkpt lat="42.9757" lon="-0.31681">
        <ele>1494.1</ele>
        <time>2019-06-16T16:54:47.777Z</time>
      </trkpt>
      <trkpt lat="42.9757" lon="-0.31681">
        <ele>1494.1</ele>
        <time>2019-06-16T16:54:47.777Z</time>
      </trkpt>
      <trkpt lat="42.97572" lon="-0.31649">
        <ele>1491.6</ele>
        <time>2019-06-16T16:54:48.154Z</time>
      </trkpt>
      <trkpt lat="42.97572" lon="-0.31649">
        <ele>1491.6</ele>
        <time>2019-06-16T16:54:48.154Z</time>
      </trkpt>
      <trkpt lat="42.97568" lon="-0.31587">
        <ele>1489.8</ele>
        <time>2019-06-16T16:54:48.884Z</time>
      </trkpt>
      <trkpt lat="42.97568" lon="-0.31587">
        <ele>1489.8</ele>
        <time>2019-06-16T16:54:48.884Z</time>
      </trkpt>
      <trkpt lat="42.97565" lon="-0.31536">
        <ele>1487.1</ele>
        <time>2019-06-16T16:54:49.484Z</time>
      </trkpt>
      <trkpt lat="42.97565" lon="-0.31536">
        <ele>1487.1</ele>
        <time>2019-06-16T16:54:49.485Z</time>
      </trkpt>
      <trkpt lat="42.97565" lon="-0.31489">
        <ele>1482.7</ele>
        <time>2019-06-16T16:54:50.036Z</time>
      </trkpt>
      <trkpt lat="42.97565" lon="-0.31489">
        <ele>1482.7</ele>
        <time>2019-06-16T16:54:50.037Z</time>
      </trkpt>
      <trkpt lat="42.97559" lon="-0.31474">
        <ele>1488.5</ele>
        <time>2019-06-16T16:54:50.238Z</time>
      </trkpt>
      <trkpt lat="42.97559" lon="-0.31474">
        <ele>1488.5</ele>
        <time>2019-06-16T16:54:50.238Z</time>
      </trkpt>
      <trkpt lat="42.97557" lon="-0.31458">
        <ele>1492.1</ele>
        <time>2019-06-16T16:54:50.428Z</time>
      </trkpt>
      <trkpt lat="42.97557" lon="-0.31458">
        <ele>1492.1</ele>
        <time>2019-06-16T16:54:50.428Z</time>
      </trkpt>
      <trkpt lat="42.97568" lon="-0.31432">
        <ele>1485.1</ele>
        <time>2019-06-16T16:54:50.780Z</time>
      </trkpt>
      <trkpt lat="42.97568" lon="-0.31432">
        <ele>1485.1</ele>
        <time>2019-06-16T16:54:50.780Z</time>
      </trkpt>
      <trkpt lat="42.97573" lon="-0.31401">
        <ele>1484.5</ele>
        <time>2019-06-16T16:54:51.152Z</time>
      </trkpt>
      <trkpt lat="42.97573" lon="-0.31401">
        <ele>1484.5</ele>
        <time>2019-06-16T16:54:51.152Z</time>
      </trkpt>
      <trkpt lat="42.97575" lon="-0.31349">
        <ele>1481.4</ele>
        <time>2019-06-16T16:54:51.763Z</time>
      </trkpt>
      <trkpt lat="42.97575" lon="-0.31349">
        <ele>1481.4</ele>
        <time>2019-06-16T16:54:51.763Z</time>
      </trkpt>
      <trkpt lat="42.97564" lon="-0.31315">
        <ele>1486.8</ele>
        <time>2019-06-16T16:54:52.199Z</time>
      </trkpt>
      <trkpt lat="42.97564" lon="-0.31315">
        <ele>1486.8</ele>
        <time>2019-06-16T16:54:52.199Z</time>
      </trkpt>
      <trkpt lat="42.97562" lon="-0.31293">
        <ele>1486.8</ele>
        <time>2019-06-16T16:54:52.459Z</time>
      </trkpt>
      <trkpt lat="42.97562" lon="-0.31293">
        <ele>1486.8</ele>
        <time>2019-06-16T16:54:52.459Z</time>
      </trkpt>
      <trkpt lat="42.97564" lon="-0.3128">
        <ele>1485</ele>
        <time>2019-06-16T16:54:52.615Z</time>
      </trkpt>
      <trkpt lat="42.97564" lon="-0.3128">
        <ele>1485</ele>
        <time>2019-06-16T16:54:52.615Z</time>
      </trkpt>
      <trkpt lat="42.9757" lon="-0.31264">
        <ele>1481.4</ele>
        <time>2019-06-16T16:54:52.826Z</time>
      </trkpt>
      <trkpt lat="42.9757" lon="-0.31264">
        <ele>1481.4</ele>
        <time>2019-06-16T16:54:52.826Z</time>
      </trkpt>
      <trkpt lat="42.97581" lon="-0.31241">
        <ele>1475.5</ele>
        <time>2019-06-16T16:54:53.148Z</time>
      </trkpt>
      <trkpt lat="42.97581" lon="-0.31241">
        <ele>1475.5</ele>
        <time>2019-06-16T16:54:53.148Z</time>
      </trkpt>
      <trkpt lat="42.9759" lon="-0.31213">
        <ele>1471.9</ele>
        <time>2019-06-16T16:54:53.507Z</time>
      </trkpt>
      <trkpt lat="42.9759" lon="-0.31213">
        <ele>1471.9</ele>
        <time>2019-06-16T16:54:53.507Z</time>
      </trkpt>
      <trkpt lat="42.976" lon="-0.31166">
        <ele>1468.6</ele>
        <time>2019-06-16T16:54:54.081Z</time>
      </trkpt>
      <trkpt lat="42.976" lon="-0.31166">
        <ele>1468.6</ele>
        <time>2019-06-16T16:54:54.081Z</time>
      </trkpt>
      <trkpt lat="42.9761" lon="-0.31129">
        <ele>1464</ele>
        <time>2019-06-16T16:54:54.544Z</time>
      </trkpt>
      <trkpt lat="42.9761" lon="-0.31129">
        <ele>1464</ele>
        <time>2019-06-16T16:54:54.544Z</time>
      </trkpt>
      <trkpt lat="42.97615" lon="-0.31107">
        <ele>1461.5</ele>
        <time>2019-06-16T16:54:54.814Z</time>
      </trkpt>
      <trkpt lat="42.97615" lon="-0.31107">
        <ele>1461.5</ele>
        <time>2019-06-16T16:54:54.814Z</time>
      </trkpt>
      <trkpt lat="42.97619" lon="-0.31066">
        <ele>1458.6</ele>
        <time>2019-06-16T16:54:55.299Z</time>
      </trkpt>
      <trkpt lat="42.97619" lon="-0.31066">
        <ele>1458.6</ele>
        <time>2019-06-16T16:54:55.299Z</time>
      </trkpt>
      <trkpt lat="42.97618" lon="-0.31048">
        <ele>1457.3</ele>
        <time>2019-06-16T16:54:55.511Z</time>
      </trkpt>
      <trkpt lat="42.97618" lon="-0.31048">
        <ele>1457.3</ele>
        <time>2019-06-16T16:54:55.511Z</time>
      </trkpt>
      <trkpt lat="42.97617" lon="-0.31041">
        <ele>1456.6</ele>
        <time>2019-06-16T16:54:55.595Z</time>
      </trkpt>
      <trkpt lat="42.97617" lon="-0.31041">
        <ele>1456.6</ele>
        <time>2019-06-16T16:54:55.595Z</time>
      </trkpt>
      <trkpt lat="42.97607" lon="-0.31028">
        <ele>1459</ele>
        <time>2019-06-16T16:54:55.816Z</time>
      </trkpt>
      <trkpt lat="42.97607" lon="-0.31028">
        <ele>1459</ele>
        <time>2019-06-16T16:54:55.817Z</time>
      </trkpt>
      <trkpt lat="42.97591" lon="-0.31013">
        <ele>1461.6</ele>
        <time>2019-06-16T16:54:56.128Z</time>
      </trkpt>
      <trkpt lat="42.97591" lon="-0.31013">
        <ele>1461.6</ele>
        <time>2019-06-16T16:54:56.128Z</time>
      </trkpt>
      <trkpt lat="42.97579" lon="-0.30999">
        <ele>1462.9</ele>
        <time>2019-06-16T16:54:56.381Z</time>
      </trkpt>
      <trkpt lat="42.97579" lon="-0.30999">
        <ele>1462.9</ele>
        <time>2019-06-16T16:54:56.382Z</time>
      </trkpt>
      <trkpt lat="42.97569" lon="-0.30984">
        <ele>1462.1</ele>
        <time>2019-06-16T16:54:56.620Z</time>
      </trkpt>
      <trkpt lat="42.97569" lon="-0.30984">
        <ele>1462.1</ele>
        <time>2019-06-16T16:54:56.620Z</time>
      </trkpt>
      <trkpt lat="42.97548" lon="-0.30951">
        <ele>1458.3</ele>
        <time>2019-06-16T16:54:57.133Z</time>
      </trkpt>
      <trkpt lat="42.97548" lon="-0.30951">
        <ele>1458.3</ele>
        <time>2019-06-16T16:54:57.134Z</time>
      </trkpt>
      <trkpt lat="42.97532" lon="-0.30921">
        <ele>1452</ele>
        <time>2019-06-16T16:54:57.569Z</time>
      </trkpt>
      <trkpt lat="42.97532" lon="-0.30921">
        <ele>1452</ele>
        <time>2019-06-16T16:54:57.569Z</time>
      </trkpt>
      <trkpt lat="42.97521" lon="-0.30905">
        <ele>1450.3</ele>
        <time>2019-06-16T16:54:57.827Z</time>
      </trkpt>
      <trkpt lat="42.97521" lon="-0.30905">
        <ele>1450.3</ele>
        <time>2019-06-16T16:54:57.828Z</time>
      </trkpt>
      <trkpt lat="42.97506" lon="-0.3089">
        <ele>1450.7</ele>
        <time>2019-06-16T16:54:58.126Z</time>
      </trkpt>
      <trkpt lat="42.97506" lon="-0.3089">
        <ele>1450.7</ele>
        <time>2019-06-16T16:54:58.126Z</time>
      </trkpt>
      <trkpt lat="42.97487" lon="-0.30872">
        <ele>1453.5</ele>
        <time>2019-06-16T16:54:58.497Z</time>
      </trkpt>
      <trkpt lat="42.97487" lon="-0.30872">
        <ele>1453.5</ele>
        <time>2019-06-16T16:54:58.498Z</time>
      </trkpt>
      <trkpt lat="42.97478" lon="-0.3086">
        <ele>1453.8</ele>
        <time>2019-06-16T16:54:58.700Z</time>
      </trkpt>
      <trkpt lat="42.97478" lon="-0.3086">
        <ele>1453.8</ele>
        <time>2019-06-16T16:54:58.701Z</time>
      </trkpt>
      <trkpt lat="42.97465" lon="-0.30835">
        <ele>1453</ele>
        <time>2019-06-16T16:54:59.061Z</time>
      </trkpt>
      <trkpt lat="42.97465" lon="-0.30835">
        <ele>1453</ele>
        <time>2019-06-16T16:54:59.061Z</time>
      </trkpt>
      <trkpt lat="42.97449" lon="-0.30795">
        <ele>1454.8</ele>
        <time>2019-06-16T16:54:59.596Z</time>
      </trkpt>
      <trkpt lat="42.97449" lon="-0.30795">
        <ele>1454.8</ele>
        <time>2019-06-16T16:54:59.596Z</time>
      </trkpt>
      <trkpt lat="42.97449" lon="-0.30782">
        <ele>1454.2</ele>
        <time>2019-06-16T16:54:59.748Z</time>
      </trkpt>
      <trkpt lat="42.97449" lon="-0.30782">
        <ele>1454.2</ele>
        <time>2019-06-16T16:54:59.748Z</time>
      </trkpt>
      <trkpt lat="42.97451" lon="-0.30774">
        <ele>1453.6</ele>
        <time>2019-06-16T16:54:59.847Z</time>
      </trkpt>
      <trkpt lat="42.97451" lon="-0.30774">
        <ele>1453.6</ele>
        <time>2019-06-16T16:54:59.847Z</time>
      </trkpt>
      <trkpt lat="42.97462" lon="-0.3075">
        <ele>1451.4</ele>
        <time>2019-06-16T16:55:00.179Z</time>
      </trkpt>
      <trkpt lat="42.97462" lon="-0.3075">
        <ele>1451.4</ele>
        <time>2019-06-16T16:55:00.179Z</time>
      </trkpt>
      <trkpt lat="42.97466" lon="-0.30734">
        <ele>1450.3</ele>
        <time>2019-06-16T16:55:00.377Z</time>
      </trkpt>
      <trkpt lat="42.97466" lon="-0.30734">
        <ele>1450.3</ele>
        <time>2019-06-16T16:55:00.377Z</time>
      </trkpt>
      <trkpt lat="42.97481" lon="-0.3062">
        <ele>1443.3</ele>
        <time>2019-06-16T16:55:01.736Z</time>
      </trkpt>
      <trkpt lat="42.97481" lon="-0.3062">
        <ele>1443.3</ele>
        <time>2019-06-16T16:55:01.736Z</time>
      </trkpt>
      <trkpt lat="42.97483" lon="-0.30596">
        <ele>1440.9</ele>
        <time>2019-06-16T16:55:02.019Z</time>
      </trkpt>
      <trkpt lat="42.97483" lon="-0.30596">
        <ele>1440.9</ele>
        <time>2019-06-16T16:55:02.020Z</time>
      </trkpt>
      <trkpt lat="42.97482" lon="-0.30583">
        <ele>1440.3</ele>
        <time>2019-06-16T16:55:02.173Z</time>
      </trkpt>
      <trkpt lat="42.97482" lon="-0.30583">
        <ele>1440.3</ele>
        <time>2019-06-16T16:55:02.173Z</time>
      </trkpt>
      <trkpt lat="42.97477" lon="-0.30568">
        <ele>1439.7</ele>
        <time>2019-06-16T16:55:02.366Z</time>
      </trkpt>
      <trkpt lat="42.97477" lon="-0.30568">
        <ele>1439.7</ele>
        <time>2019-06-16T16:55:02.366Z</time>
      </trkpt>
      <trkpt lat="42.97463" lon="-0.3055">
        <ele>1440.8</ele>
        <time>2019-06-16T16:55:02.674Z</time>
      </trkpt>
      <trkpt lat="42.97463" lon="-0.3055">
        <ele>1440.8</ele>
        <time>2019-06-16T16:55:02.674Z</time>
      </trkpt>
      <trkpt lat="42.97428" lon="-0.30526">
        <ele>1444.7</ele>
        <time>2019-06-16T16:55:03.302Z</time>
      </trkpt>
      <trkpt lat="42.97428" lon="-0.30526">
        <ele>1444.7</ele>
        <time>2019-06-16T16:55:03.302Z</time>
      </trkpt>
      <trkpt lat="42.97417" lon="-0.30511">
        <ele>1443.4</ele>
        <time>2019-06-16T16:55:03.551Z</time>
      </trkpt>
      <trkpt lat="42.97417" lon="-0.30511">
        <ele>1443.4</ele>
        <time>2019-06-16T16:55:03.551Z</time>
      </trkpt>
      <trkpt lat="42.97394" lon="-0.30479">
        <ele>1441.9</ele>
        <time>2019-06-16T16:55:04.077Z</time>
      </trkpt>
      <trkpt lat="42.97394" lon="-0.30479">
        <ele>1441.9</ele>
        <time>2019-06-16T16:55:04.077Z</time>
      </trkpt>
      <trkpt lat="42.97387" lon="-0.30472">
        <ele>1442.1</ele>
        <time>2019-06-16T16:55:04.216Z</time>
      </trkpt>
      <trkpt lat="42.97387" lon="-0.30472">
        <ele>1442.1</ele>
        <time>2019-06-16T16:55:04.216Z</time>
      </trkpt>
      <trkpt lat="42.97379" lon="-0.30469">
        <ele>1441.5</ele>
        <time>2019-06-16T16:55:04.349Z</time>
      </trkpt>
      <trkpt lat="42.97379" lon="-0.30469">
        <ele>1441.5</ele>
        <time>2019-06-16T16:55:04.349Z</time>
      </trkpt>
      <trkpt lat="42.97354" lon="-0.3047">
        <ele>1445</ele>
        <time>2019-06-16T16:55:04.750Z</time>
      </trkpt>
      <trkpt lat="42.97354" lon="-0.3047">
        <ele>1445</ele>
        <time>2019-06-16T16:55:04.750Z</time>
      </trkpt>
      <trkpt lat="42.97344" lon="-0.30466">
        <ele>1444.7</ele>
        <time>2019-06-16T16:55:04.917Z</time>
      </trkpt>
      <trkpt lat="42.97344" lon="-0.30466">
        <ele>1444.7</ele>
        <time>2019-06-16T16:55:04.917Z</time>
      </trkpt>
      <trkpt lat="42.97327" lon="-0.30453">
        <ele>1441.4</ele>
        <time>2019-06-16T16:55:05.229Z</time>
      </trkpt>
      <trkpt lat="42.97327" lon="-0.30453">
        <ele>1441.4</ele>
        <time>2019-06-16T16:55:05.229Z</time>
      </trkpt>
      <trkpt lat="42.97319" lon="-0.30449">
        <ele>1440.3</ele>
        <time>2019-06-16T16:55:05.366Z</time>
      </trkpt>
      <trkpt lat="42.97319" lon="-0.30449">
        <ele>1440.3</ele>
        <time>2019-06-16T16:55:05.368Z</time>
      </trkpt>
      <trkpt lat="42.97313" lon="-0.30449">
        <ele>1440.8</ele>
        <time>2019-06-16T16:55:05.464Z</time>
      </trkpt>
      <trkpt lat="42.97313" lon="-0.30449">
        <ele>1440.8</ele>
        <time>2019-06-16T16:55:05.464Z</time>
      </trkpt>
      <trkpt lat="42.97298" lon="-0.30453">
        <ele>1443.8</ele>
        <time>2019-06-16T16:55:05.709Z</time>
      </trkpt>
      <trkpt lat="42.97298" lon="-0.30453">
        <ele>1443.8</ele>
        <time>2019-06-16T16:55:05.709Z</time>
      </trkpt>
      <trkpt lat="42.97284" lon="-0.30453">
        <ele>1444.2</ele>
        <time>2019-06-16T16:55:05.933Z</time>
      </trkpt>
      <trkpt lat="42.97284" lon="-0.30453">
        <ele>1444.2</ele>
        <time>2019-06-16T16:55:05.933Z</time>
      </trkpt>
      <trkpt lat="42.97277" lon="-0.30449">
        <ele>1442.4</ele>
        <time>2019-06-16T16:55:06.055Z</time>
      </trkpt>
      <trkpt lat="42.97277" lon="-0.30449">
        <ele>1442.4</ele>
        <time>2019-06-16T16:55:06.055Z</time>
      </trkpt>
      <trkpt lat="42.97267" lon="-0.30441">
        <ele>1441.3</ele>
        <time>2019-06-16T16:55:06.241Z</time>
      </trkpt>
      <trkpt lat="42.97267" lon="-0.30441">
        <ele>1441.3</ele>
        <time>2019-06-16T16:55:06.243Z</time>
      </trkpt>
      <trkpt lat="42.97261" lon="-0.30432">
        <ele>1440.2</ele>
        <time>2019-06-16T16:55:06.386Z</time>
      </trkpt>
      <trkpt lat="42.97261" lon="-0.30432">
        <ele>1440.2</ele>
        <time>2019-06-16T16:55:06.386Z</time>
      </trkpt>
      <trkpt lat="42.97256" lon="-0.30425">
        <ele>1439.9</ele>
        <time>2019-06-16T16:55:06.501Z</time>
      </trkpt>
      <trkpt lat="42.97256" lon="-0.30425">
        <ele>1439.9</ele>
        <time>2019-06-16T16:55:06.501Z</time>
      </trkpt>
      <trkpt lat="42.97236" lon="-0.30394">
        <ele>1439</ele>
        <time>2019-06-16T16:55:06.986Z</time>
      </trkpt>
      <trkpt lat="42.97236" lon="-0.30394">
        <ele>1439</ele>
        <time>2019-06-16T16:55:06.986Z</time>
      </trkpt>
      <trkpt lat="42.97223" lon="-0.30371">
        <ele>1437.9</ele>
        <time>2019-06-16T16:55:07.327Z</time>
      </trkpt>
      <trkpt lat="42.97223" lon="-0.30371">
        <ele>1437.9</ele>
        <time>2019-06-16T16:55:07.328Z</time>
      </trkpt>
      <trkpt lat="42.97202" lon="-0.30346">
        <ele>1438.4</ele>
        <time>2019-06-16T16:55:07.774Z</time>
      </trkpt>
      <trkpt lat="42.97202" lon="-0.30346">
        <ele>1438.4</ele>
        <time>2019-06-16T16:55:07.774Z</time>
      </trkpt>
      <trkpt lat="42.9718" lon="-0.30309">
        <ele>1435.3</ele>
        <time>2019-06-16T16:55:08.333Z</time>
      </trkpt>
      <trkpt lat="42.9718" lon="-0.30309">
        <ele>1435.3</ele>
        <time>2019-06-16T16:55:08.334Z</time>
      </trkpt>
      <trkpt lat="42.97149" lon="-0.30249">
        <ele>1430.3</ele>
        <time>2019-06-16T16:55:09.196Z</time>
      </trkpt>
      <trkpt lat="42.97149" lon="-0.30249">
        <ele>1430.3</ele>
        <time>2019-06-16T16:55:09.196Z</time>
      </trkpt>
      <trkpt lat="42.97119" lon="-0.30207">
        <ele>1427.7</ele>
        <time>2019-06-16T16:55:09.884Z</time>
      </trkpt>
      <trkpt lat="42.97119" lon="-0.30207">
        <ele>1427.7</ele>
        <time>2019-06-16T16:55:09.884Z</time>
      </trkpt>
      <trkpt lat="42.97086" lon="-0.30182">
        <ele>1429.8</ele>
        <time>2019-06-16T16:55:10.489Z</time>
      </trkpt>
      <trkpt lat="42.97086" lon="-0.30182">
        <ele>1429.8</ele>
        <time>2019-06-16T16:55:10.489Z</time>
      </trkpt>
      <trkpt lat="42.97055" lon="-0.30155">
        <ele>1429.6</ele>
        <time>2019-06-16T16:55:11.078Z</time>
      </trkpt>
      <trkpt lat="42.97055" lon="-0.30155">
        <ele>1429.6</ele>
        <time>2019-06-16T16:55:11.078Z</time>
      </trkpt>
      <trkpt lat="42.97037" lon="-0.30139">
        <ele>1429.1</ele>
        <time>2019-06-16T16:55:11.422Z</time>
      </trkpt>
      <trkpt lat="42.97037" lon="-0.30139">
        <ele>1429.1</ele>
        <time>2019-06-16T16:55:11.422Z</time>
      </trkpt>
      <trkpt lat="42.97028" lon="-0.30129">
        <ele>1428.4</ele>
        <time>2019-06-16T16:55:11.608Z</time>
      </trkpt>
      <trkpt lat="42.97028" lon="-0.30129">
        <ele>1428.4</ele>
        <time>2019-06-16T16:55:11.608Z</time>
      </trkpt>
      <trkpt lat="42.97021" lon="-0.30113">
        <ele>1424.9</ele>
        <time>2019-06-16T16:55:11.827Z</time>
      </trkpt>
      <trkpt lat="42.97021" lon="-0.30113">
        <ele>1424.9</ele>
        <time>2019-06-16T16:55:11.828Z</time>
      </trkpt>
      <trkpt lat="42.97014" lon="-0.30085">
        <ele>1418.9</ele>
        <time>2019-06-16T16:55:12.175Z</time>
      </trkpt>
      <trkpt lat="42.97014" lon="-0.30085">
        <ele>1418.9</ele>
        <time>2019-06-16T16:55:12.175Z</time>
      </trkpt>
      <trkpt lat="42.9701" lon="-0.30075">
        <ele>1417.2</ele>
        <time>2019-06-16T16:55:12.309Z</time>
      </trkpt>
      <trkpt lat="42.9701" lon="-0.30075">
        <ele>1417.2</ele>
        <time>2019-06-16T16:55:12.309Z</time>
      </trkpt>
      <trkpt lat="42.97" lon="-0.30064">
        <ele>1416.7</ele>
        <time>2019-06-16T16:55:12.515Z</time>
      </trkpt>
      <trkpt lat="42.97" lon="-0.30064">
        <ele>1416.7</ele>
        <time>2019-06-16T16:55:12.515Z</time>
      </trkpt>
      <trkpt lat="42.96993" lon="-0.30063">
        <ele>1416.8</ele>
        <time>2019-06-16T16:55:12.628Z</time>
      </trkpt>
      <trkpt lat="42.96993" lon="-0.30063">
        <ele>1416.8</ele>
        <time>2019-06-16T16:55:12.628Z</time>
      </trkpt>
      <trkpt lat="42.96983" lon="-0.30069">
        <ele>1419.6</ele>
        <time>2019-06-16T16:55:12.803Z</time>
      </trkpt>
      <trkpt lat="42.96983" lon="-0.30069">
        <ele>1419.6</ele>
        <time>2019-06-16T16:55:12.803Z</time>
      </trkpt>
      <trkpt lat="42.9695" lon="-0.30096">
        <ele>1426.5</ele>
        <time>2019-06-16T16:55:13.420Z</time>
      </trkpt>
      <trkpt lat="42.9695" lon="-0.30096">
        <ele>1426.5</ele>
        <time>2019-06-16T16:55:13.420Z</time>
      </trkpt>
      <trkpt lat="42.96908" lon="-0.30126">
        <ele>1424.7</ele>
        <time>2019-06-16T16:55:14.180Z</time>
      </trkpt>
      <trkpt lat="42.96908" lon="-0.30126">
        <ele>1424.7</ele>
        <time>2019-06-16T16:55:14.180Z</time>
      </trkpt>
      <trkpt lat="42.96871" lon="-0.30157">
        <ele>1418.1</ele>
        <time>2019-06-16T16:55:14.876Z</time>
      </trkpt>
      <trkpt lat="42.96871" lon="-0.30157">
        <ele>1418.1</ele>
        <time>2019-06-16T16:55:14.876Z</time>
      </trkpt>
      <trkpt lat="42.96862" lon="-0.30166">
        <ele>1416.3</ele>
        <time>2019-06-16T16:55:15.055Z</time>
      </trkpt>
      <trkpt lat="42.96862" lon="-0.30166">
        <ele>1416.3</ele>
        <time>2019-06-16T16:55:15.055Z</time>
      </trkpt>
      <trkpt lat="42.96855" lon="-0.30179">
        <ele>1418.2</ele>
        <time>2019-06-16T16:55:15.244Z</time>
      </trkpt>
      <trkpt lat="42.96855" lon="-0.30179">
        <ele>1418.2</ele>
        <time>2019-06-16T16:55:15.246Z</time>
      </trkpt>
      <trkpt lat="42.96839" lon="-0.30205">
        <ele>1420.6</ele>
        <time>2019-06-16T16:55:15.645Z</time>
      </trkpt>
      <trkpt lat="42.96839" lon="-0.30205">
        <ele>1420.6</ele>
        <time>2019-06-16T16:55:15.645Z</time>
      </trkpt>
      <trkpt lat="42.96831" lon="-0.30211">
        <ele>1419.5</ele>
        <time>2019-06-16T16:55:15.791Z</time>
      </trkpt>
      <trkpt lat="42.96831" lon="-0.30211">
        <ele>1419.5</ele>
        <time>2019-06-16T16:55:15.791Z</time>
      </trkpt>
      <trkpt lat="42.96824" lon="-0.30213">
        <ele>1418.4</ele>
        <time>2019-06-16T16:55:15.906Z</time>
      </trkpt>
      <trkpt lat="42.96824" lon="-0.30213">
        <ele>1418.4</ele>
        <time>2019-06-16T16:55:15.906Z</time>
      </trkpt>
      <trkpt lat="42.96815" lon="-0.30212">
        <ele>1415.5</ele>
        <time>2019-06-16T16:55:16.051Z</time>
      </trkpt>
      <trkpt lat="42.96815" lon="-0.30212">
        <ele>1415.5</ele>
        <time>2019-06-16T16:55:16.052Z</time>
      </trkpt>
      <trkpt lat="42.96798" lon="-0.30206">
        <ele>1410</ele>
        <time>2019-06-16T16:55:16.333Z</time>
      </trkpt>
      <trkpt lat="42.96798" lon="-0.30206">
        <ele>1410</ele>
        <time>2019-06-16T16:55:16.333Z</time>
      </trkpt>
      <trkpt lat="42.96789" lon="-0.30206">
        <ele>1409.2</ele>
        <time>2019-06-16T16:55:16.477Z</time>
      </trkpt>
      <trkpt lat="42.96789" lon="-0.30206">
        <ele>1409.2</ele>
        <time>2019-06-16T16:55:16.477Z</time>
      </trkpt>
      <trkpt lat="42.96772" lon="-0.30212">
        <ele>1408.8</ele>
        <time>2019-06-16T16:55:16.758Z</time>
      </trkpt>
      <trkpt lat="42.96772" lon="-0.30212">
        <ele>1408.8</ele>
        <time>2019-06-16T16:55:16.758Z</time>
      </trkpt>
      <trkpt lat="42.96749" lon="-0.30231">
        <ele>1410.1</ele>
        <time>2019-06-16T16:55:17.189Z</time>
      </trkpt>
      <trkpt lat="42.96749" lon="-0.30231">
        <ele>1410.1</ele>
        <time>2019-06-16T16:55:17.189Z</time>
      </trkpt>
      <trkpt lat="42.96714" lon="-0.30264">
        <ele>1409.6</ele>
        <time>2019-06-16T16:55:17.871Z</time>
      </trkpt>
      <trkpt lat="42.96714" lon="-0.30264">
        <ele>1409.6</ele>
        <time>2019-06-16T16:55:17.871Z</time>
      </trkpt>
      <trkpt lat="42.96693" lon="-0.30277">
        <ele>1411.4</ele>
        <time>2019-06-16T16:55:18.241Z</time>
      </trkpt>
      <trkpt lat="42.96693" lon="-0.30277">
        <ele>1411.4</ele>
        <time>2019-06-16T16:55:18.242Z</time>
      </trkpt>
      <trkpt lat="42.96683" lon="-0.3028">
        <ele>1411.3</ele>
        <time>2019-06-16T16:55:18.406Z</time>
      </trkpt>
      <trkpt lat="42.96683" lon="-0.3028">
        <ele>1411.3</ele>
        <time>2019-06-16T16:55:18.406Z</time>
      </trkpt>
      <trkpt lat="42.96666" lon="-0.30278">
        <ele>1408.2</ele>
        <time>2019-06-16T16:55:18.680Z</time>
      </trkpt>
      <trkpt lat="42.96666" lon="-0.30278">
        <ele>1408.2</ele>
        <time>2019-06-16T16:55:18.680Z</time>
      </trkpt>
      <trkpt lat="42.96657" lon="-0.30274">
        <ele>1407.7</ele>
        <time>2019-06-16T16:55:18.832Z</time>
      </trkpt>
      <trkpt lat="42.96657" lon="-0.30274">
        <ele>1407.7</ele>
        <time>2019-06-16T16:55:18.833Z</time>
      </trkpt>
      <trkpt lat="42.96648" lon="-0.30267">
        <ele>1407.2</ele>
        <time>2019-06-16T16:55:18.999Z</time>
      </trkpt>
      <trkpt lat="42.96648" lon="-0.30267">
        <ele>1407.2</ele>
        <time>2019-06-16T16:55:18.999Z</time>
      </trkpt>
      <trkpt lat="42.96636" lon="-0.30245">
        <ele>1405.9</ele>
        <time>2019-06-16T16:55:19.321Z</time>
      </trkpt>
      <trkpt lat="42.96636" lon="-0.30245">
        <ele>1405.9</ele>
        <time>2019-06-16T16:55:19.321Z</time>
      </trkpt>
      <trkpt lat="42.96619" lon="-0.30208">
        <ele>1404.2</ele>
        <time>2019-06-16T16:55:19.834Z</time>
      </trkpt>
      <trkpt lat="42.96619" lon="-0.30208">
        <ele>1404.2</ele>
        <time>2019-06-16T16:55:19.834Z</time>
      </trkpt>
      <trkpt lat="42.96607" lon="-0.30188">
        <ele>1402.6</ele>
        <time>2019-06-16T16:55:20.137Z</time>
      </trkpt>
      <trkpt lat="42.96607" lon="-0.30188">
        <ele>1402.6</ele>
        <time>2019-06-16T16:55:20.137Z</time>
      </trkpt>
      <trkpt lat="42.96602" lon="-0.30185">
        <ele>1402.1</ele>
        <time>2019-06-16T16:55:20.225Z</time>
      </trkpt>
      <trkpt lat="42.96602" lon="-0.30185">
        <ele>1402.1</ele>
        <time>2019-06-16T16:55:20.225Z</time>
      </trkpt>
      <trkpt lat="42.9659" lon="-0.30184">
        <ele>1402</ele>
        <time>2019-06-16T16:55:20.418Z</time>
      </trkpt>
      <trkpt lat="42.9659" lon="-0.30184">
        <ele>1402</ele>
        <time>2019-06-16T16:55:20.419Z</time>
      </trkpt>
      <trkpt lat="42.96578" lon="-0.30189">
        <ele>1401.9</ele>
        <time>2019-06-16T16:55:20.620Z</time>
      </trkpt>
      <trkpt lat="42.96578" lon="-0.30189">
        <ele>1401.9</ele>
        <time>2019-06-16T16:55:20.620Z</time>
      </trkpt>
      <trkpt lat="42.96535" lon="-0.30218">
        <ele>1398.4</ele>
        <time>2019-06-16T16:55:21.389Z</time>
      </trkpt>
      <trkpt lat="42.96535" lon="-0.30218">
        <ele>1398.4</ele>
        <time>2019-06-16T16:55:21.389Z</time>
      </trkpt>
      <trkpt lat="42.96496" lon="-0.30248">
        <ele>1394.4</ele>
        <time>2019-06-16T16:55:22.106Z</time>
      </trkpt>
      <trkpt lat="42.96496" lon="-0.30248">
        <ele>1394.4</ele>
        <time>2019-06-16T16:55:22.106Z</time>
      </trkpt>
      <trkpt lat="42.96476" lon="-0.30263">
        <ele>1392.3</ele>
        <time>2019-06-16T16:55:22.472Z</time>
      </trkpt>
      <trkpt lat="42.96476" lon="-0.30263">
        <ele>1392.3</ele>
        <time>2019-06-16T16:55:22.472Z</time>
      </trkpt>
      <trkpt lat="42.96466" lon="-0.30275">
        <ele>1392.3</ele>
        <time>2019-06-16T16:55:22.685Z</time>
      </trkpt>
      <trkpt lat="42.96466" lon="-0.30275">
        <ele>1392.3</ele>
        <time>2019-06-16T16:55:22.685Z</time>
      </trkpt>
      <trkpt lat="42.96447" lon="-0.3029">
        <ele>1390.7</ele>
        <time>2019-06-16T16:55:23.037Z</time>
      </trkpt>
      <trkpt lat="42.96447" lon="-0.3029">
        <ele>1390.7</ele>
        <time>2019-06-16T16:55:23.037Z</time>
      </trkpt>
      <trkpt lat="42.96438" lon="-0.30297">
        <ele>1389.9</ele>
        <time>2019-06-16T16:55:23.203Z</time>
      </trkpt>
      <trkpt lat="42.96438" lon="-0.30297">
        <ele>1389.9</ele>
        <time>2019-06-16T16:55:23.203Z</time>
      </trkpt>
      <trkpt lat="42.96434" lon="-0.30305">
        <ele>1391.1</ele>
        <time>2019-06-16T16:55:23.317Z</time>
      </trkpt>
      <trkpt lat="42.96434" lon="-0.30305">
        <ele>1391.1</ele>
        <time>2019-06-16T16:55:23.317Z</time>
      </trkpt>
      <trkpt lat="42.96424" lon="-0.30319">
        <ele>1391.4</ele>
        <time>2019-06-16T16:55:23.547Z</time>
      </trkpt>
      <trkpt lat="42.96424" lon="-0.30319">
        <ele>1391.4</ele>
        <time>2019-06-16T16:55:23.548Z</time>
      </trkpt>
      <trkpt lat="42.96415" lon="-0.30324">
        <ele>1389.9</ele>
        <time>2019-06-16T16:55:23.704Z</time>
      </trkpt>
      <trkpt lat="42.96415" lon="-0.30324">
        <ele>1389.9</ele>
        <time>2019-06-16T16:55:23.704Z</time>
      </trkpt>
      <trkpt lat="42.96394" lon="-0.30328">
        <ele>1386.8</ele>
        <time>2019-06-16T16:55:24.044Z</time>
      </trkpt>
      <trkpt lat="42.96394" lon="-0.30328">
        <ele>1386.8</ele>
        <time>2019-06-16T16:55:24.044Z</time>
      </trkpt>
      <trkpt lat="42.96382" lon="-0.30331">
        <ele>1389.2</ele>
        <time>2019-06-16T16:55:24.240Z</time>
      </trkpt>
      <trkpt lat="42.96382" lon="-0.30331">
        <ele>1389.2</ele>
        <time>2019-06-16T16:55:24.240Z</time>
      </trkpt>
      <trkpt lat="42.96376" lon="-0.30329">
        <ele>1390.3</ele>
        <time>2019-06-16T16:55:24.339Z</time>
      </trkpt>
      <trkpt lat="42.96376" lon="-0.30329">
        <ele>1390.3</ele>
        <time>2019-06-16T16:55:24.339Z</time>
      </trkpt>
      <trkpt lat="42.96368" lon="-0.30319">
        <ele>1388.6</ele>
        <time>2019-06-16T16:55:24.513Z</time>
      </trkpt>
      <trkpt lat="42.96368" lon="-0.30319">
        <ele>1388.6</ele>
        <time>2019-06-16T16:55:24.513Z</time>
      </trkpt>
      <trkpt lat="42.96361" lon="-0.30298">
        <ele>1382.7</ele>
        <time>2019-06-16T16:55:24.784Z</time>
      </trkpt>
      <trkpt lat="42.96361" lon="-0.30298">
        <ele>1382.7</ele>
        <time>2019-06-16T16:55:24.784Z</time>
      </trkpt>
      <trkpt lat="42.9635" lon="-0.30255">
        <ele>1377.1</ele>
        <time>2019-06-16T16:55:25.318Z</time>
      </trkpt>
      <trkpt lat="42.9635" lon="-0.30255">
        <ele>1377.1</ele>
        <time>2019-06-16T16:55:25.318Z</time>
      </trkpt>
      <trkpt lat="42.96335" lon="-0.30182">
        <ele>1359.1</ele>
        <time>2019-06-16T16:55:26.208Z</time>
      </trkpt>
      <trkpt lat="42.96335" lon="-0.30182">
        <ele>1359.1</ele>
        <time>2019-06-16T16:55:26.208Z</time>
      </trkpt>
      <trkpt lat="42.96314" lon="-0.3012">
        <ele>1355.5</ele>
        <time>2019-06-16T16:55:27.009Z</time>
      </trkpt>
      <trkpt lat="42.96314" lon="-0.3012">
        <ele>1355.5</ele>
        <time>2019-06-16T16:55:27.009Z</time>
      </trkpt>
      <trkpt lat="42.96299" lon="-0.30073">
        <ele>1355.1</ele>
        <time>2019-06-16T16:55:27.611Z</time>
      </trkpt>
      <trkpt lat="42.96299" lon="-0.30073">
        <ele>1355.1</ele>
        <time>2019-06-16T16:55:27.612Z</time>
      </trkpt>
      <trkpt lat="42.96281" lon="-0.30032">
        <ele>1367.1</ele>
        <time>2019-06-16T16:55:28.173Z</time>
      </trkpt>
      <trkpt lat="42.96281" lon="-0.30032">
        <ele>1367.1</ele>
        <time>2019-06-16T16:55:28.173Z</time>
      </trkpt>
      <trkpt lat="42.96274" lon="-0.3001">
        <ele>1369</ele>
        <time>2019-06-16T16:55:28.454Z</time>
      </trkpt>
      <trkpt lat="42.96274" lon="-0.3001">
        <ele>1369</ele>
        <time>2019-06-16T16:55:28.454Z</time>
      </trkpt>
      <trkpt lat="42.96271" lon="-0.29992">
        <ele>1366.5</ele>
        <time>2019-06-16T16:55:28.671Z</time>
      </trkpt>
      <trkpt lat="42.96271" lon="-0.29992">
        <ele>1366.5</ele>
        <time>2019-06-16T16:55:28.671Z</time>
      </trkpt>
      <trkpt lat="42.96266" lon="-0.29966">
        <ele>1362.9</ele>
        <time>2019-06-16T16:55:28.986Z</time>
      </trkpt>
      <trkpt lat="42.96266" lon="-0.29966">
        <ele>1362.9</ele>
        <time>2019-06-16T16:55:28.986Z</time>
      </trkpt>
      <trkpt lat="42.9626" lon="-0.29947">
        <ele>1362.8</ele>
        <time>2019-06-16T16:55:29.229Z</time>
      </trkpt>
      <trkpt lat="42.9626" lon="-0.29947">
        <ele>1362.8</ele>
        <time>2019-06-16T16:55:29.229Z</time>
      </trkpt>
      <trkpt lat="42.96247" lon="-0.29925">
        <ele>1369.9</ele>
        <time>2019-06-16T16:55:29.561Z</time>
      </trkpt>
      <trkpt lat="42.96247" lon="-0.29925">
        <ele>1369.9</ele>
        <time>2019-06-16T16:55:29.561Z</time>
      </trkpt>
      <trkpt lat="42.96234" lon="-0.29899">
        <ele>1371.3</ele>
        <time>2019-06-16T16:55:29.930Z</time>
      </trkpt>
      <trkpt lat="42.96234" lon="-0.29899">
        <ele>1371.3</ele>
        <time>2019-06-16T16:55:29.930Z</time>
      </trkpt>
      <trkpt lat="42.96223" lon="-0.29884">
        <ele>1374.8</ele>
        <time>2019-06-16T16:55:30.179Z</time>
      </trkpt>
      <trkpt lat="42.96223" lon="-0.29884">
        <ele>1374.8</ele>
        <time>2019-06-16T16:55:30.180Z</time>
      </trkpt>
      <trkpt lat="42.96211" lon="-0.29866">
        <ele>1375.8</ele>
        <time>2019-06-16T16:55:30.466Z</time>
      </trkpt>
      <trkpt lat="42.96211" lon="-0.29866">
        <ele>1375.8</ele>
        <time>2019-06-16T16:55:30.466Z</time>
      </trkpt>
      <trkpt lat="42.96181" lon="-0.29806">
        <ele>1370.4</ele>
        <time>2019-06-16T16:55:31.319Z</time>
      </trkpt>
      <trkpt lat="42.96181" lon="-0.29806">
        <ele>1370.4</ele>
        <time>2019-06-16T16:55:31.319Z</time>
      </trkpt>
      <trkpt lat="42.96172" lon="-0.29792">
        <ele>1367.5</ele>
        <time>2019-06-16T16:55:31.538Z</time>
      </trkpt>
      <trkpt lat="42.96172" lon="-0.29792">
        <ele>1367.5</ele>
        <time>2019-06-16T16:55:31.538Z</time>
      </trkpt>
      <trkpt lat="42.9616" lon="-0.29785">
        <ele>1370.1</ele>
        <time>2019-06-16T16:55:31.747Z</time>
      </trkpt>
      <trkpt lat="42.9616" lon="-0.29785">
        <ele>1370.1</ele>
        <time>2019-06-16T16:55:31.747Z</time>
      </trkpt>
      <trkpt lat="42.96143" lon="-0.29776">
        <ele>1371.9</ele>
        <time>2019-06-16T16:55:32.039Z</time>
      </trkpt>
      <trkpt lat="42.96143" lon="-0.29776">
        <ele>1371.9</ele>
        <time>2019-06-16T16:55:32.039Z</time>
      </trkpt>
      <trkpt lat="42.96131" lon="-0.29767">
        <ele>1372.6</ele>
        <time>2019-06-16T16:55:32.258Z</time>
      </trkpt>
      <trkpt lat="42.96131" lon="-0.29767">
        <ele>1372.6</ele>
        <time>2019-06-16T16:55:32.259Z</time>
      </trkpt>
      <trkpt lat="42.96104" lon="-0.29742">
        <ele>1372.2</ele>
        <time>2019-06-16T16:55:32.782Z</time>
      </trkpt>
      <trkpt lat="42.96104" lon="-0.29742">
        <ele>1372.2</ele>
        <time>2019-06-16T16:55:32.782Z</time>
      </trkpt>
      <trkpt lat="42.96093" lon="-0.29727">
        <ele>1372.3</ele>
        <time>2019-06-16T16:55:33.031Z</time>
      </trkpt>
      <trkpt lat="42.96093" lon="-0.29727">
        <ele>1372.3</ele>
        <time>2019-06-16T16:55:33.031Z</time>
      </trkpt>
      <trkpt lat="42.96065" lon="-0.29662">
        <ele>1367.4</ele>
        <time>2019-06-16T16:55:33.916Z</time>
      </trkpt>
      <trkpt lat="42.96065" lon="-0.29662">
        <ele>1367.4</ele>
        <time>2019-06-16T16:55:33.918Z</time>
      </trkpt>
      <trkpt lat="42.96049" lon="-0.29624">
        <ele>1368.3</ele>
        <time>2019-06-16T16:55:34.432Z</time>
      </trkpt>
      <trkpt lat="42.96049" lon="-0.29624">
        <ele>1368.3</ele>
        <time>2019-06-16T16:55:34.432Z</time>
      </trkpt>
      <trkpt lat="42.96037" lon="-0.29602">
        <ele>1367.1</ele>
        <time>2019-06-16T16:55:34.754Z</time>
      </trkpt>
      <trkpt lat="42.96037" lon="-0.29602">
        <ele>1367.1</ele>
        <time>2019-06-16T16:55:34.754Z</time>
      </trkpt>
      <trkpt lat="42.96024" lon="-0.29586">
        <ele>1369.1</ele>
        <time>2019-06-16T16:55:35.034Z</time>
      </trkpt>
      <trkpt lat="42.96024" lon="-0.29586">
        <ele>1369.1</ele>
        <time>2019-06-16T16:55:35.035Z</time>
      </trkpt>
      <trkpt lat="42.9602" lon="-0.29582">
        <ele>1370.4</ele>
        <time>2019-06-16T16:55:35.114Z</time>
      </trkpt>
      <trkpt lat="42.9602" lon="-0.29582">
        <ele>1370.4</ele>
        <time>2019-06-16T16:55:35.114Z</time>
      </trkpt>
      <trkpt lat="42.96012" lon="-0.29578">
        <ele>1375.1</ele>
        <time>2019-06-16T16:55:35.251Z</time>
      </trkpt>
      <trkpt lat="42.96012" lon="-0.29578">
        <ele>1375.1</ele>
        <time>2019-06-16T16:55:35.251Z</time>
      </trkpt>
      <trkpt lat="42.95988" lon="-0.29568">
        <ele>1390.1</ele>
        <time>2019-06-16T16:55:35.653Z</time>
      </trkpt>
      <trkpt lat="42.95988" lon="-0.29568">
        <ele>1390.1</ele>
        <time>2019-06-16T16:55:35.654Z</time>
      </trkpt>
      <trkpt lat="42.95973" lon="-0.29557">
        <ele>1395.4</ele>
        <time>2019-06-16T16:55:35.927Z</time>
      </trkpt>
      <trkpt lat="42.95973" lon="-0.29557">
        <ele>1395.4</ele>
        <time>2019-06-16T16:55:35.927Z</time>
      </trkpt>
      <trkpt lat="42.95968" lon="-0.29551">
        <ele>1395.4</ele>
        <time>2019-06-16T16:55:36.034Z</time>
      </trkpt>
      <trkpt lat="42.95968" lon="-0.29551">
        <ele>1395.4</ele>
        <time>2019-06-16T16:55:36.034Z</time>
      </trkpt>
      <trkpt lat="42.95953" lon="-0.29529">
        <ele>1393.9</ele>
        <time>2019-06-16T16:55:36.387Z</time>
      </trkpt>
      <trkpt lat="42.95953" lon="-0.29529">
        <ele>1393.9</ele>
        <time>2019-06-16T16:55:36.387Z</time>
      </trkpt>
      <trkpt lat="42.95941" lon="-0.29491">
        <ele>1380.2</ele>
        <time>2019-06-16T16:55:36.873Z</time>
      </trkpt>
      <trkpt lat="42.95941" lon="-0.29491">
        <ele>1380.2</ele>
        <time>2019-06-16T16:55:36.873Z</time>
      </trkpt>
      <trkpt lat="42.95938" lon="-0.29455">
        <ele>1366.6</ele>
        <time>2019-06-16T16:55:37.298Z</time>
      </trkpt>
      <trkpt lat="42.95938" lon="-0.29455">
        <ele>1366.6</ele>
        <time>2019-06-16T16:55:37.298Z</time>
      </trkpt>
      <trkpt lat="42.95935" lon="-0.29446">
        <ele>1365</ele>
        <time>2019-06-16T16:55:37.414Z</time>
      </trkpt>
      <trkpt lat="42.95935" lon="-0.29446">
        <ele>1365</ele>
        <time>2019-06-16T16:55:37.414Z</time>
      </trkpt>
      <trkpt lat="42.95922" lon="-0.29424">
        <ele>1364.1</ele>
        <time>2019-06-16T16:55:37.746Z</time>
      </trkpt>
      <trkpt lat="42.95922" lon="-0.29424">
        <ele>1364.1</ele>
        <time>2019-06-16T16:55:37.746Z</time>
      </trkpt>
      <trkpt lat="42.95919" lon="-0.29419">
        <ele>1364.3</ele>
        <time>2019-06-16T16:55:37.822Z</time>
      </trkpt>
      <trkpt lat="42.95919" lon="-0.29419">
        <ele>1364.3</ele>
        <time>2019-06-16T16:55:37.822Z</time>
      </trkpt>
      <trkpt lat="42.95897" lon="-0.29394">
        <ele>1362.9</ele>
        <time>2019-06-16T16:55:38.281Z</time>
      </trkpt>
      <trkpt lat="42.95897" lon="-0.29394">
        <ele>1362.9</ele>
        <time>2019-06-16T16:55:38.281Z</time>
      </trkpt>
      <trkpt lat="42.95878" lon="-0.29367">
        <ele>1359.1</ele>
        <time>2019-06-16T16:55:38.720Z</time>
      </trkpt>
      <trkpt lat="42.95878" lon="-0.29367">
        <ele>1359.1</ele>
        <time>2019-06-16T16:55:38.720Z</time>
      </trkpt>
      <trkpt lat="42.95866" lon="-0.29339">
        <ele>1353.9</ele>
        <time>2019-06-16T16:55:39.101Z</time>
      </trkpt>
      <trkpt lat="42.95866" lon="-0.29339">
        <ele>1353.9</ele>
        <time>2019-06-16T16:55:39.101Z</time>
      </trkpt>
      <trkpt lat="42.95857" lon="-0.29324">
        <ele>1354.4</ele>
        <time>2019-06-16T16:55:39.329Z</time>
      </trkpt>
      <trkpt lat="42.95857" lon="-0.29324">
        <ele>1354.4</ele>
        <time>2019-06-16T16:55:39.330Z</time>
      </trkpt>
      <trkpt lat="42.95846" lon="-0.29313">
        <ele>1358.7</ele>
        <time>2019-06-16T16:55:39.549Z</time>
      </trkpt>
      <trkpt lat="42.95846" lon="-0.29313">
        <ele>1358.7</ele>
        <time>2019-06-16T16:55:39.549Z</time>
      </trkpt>
      <trkpt lat="42.95836" lon="-0.29304">
        <ele>1363.3</ele>
        <time>2019-06-16T16:55:39.741Z</time>
      </trkpt>
      <trkpt lat="42.95836" lon="-0.29304">
        <ele>1363.3</ele>
        <time>2019-06-16T16:55:39.741Z</time>
      </trkpt>
      <trkpt lat="42.95832" lon="-0.29295">
        <ele>1363.5</ele>
        <time>2019-06-16T16:55:39.865Z</time>
      </trkpt>
      <trkpt lat="42.95832" lon="-0.29295">
        <ele>1363.5</ele>
        <time>2019-06-16T16:55:39.865Z</time>
      </trkpt>
      <trkpt lat="42.95828" lon="-0.29278">
        <ele>1361.3</ele>
        <time>2019-06-16T16:55:40.075Z</time>
      </trkpt>
      <trkpt lat="42.95828" lon="-0.29278">
        <ele>1361.3</ele>
        <time>2019-06-16T16:55:40.075Z</time>
      </trkpt>
      <trkpt lat="42.95832" lon="-0.2925">
        <ele>1353.2</ele>
        <time>2019-06-16T16:55:40.410Z</time>
      </trkpt>
      <trkpt lat="42.95832" lon="-0.2925">
        <ele>1353.2</ele>
        <time>2019-06-16T16:55:40.410Z</time>
      </trkpt>
      <trkpt lat="42.95832" lon="-0.29227">
        <ele>1350.7</ele>
        <time>2019-06-16T16:55:40.680Z</time>
      </trkpt>
      <trkpt lat="42.95832" lon="-0.29227">
        <ele>1350.7</ele>
        <time>2019-06-16T16:55:40.680Z</time>
      </trkpt>
      <trkpt lat="42.95823" lon="-0.292">
        <ele>1354.5</ele>
        <time>2019-06-16T16:55:41.028Z</time>
      </trkpt>
      <trkpt lat="42.95823" lon="-0.292">
        <ele>1354.5</ele>
        <time>2019-06-16T16:55:41.028Z</time>
      </trkpt>
      <trkpt lat="42.95809" lon="-0.29176">
        <ele>1363.2</ele>
        <time>2019-06-16T16:55:41.388Z</time>
      </trkpt>
      <trkpt lat="42.95809" lon="-0.29176">
        <ele>1363.2</ele>
        <time>2019-06-16T16:55:41.388Z</time>
      </trkpt>
      <trkpt lat="42.95806" lon="-0.29164">
        <ele>1363.9</ele>
        <time>2019-06-16T16:55:41.537Z</time>
      </trkpt>
      <trkpt lat="42.95806" lon="-0.29164">
        <ele>1363.9</ele>
        <time>2019-06-16T16:55:41.537Z</time>
      </trkpt>
      <trkpt lat="42.95807" lon="-0.29143">
        <ele>1357.4</ele>
        <time>2019-06-16T16:55:41.784Z</time>
      </trkpt>
      <trkpt lat="42.95807" lon="-0.29143">
        <ele>1357.4</ele>
        <time>2019-06-16T16:55:41.784Z</time>
      </trkpt>
      <trkpt lat="42.95808" lon="-0.29127">
        <ele>1350</ele>
        <time>2019-06-16T16:55:41.972Z</time>
      </trkpt>
      <trkpt lat="42.95808" lon="-0.29127">
        <ele>1350</ele>
        <time>2019-06-16T16:55:41.972Z</time>
      </trkpt>
      <trkpt lat="42.95807" lon="-0.29119">
        <ele>1347.7</ele>
        <time>2019-06-16T16:55:42.067Z</time>
      </trkpt>
      <trkpt lat="42.95807" lon="-0.29119">
        <ele>1347.7</ele>
        <time>2019-06-16T16:55:42.067Z</time>
      </trkpt>
      <trkpt lat="42.958" lon="-0.29107">
        <ele>1347.9</ele>
        <time>2019-06-16T16:55:42.247Z</time>
      </trkpt>
      <trkpt lat="42.958" lon="-0.29107">
        <ele>1347.9</ele>
        <time>2019-06-16T16:55:42.247Z</time>
      </trkpt>
      <trkpt lat="42.95794" lon="-0.29104">
        <ele>1350.9</ele>
        <time>2019-06-16T16:55:42.349Z</time>
      </trkpt>
      <trkpt lat="42.95794" lon="-0.29104">
        <ele>1350.9</ele>
        <time>2019-06-16T16:55:42.349Z</time>
      </trkpt>
      <trkpt lat="42.95779" lon="-0.29101">
        <ele>1361.2</ele>
        <time>2019-06-16T16:55:42.592Z</time>
      </trkpt>
      <trkpt lat="42.95779" lon="-0.29101">
        <ele>1361.2</ele>
        <time>2019-06-16T16:55:42.593Z</time>
      </trkpt>
      <trkpt lat="42.95773" lon="-0.291">
        <ele>1364.6</ele>
        <time>2019-06-16T16:55:42.690Z</time>
      </trkpt>
      <trkpt lat="42.95773" lon="-0.291">
        <ele>1364.6</ele>
        <time>2019-06-16T16:55:42.690Z</time>
      </trkpt>
      <trkpt lat="42.95767" lon="-0.29094">
        <ele>1363.3</ele>
        <time>2019-06-16T16:55:42.809Z</time>
      </trkpt>
      <trkpt lat="42.95767" lon="-0.29094">
        <ele>1363.3</ele>
        <time>2019-06-16T16:55:42.809Z</time>
      </trkpt>
      <trkpt lat="42.9575" lon="-0.29068">
        <ele>1347.9</ele>
        <time>2019-06-16T16:55:43.218Z</time>
      </trkpt>
      <trkpt lat="42.9575" lon="-0.29068">
        <ele>1347.9</ele>
        <time>2019-06-16T16:55:43.218Z</time>
      </trkpt>
      <trkpt lat="42.95744" lon="-0.29059">
        <ele>1339.6</ele>
        <time>2019-06-16T16:55:43.361Z</time>
      </trkpt>
      <trkpt lat="42.95744" lon="-0.29059">
        <ele>1339.6</ele>
        <time>2019-06-16T16:55:43.361Z</time>
      </trkpt>
      <trkpt lat="42.95729" lon="-0.29059">
        <ele>1344</ele>
        <time>2019-06-16T16:55:43.601Z</time>
      </trkpt>
      <trkpt lat="42.95729" lon="-0.29059">
        <ele>1344</ele>
        <time>2019-06-16T16:55:43.602Z</time>
      </trkpt>
      <trkpt lat="42.95717" lon="-0.2906">
        <ele>1345.3</ele>
        <time>2019-06-16T16:55:43.795Z</time>
      </trkpt>
      <trkpt lat="42.95717" lon="-0.2906">
        <ele>1345.3</ele>
        <time>2019-06-16T16:55:43.795Z</time>
      </trkpt>
      <trkpt lat="42.95699" lon="-0.29064">
        <ele>1344.4</ele>
        <time>2019-06-16T16:55:44.087Z</time>
      </trkpt>
      <trkpt lat="42.95699" lon="-0.29064">
        <ele>1344.4</ele>
        <time>2019-06-16T16:55:44.087Z</time>
      </trkpt>
      <trkpt lat="42.95663" lon="-0.29068">
        <ele>1346</ele>
        <time>2019-06-16T16:55:44.666Z</time>
      </trkpt>
      <trkpt lat="42.95663" lon="-0.29068">
        <ele>1346</ele>
        <time>2019-06-16T16:55:44.666Z</time>
      </trkpt>
      <trkpt lat="42.95642" lon="-0.29071">
        <ele>1356</ele>
        <time>2019-06-16T16:55:45.004Z</time>
      </trkpt>
      <trkpt lat="42.95642" lon="-0.29071">
        <ele>1356</ele>
        <time>2019-06-16T16:55:45.004Z</time>
      </trkpt>
      <trkpt lat="42.95627" lon="-0.29072">
        <ele>1366</ele>
        <time>2019-06-16T16:55:45.245Z</time>
      </trkpt>
      <trkpt lat="42.95627" lon="-0.29072">
        <ele>1366</ele>
        <time>2019-06-16T16:55:45.245Z</time>
      </trkpt>
      <trkpt lat="42.9561" lon="-0.29069">
        <ele>1372.7</ele>
        <time>2019-06-16T16:55:45.520Z</time>
      </trkpt>
      <trkpt lat="42.9561" lon="-0.29069">
        <ele>1372.7</ele>
        <time>2019-06-16T16:55:45.520Z</time>
      </trkpt>
      <trkpt lat="42.9559" lon="-0.2906">
        <ele>1371.3</ele>
        <time>2019-06-16T16:55:45.858Z</time>
      </trkpt>
      <trkpt lat="42.9559" lon="-0.2906">
        <ele>1371.3</ele>
        <time>2019-06-16T16:55:45.858Z</time>
      </trkpt>
      <trkpt lat="42.95581" lon="-0.29054">
        <ele>1366.7</ele>
        <time>2019-06-16T16:55:46.019Z</time>
      </trkpt>
      <trkpt lat="42.95581" lon="-0.29054">
        <ele>1366.7</ele>
        <time>2019-06-16T16:55:46.019Z</time>
      </trkpt>
      <trkpt lat="42.95571" lon="-0.29042">
        <ele>1358.1</ele>
        <time>2019-06-16T16:55:46.232Z</time>
      </trkpt>
      <trkpt lat="42.95571" lon="-0.29042">
        <ele>1358.1</ele>
        <time>2019-06-16T16:55:46.232Z</time>
      </trkpt>
      <trkpt lat="42.95544" lon="-0.29011">
        <ele>1345.2</ele>
        <time>2019-06-16T16:55:46.797Z</time>
      </trkpt>
      <trkpt lat="42.95544" lon="-0.29011">
        <ele>1345.2</ele>
        <time>2019-06-16T16:55:46.797Z</time>
      </trkpt>
      <trkpt lat="42.95506" lon="-0.28971">
        <ele>1353.4</ele>
        <time>2019-06-16T16:55:47.566Z</time>
      </trkpt>
      <trkpt lat="42.95506" lon="-0.28971">
        <ele>1353.4</ele>
        <time>2019-06-16T16:55:47.566Z</time>
      </trkpt>
      <trkpt lat="42.955" lon="-0.28957">
        <ele>1353.5</ele>
        <time>2019-06-16T16:55:47.756Z</time>
      </trkpt>
      <trkpt lat="42.955" lon="-0.28957">
        <ele>1353.5</ele>
        <time>2019-06-16T16:55:47.756Z</time>
      </trkpt>
      <trkpt lat="42.95499" lon="-0.28949">
        <ele>1351.5</ele>
        <time>2019-06-16T16:55:47.851Z</time>
      </trkpt>
      <trkpt lat="42.95499" lon="-0.28949">
        <ele>1351.5</ele>
        <time>2019-06-16T16:55:47.851Z</time>
      </trkpt>
      <trkpt lat="42.95499" lon="-0.28933">
        <ele>1346.5</ele>
        <time>2019-06-16T16:55:48.039Z</time>
      </trkpt>
      <trkpt lat="42.95499" lon="-0.28933">
        <ele>1346.5</ele>
        <time>2019-06-16T16:55:48.039Z</time>
      </trkpt>
      <trkpt lat="42.95494" lon="-0.28922">
        <ele>1347.2</ele>
        <time>2019-06-16T16:55:48.191Z</time>
      </trkpt>
      <trkpt lat="42.95494" lon="-0.28922">
        <ele>1347.2</ele>
        <time>2019-06-16T16:55:48.191Z</time>
      </trkpt>
      <trkpt lat="42.95485" lon="-0.28909">
        <ele>1349.8</ele>
        <time>2019-06-16T16:55:48.401Z</time>
      </trkpt>
      <trkpt lat="42.95485" lon="-0.28909">
        <ele>1349.8</ele>
        <time>2019-06-16T16:55:48.401Z</time>
      </trkpt>
      <trkpt lat="42.95466" lon="-0.28889">
        <ele>1353.6</ele>
        <time>2019-06-16T16:55:48.786Z</time>
      </trkpt>
      <trkpt lat="42.95466" lon="-0.28889">
        <ele>1353.6</ele>
        <time>2019-06-16T16:55:48.786Z</time>
      </trkpt>
      <trkpt lat="42.95454" lon="-0.28875">
        <ele>1352.7</ele>
        <time>2019-06-16T16:55:49.039Z</time>
      </trkpt>
      <trkpt lat="42.95454" lon="-0.28875">
        <ele>1352.7</ele>
        <time>2019-06-16T16:55:49.039Z</time>
      </trkpt>
      <trkpt lat="42.95444" lon="-0.2886">
        <ele>1347.8</ele>
        <time>2019-06-16T16:55:49.277Z</time>
      </trkpt>
      <trkpt lat="42.95444" lon="-0.2886">
        <ele>1347.8</ele>
        <time>2019-06-16T16:55:49.278Z</time>
      </trkpt>
      <trkpt lat="42.95439" lon="-0.28845">
        <ele>1345.4</ele>
        <time>2019-06-16T16:55:49.471Z</time>
      </trkpt>
      <trkpt lat="42.95439" lon="-0.28845">
        <ele>1345.4</ele>
        <time>2019-06-16T16:55:49.471Z</time>
      </trkpt>
      <trkpt lat="42.95436" lon="-0.28824">
        <ele>1342.9</ele>
        <time>2019-06-16T16:55:49.722Z</time>
      </trkpt>
      <trkpt lat="42.95436" lon="-0.28824">
        <ele>1342.9</ele>
        <time>2019-06-16T16:55:49.724Z</time>
      </trkpt>
      <trkpt lat="42.95431" lon="-0.28794">
        <ele>1344.9</ele>
        <time>2019-06-16T16:55:50.085Z</time>
      </trkpt>
      <trkpt lat="42.95431" lon="-0.28794">
        <ele>1344.9</ele>
        <time>2019-06-16T16:55:50.085Z</time>
      </trkpt>
      <trkpt lat="42.95393" lon="-0.28688">
        <ele>1357.3</ele>
        <time>2019-06-16T16:55:51.470Z</time>
      </trkpt>
      <trkpt lat="42.95393" lon="-0.28688">
        <ele>1357.3</ele>
        <time>2019-06-16T16:55:51.470Z</time>
      </trkpt>
      <trkpt lat="42.95393" lon="-0.2867">
        <ele>1359.1</ele>
        <time>2019-06-16T16:55:51.681Z</time>
      </trkpt>
      <trkpt lat="42.95393" lon="-0.2867">
        <ele>1359.1</ele>
        <time>2019-06-16T16:55:51.681Z</time>
      </trkpt>
      <trkpt lat="42.95404" lon="-0.28646">
        <ele>1357.6</ele>
        <time>2019-06-16T16:55:52.013Z</time>
      </trkpt>
      <trkpt lat="42.95404" lon="-0.28646">
        <ele>1357.6</ele>
        <time>2019-06-16T16:55:52.013Z</time>
      </trkpt>
      <trkpt lat="42.95412" lon="-0.2863">
        <ele>1356.9</ele>
        <time>2019-06-16T16:55:52.240Z</time>
      </trkpt>
      <trkpt lat="42.95412" lon="-0.2863">
        <ele>1356.9</ele>
        <time>2019-06-16T16:55:52.240Z</time>
      </trkpt>
      <trkpt lat="42.95428" lon="-0.28589">
        <ele>1357.9</ele>
        <time>2019-06-16T16:55:52.785Z</time>
      </trkpt>
      <trkpt lat="42.95428" lon="-0.28589">
        <ele>1357.9</ele>
        <time>2019-06-16T16:55:52.785Z</time>
      </trkpt>
      <trkpt lat="42.95441" lon="-0.28564">
        <ele>1357.2</ele>
        <time>2019-06-16T16:55:53.145Z</time>
      </trkpt>
      <trkpt lat="42.95441" lon="-0.28564">
        <ele>1357.2</ele>
        <time>2019-06-16T16:55:53.146Z</time>
      </trkpt>
      <trkpt lat="42.95455" lon="-0.28534">
        <ele>1357.4</ele>
        <time>2019-06-16T16:55:53.563Z</time>
      </trkpt>
      <trkpt lat="42.95455" lon="-0.28534">
        <ele>1357.4</ele>
        <time>2019-06-16T16:55:53.563Z</time>
      </trkpt>
      <trkpt lat="42.95472" lon="-0.28497">
        <ele>1356.5</ele>
        <time>2019-06-16T16:55:54.076Z</time>
      </trkpt>
      <trkpt lat="42.95472" lon="-0.28497">
        <ele>1356.5</ele>
        <time>2019-06-16T16:55:54.076Z</time>
      </trkpt>
      <trkpt lat="42.95494" lon="-0.28457">
        <ele>1356.2</ele>
        <time>2019-06-16T16:55:54.663Z</time>
      </trkpt>
      <trkpt lat="42.95494" lon="-0.28457">
        <ele>1356.2</ele>
        <time>2019-06-16T16:55:54.663Z</time>
      </trkpt>
      <trkpt lat="42.95502" lon="-0.28429">
        <ele>1355.4</ele>
        <time>2019-06-16T16:55:55.016Z</time>
      </trkpt>
      <trkpt lat="42.95502" lon="-0.28429">
        <ele>1355.4</ele>
        <time>2019-06-16T16:55:55.016Z</time>
      </trkpt>
      <trkpt lat="42.95507" lon="-0.28394">
        <ele>1353.7</ele>
        <time>2019-06-16T16:55:55.434Z</time>
      </trkpt>
      <trkpt lat="42.95507" lon="-0.28394">
        <ele>1353.7</ele>
        <time>2019-06-16T16:55:55.434Z</time>
      </trkpt>
      <trkpt lat="42.95505" lon="-0.2838">
        <ele>1353.4</ele>
        <time>2019-06-16T16:55:55.601Z</time>
      </trkpt>
      <trkpt lat="42.95505" lon="-0.2838">
        <ele>1353.4</ele>
        <time>2019-06-16T16:55:55.601Z</time>
      </trkpt>
      <trkpt lat="42.95495" lon="-0.28354">
        <ele>1355.6</ele>
        <time>2019-06-16T16:55:55.946Z</time>
      </trkpt>
      <trkpt lat="42.95495" lon="-0.28354">
        <ele>1355.6</ele>
        <time>2019-06-16T16:55:55.946Z</time>
      </trkpt>
      <trkpt lat="42.95492" lon="-0.28347">
        <ele>1357</ele>
        <time>2019-06-16T16:55:56.041Z</time>
      </trkpt>
      <trkpt lat="42.95492" lon="-0.28347">
        <ele>1357</ele>
        <time>2019-06-16T16:55:56.041Z</time>
      </trkpt>
      <trkpt lat="42.95492" lon="-0.28336">
        <ele>1356</ele>
        <time>2019-06-16T16:55:56.170Z</time>
      </trkpt>
      <trkpt lat="42.95492" lon="-0.28336">
        <ele>1356</ele>
        <time>2019-06-16T16:55:56.170Z</time>
      </trkpt>
      <trkpt lat="42.95495" lon="-0.28316">
        <ele>1355.1</ele>
        <time>2019-06-16T16:55:56.410Z</time>
      </trkpt>
      <trkpt lat="42.95495" lon="-0.28316">
        <ele>1355.1</ele>
        <time>2019-06-16T16:55:56.410Z</time>
      </trkpt>
      <trkpt lat="42.95499" lon="-0.28243">
        <ele>1356.6</ele>
        <time>2019-06-16T16:55:57.269Z</time>
      </trkpt>
      <trkpt lat="42.95499" lon="-0.28243">
        <ele>1356.6</ele>
        <time>2019-06-16T16:55:57.269Z</time>
      </trkpt>
      <trkpt lat="42.95504" lon="-0.28177">
        <ele>1355.4</ele>
        <time>2019-06-16T16:55:58.048Z</time>
      </trkpt>
      <trkpt lat="42.95504" lon="-0.28177">
        <ele>1355.4</ele>
        <time>2019-06-16T16:55:58.048Z</time>
      </trkpt>
      <trkpt lat="42.95502" lon="-0.28159">
        <ele>1357.6</ele>
        <time>2019-06-16T16:55:58.262Z</time>
      </trkpt>
      <trkpt lat="42.95502" lon="-0.28159">
        <ele>1357.6</ele>
        <time>2019-06-16T16:55:58.262Z</time>
      </trkpt>
      <trkpt lat="42.95494" lon="-0.28134">
        <ele>1364.5</ele>
        <time>2019-06-16T16:55:58.582Z</time>
      </trkpt>
      <trkpt lat="42.95494" lon="-0.28134">
        <ele>1364.5</ele>
        <time>2019-06-16T16:55:58.582Z</time>
      </trkpt>
      <trkpt lat="42.9549" lon="-0.2812">
        <ele>1368.5</ele>
        <time>2019-06-16T16:55:58.758Z</time>
      </trkpt>
      <trkpt lat="42.9549" lon="-0.2812">
        <ele>1368.5</ele>
        <time>2019-06-16T16:55:58.758Z</time>
      </trkpt>
      <trkpt lat="42.95489" lon="-0.28104">
        <ele>1370.6</ele>
        <time>2019-06-16T16:55:58.946Z</time>
      </trkpt>
      <trkpt lat="42.95489" lon="-0.28104">
        <ele>1370.6</ele>
        <time>2019-06-16T16:55:58.946Z</time>
      </trkpt>
      <trkpt lat="42.95497" lon="-0.28081">
        <ele>1370.2</ele>
        <time>2019-06-16T16:55:59.245Z</time>
      </trkpt>
      <trkpt lat="42.95497" lon="-0.28081">
        <ele>1370.2</ele>
        <time>2019-06-16T16:55:59.245Z</time>
      </trkpt>
      <trkpt lat="42.95511" lon="-0.28053">
        <ele>1371.8</ele>
        <time>2019-06-16T16:55:59.643Z</time>
      </trkpt>
      <trkpt lat="42.95511" lon="-0.28053">
        <ele>1371.8</ele>
        <time>2019-06-16T16:55:59.644Z</time>
      </trkpt>
      <trkpt lat="42.95521" lon="-0.28018">
        <ele>1374.3</ele>
        <time>2019-06-16T16:56:00.085Z</time>
      </trkpt>
      <trkpt lat="42.95521" lon="-0.28018">
        <ele>1374.3</ele>
        <time>2019-06-16T16:56:00.085Z</time>
      </trkpt>
      <trkpt lat="42.95527" lon="-0.27985">
        <ele>1377.3</ele>
        <time>2019-06-16T16:56:00.484Z</time>
      </trkpt>
      <trkpt lat="42.95527" lon="-0.27985">
        <ele>1377.3</ele>
        <time>2019-06-16T16:56:00.484Z</time>
      </trkpt>
      <trkpt lat="42.95535" lon="-0.27921">
        <ele>1384.4</ele>
        <time>2019-06-16T16:56:01.246Z</time>
      </trkpt>
      <trkpt lat="42.95535" lon="-0.27921">
        <ele>1384.4</ele>
        <time>2019-06-16T16:56:01.246Z</time>
      </trkpt>
      <trkpt lat="42.95537" lon="-0.27897">
        <ele>1384.2</ele>
        <time>2019-06-16T16:56:01.529Z</time>
      </trkpt>
      <trkpt lat="42.95537" lon="-0.27897">
        <ele>1384.2</ele>
        <time>2019-06-16T16:56:01.529Z</time>
      </trkpt>
      <trkpt lat="42.95542" lon="-0.27816">
        <ele>1386.3</ele>
        <time>2019-06-16T16:56:02.483Z</time>
      </trkpt>
      <trkpt lat="42.95542" lon="-0.27816">
        <ele>1386.3</ele>
        <time>2019-06-16T16:56:02.484Z</time>
      </trkpt>
      <trkpt lat="42.95542" lon="-0.27801">
        <ele>1387.1</ele>
        <time>2019-06-16T16:56:02.660Z</time>
      </trkpt>
      <trkpt lat="42.95542" lon="-0.27801">
        <ele>1387.1</ele>
        <time>2019-06-16T16:56:02.661Z</time>
      </trkpt>
      <trkpt lat="42.95537" lon="-0.27777">
        <ele>1390</ele>
        <time>2019-06-16T16:56:02.954Z</time>
      </trkpt>
      <trkpt lat="42.95537" lon="-0.27777">
        <ele>1390</ele>
        <time>2019-06-16T16:56:02.954Z</time>
      </trkpt>
      <trkpt lat="42.95532" lon="-0.27753">
        <ele>1391.8</ele>
        <time>2019-06-16T16:56:03.247Z</time>
      </trkpt>
      <trkpt lat="42.95532" lon="-0.27753">
        <ele>1391.8</ele>
        <time>2019-06-16T16:56:03.247Z</time>
      </trkpt>
      <trkpt lat="42.95532" lon="-0.27735">
        <ele>1393.3</ele>
        <time>2019-06-16T16:56:03.458Z</time>
      </trkpt>
      <trkpt lat="42.95532" lon="-0.27735">
        <ele>1393.3</ele>
        <time>2019-06-16T16:56:03.458Z</time>
      </trkpt>
      <trkpt lat="42.95537" lon="-0.2772">
        <ele>1394.4</ele>
        <time>2019-06-16T16:56:03.651Z</time>
      </trkpt>
      <trkpt lat="42.95537" lon="-0.2772">
        <ele>1394.4</ele>
        <time>2019-06-16T16:56:03.651Z</time>
      </trkpt>
      <trkpt lat="42.95549" lon="-0.27704">
        <ele>1396.3</ele>
        <time>2019-06-16T16:56:03.920Z</time>
      </trkpt>
      <trkpt lat="42.95549" lon="-0.27704">
        <ele>1396.3</ele>
        <time>2019-06-16T16:56:03.920Z</time>
      </trkpt>
      <trkpt lat="42.95576" lon="-0.27677">
        <ele>1400.6</ele>
        <time>2019-06-16T16:56:04.456Z</time>
      </trkpt>
      <trkpt lat="42.95576" lon="-0.27677">
        <ele>1400.6</ele>
        <time>2019-06-16T16:56:04.456Z</time>
      </trkpt>
      <trkpt lat="42.95616" lon="-0.2764">
        <ele>1404.5</ele>
        <time>2019-06-16T16:56:05.230Z</time>
      </trkpt>
      <trkpt lat="42.95616" lon="-0.2764">
        <ele>1404.5</ele>
        <time>2019-06-16T16:56:05.230Z</time>
      </trkpt>
      <trkpt lat="42.95636" lon="-0.27626">
        <ele>1406.5</ele>
        <time>2019-06-16T16:56:05.590Z</time>
      </trkpt>
      <trkpt lat="42.95636" lon="-0.27626">
        <ele>1406.5</ele>
        <time>2019-06-16T16:56:05.590Z</time>
      </trkpt>
      <trkpt lat="42.95646" lon="-0.2762">
        <ele>1408.8</ele>
        <time>2019-06-16T16:56:05.765Z</time>
      </trkpt>
      <trkpt lat="42.95646" lon="-0.2762">
        <ele>1408.8</ele>
        <time>2019-06-16T16:56:05.765Z</time>
      </trkpt>
      <trkpt lat="42.95654" lon="-0.27619">
        <ele>1410.6</ele>
        <time>2019-06-16T16:56:05.894Z</time>
      </trkpt>
      <trkpt lat="42.95654" lon="-0.27619">
        <ele>1410.6</ele>
        <time>2019-06-16T16:56:05.894Z</time>
      </trkpt>
      <trkpt lat="42.95676" lon="-0.27626">
        <ele>1412.5</ele>
        <time>2019-06-16T16:56:06.256Z</time>
      </trkpt>
      <trkpt lat="42.95676" lon="-0.27626">
        <ele>1412.5</ele>
        <time>2019-06-16T16:56:06.256Z</time>
      </trkpt>
      <trkpt lat="42.95688" lon="-0.2763">
        <ele>1413.3</ele>
        <time>2019-06-16T16:56:06.454Z</time>
      </trkpt>
      <trkpt lat="42.95688" lon="-0.2763">
        <ele>1413.3</ele>
        <time>2019-06-16T16:56:06.454Z</time>
      </trkpt>
      <trkpt lat="42.95699" lon="-0.27631">
        <ele>1414.6</ele>
        <time>2019-06-16T16:56:06.631Z</time>
      </trkpt>
      <trkpt lat="42.95699" lon="-0.27631">
        <ele>1414.6</ele>
        <time>2019-06-16T16:56:06.631Z</time>
      </trkpt>
      <trkpt lat="42.95722" lon="-0.27633">
        <ele>1416.1</ele>
        <time>2019-06-16T16:56:07.000Z</time>
      </trkpt>
      <trkpt lat="42.95722" lon="-0.27633">
        <ele>1416.1</ele>
        <time>2019-06-16T16:56:07.000Z</time>
      </trkpt>
      <trkpt lat="42.9573" lon="-0.27635">
        <ele>1417.5</ele>
        <time>2019-06-16T16:56:07.130Z</time>
      </trkpt>
      <trkpt lat="42.9573" lon="-0.27635">
        <ele>1417.5</ele>
        <time>2019-06-16T16:56:07.130Z</time>
      </trkpt>
      <trkpt lat="42.95751" lon="-0.27649">
        <ele>1419.2</ele>
        <time>2019-06-16T16:56:07.505Z</time>
      </trkpt>
      <trkpt lat="42.95751" lon="-0.27649">
        <ele>1419.2</ele>
        <time>2019-06-16T16:56:07.505Z</time>
      </trkpt>
      <trkpt lat="42.95763" lon="-0.27658">
        <ele>1418.4</ele>
        <time>2019-06-16T16:56:07.724Z</time>
      </trkpt>
      <trkpt lat="42.95763" lon="-0.27658">
        <ele>1418.4</ele>
        <time>2019-06-16T16:56:07.724Z</time>
      </trkpt>
      <trkpt lat="42.95774" lon="-0.2766">
        <ele>1419.4</ele>
        <time>2019-06-16T16:56:07.902Z</time>
      </trkpt>
      <trkpt lat="42.95774" lon="-0.2766">
        <ele>1419.4</ele>
        <time>2019-06-16T16:56:07.902Z</time>
      </trkpt>
      <trkpt lat="42.95779" lon="-0.27658">
        <ele>1419.9</ele>
        <time>2019-06-16T16:56:07.986Z</time>
      </trkpt>
      <trkpt lat="42.95779" lon="-0.27658">
        <ele>1419.9</ele>
        <time>2019-06-16T16:56:07.987Z</time>
      </trkpt>
      <trkpt lat="42.95783" lon="-0.27653">
        <ele>1419.2</ele>
        <time>2019-06-16T16:56:08.074Z</time>
      </trkpt>
      <trkpt lat="42.95783" lon="-0.27653">
        <ele>1419.2</ele>
        <time>2019-06-16T16:56:08.075Z</time>
      </trkpt>
      <trkpt lat="42.95789" lon="-0.27639">
        <ele>1419.9</ele>
        <time>2019-06-16T16:56:08.265Z</time>
      </trkpt>
      <trkpt lat="42.95789" lon="-0.27639">
        <ele>1419.9</ele>
        <time>2019-06-16T16:56:08.265Z</time>
      </trkpt>
      <trkpt lat="42.95809" lon="-0.27564">
        <ele>1429.2</ele>
        <time>2019-06-16T16:56:09.202Z</time>
      </trkpt>
      <trkpt lat="42.95809" lon="-0.27564">
        <ele>1429.2</ele>
        <time>2019-06-16T16:56:09.202Z</time>
      </trkpt>
      <trkpt lat="42.95818" lon="-0.27514">
        <ele>1436.5</ele>
        <time>2019-06-16T16:56:09.806Z</time>
      </trkpt>
      <trkpt lat="42.95818" lon="-0.27514">
        <ele>1436.5</ele>
        <time>2019-06-16T16:56:09.807Z</time>
      </trkpt>
      <trkpt lat="42.95824" lon="-0.27489">
        <ele>1437.8</ele>
        <time>2019-06-16T16:56:10.116Z</time>
      </trkpt>
      <trkpt lat="42.95824" lon="-0.27489">
        <ele>1437.8</ele>
        <time>2019-06-16T16:56:10.116Z</time>
      </trkpt>
      <trkpt lat="42.9584" lon="-0.27458">
        <ele>1434.5</ele>
        <time>2019-06-16T16:56:10.561Z</time>
      </trkpt>
      <trkpt lat="42.9584" lon="-0.27458">
        <ele>1434.5</ele>
        <time>2019-06-16T16:56:10.561Z</time>
      </trkpt>
      <trkpt lat="42.95845" lon="-0.2744">
        <ele>1435.5</ele>
        <time>2019-06-16T16:56:10.787Z</time>
      </trkpt>
      <trkpt lat="42.95845" lon="-0.2744">
        <ele>1435.5</ele>
        <time>2019-06-16T16:56:10.787Z</time>
      </trkpt>
      <trkpt lat="42.95844" lon="-0.27431">
        <ele>1434.1</ele>
        <time>2019-06-16T16:56:10.894Z</time>
      </trkpt>
      <trkpt lat="42.95844" lon="-0.27431">
        <ele>1434.1</ele>
        <time>2019-06-16T16:56:10.894Z</time>
      </trkpt>
      <trkpt lat="42.9584" lon="-0.27413">
        <ele>1431.9</ele>
        <time>2019-06-16T16:56:11.115Z</time>
      </trkpt>
      <trkpt lat="42.9584" lon="-0.27413">
        <ele>1431.9</ele>
        <time>2019-06-16T16:56:11.115Z</time>
      </trkpt>
      <trkpt lat="42.95818" lon="-0.27362">
        <ele>1434.7</ele>
        <time>2019-06-16T16:56:11.810Z</time>
      </trkpt>
      <trkpt lat="42.95818" lon="-0.27362">
        <ele>1434.7</ele>
        <time>2019-06-16T16:56:11.811Z</time>
      </trkpt>
      <trkpt lat="42.9581" lon="-0.27333">
        <ele>1436.6</ele>
        <time>2019-06-16T16:56:12.175Z</time>
      </trkpt>
      <trkpt lat="42.9581" lon="-0.27333">
        <ele>1436.6</ele>
        <time>2019-06-16T16:56:12.175Z</time>
      </trkpt>
      <trkpt lat="42.95808" lon="-0.27319">
        <ele>1436.2</ele>
        <time>2019-06-16T16:56:12.342Z</time>
      </trkpt>
      <trkpt lat="42.95808" lon="-0.27319">
        <ele>1436.2</ele>
        <time>2019-06-16T16:56:12.342Z</time>
      </trkpt>
      <trkpt lat="42.95805" lon="-0.27287">
        <ele>1435.7</ele>
        <time>2019-06-16T16:56:12.721Z</time>
      </trkpt>
      <trkpt lat="42.95805" lon="-0.27287">
        <ele>1435.7</ele>
        <time>2019-06-16T16:56:12.721Z</time>
      </trkpt>
      <trkpt lat="42.95807" lon="-0.27266">
        <ele>1435.7</ele>
        <time>2019-06-16T16:56:12.969Z</time>
      </trkpt>
      <trkpt lat="42.95807" lon="-0.27266">
        <ele>1435.7</ele>
        <time>2019-06-16T16:56:12.969Z</time>
      </trkpt>
      <trkpt lat="42.95827" lon="-0.27201">
        <ele>1438.1</ele>
        <time>2019-06-16T16:56:13.796Z</time>
      </trkpt>
      <trkpt lat="42.95827" lon="-0.27201">
        <ele>1438.1</ele>
        <time>2019-06-16T16:56:13.796Z</time>
      </trkpt>
      <trkpt lat="42.95834" lon="-0.27173">
        <ele>1436.4</ele>
        <time>2019-06-16T16:56:14.143Z</time>
      </trkpt>
      <trkpt lat="42.95834" lon="-0.27173">
        <ele>1436.4</ele>
        <time>2019-06-16T16:56:14.143Z</time>
      </trkpt>
      <trkpt lat="42.95835" lon="-0.27147">
        <ele>1436.1</ele>
        <time>2019-06-16T16:56:14.448Z</time>
      </trkpt>
      <trkpt lat="42.95835" lon="-0.27147">
        <ele>1436.1</ele>
        <time>2019-06-16T16:56:14.449Z</time>
      </trkpt>
      <trkpt lat="42.95831" lon="-0.27101">
        <ele>1436.3</ele>
        <time>2019-06-16T16:56:14.992Z</time>
      </trkpt>
      <trkpt lat="42.95831" lon="-0.27101">
        <ele>1436.3</ele>
        <time>2019-06-16T16:56:14.992Z</time>
      </trkpt>
      <trkpt lat="42.95827" lon="-0.27077">
        <ele>1438.4</ele>
        <time>2019-06-16T16:56:15.281Z</time>
      </trkpt>
      <trkpt lat="42.95827" lon="-0.27077">
        <ele>1438.4</ele>
        <time>2019-06-16T16:56:15.281Z</time>
      </trkpt>
      <trkpt lat="42.95829" lon="-0.2706">
        <ele>1438.2</ele>
        <time>2019-06-16T16:56:15.483Z</time>
      </trkpt>
      <trkpt lat="42.95829" lon="-0.2706">
        <ele>1438.2</ele>
        <time>2019-06-16T16:56:15.483Z</time>
      </trkpt>
      <trkpt lat="42.95838" lon="-0.27039">
        <ele>1438.8</ele>
        <time>2019-06-16T16:56:15.769Z</time>
      </trkpt>
      <trkpt lat="42.95838" lon="-0.27039">
        <ele>1438.8</ele>
        <time>2019-06-16T16:56:15.769Z</time>
      </trkpt>
      <trkpt lat="42.95853" lon="-0.27019">
        <ele>1438.5</ele>
        <time>2019-06-16T16:56:16.105Z</time>
      </trkpt>
      <trkpt lat="42.95853" lon="-0.27019">
        <ele>1438.5</ele>
        <time>2019-06-16T16:56:16.106Z</time>
      </trkpt>
      <trkpt lat="42.95863" lon="-0.26998">
        <ele>1438.4</ele>
        <time>2019-06-16T16:56:16.400Z</time>
      </trkpt>
      <trkpt lat="42.95863" lon="-0.26998">
        <ele>1438.4</ele>
        <time>2019-06-16T16:56:16.400Z</time>
      </trkpt>
      <trkpt lat="42.95874" lon="-0.26956">
        <ele>1440.4</ele>
        <time>2019-06-16T16:56:16.923Z</time>
      </trkpt>
      <trkpt lat="42.95874" lon="-0.26956">
        <ele>1440.4</ele>
        <time>2019-06-16T16:56:16.923Z</time>
      </trkpt>
      <trkpt lat="42.95881" lon="-0.26935">
        <ele>1440.3</ele>
        <time>2019-06-16T16:56:17.194Z</time>
      </trkpt>
      <trkpt lat="42.95881" lon="-0.26935">
        <ele>1440.3</ele>
        <time>2019-06-16T16:56:17.194Z</time>
      </trkpt>
      <trkpt lat="42.95886" lon="-0.26924">
        <ele>1438.9</ele>
        <time>2019-06-16T16:56:17.346Z</time>
      </trkpt>
      <trkpt lat="42.95886" lon="-0.26924">
        <ele>1438.9</ele>
        <time>2019-06-16T16:56:17.346Z</time>
      </trkpt>
      <trkpt lat="42.95911" lon="-0.26891">
        <ele>1438.3</ele>
        <time>2019-06-16T16:56:17.903Z</time>
      </trkpt>
      <trkpt lat="42.95911" lon="-0.26891">
        <ele>1438.3</ele>
        <time>2019-06-16T16:56:17.903Z</time>
      </trkpt>
      <trkpt lat="42.95932" lon="-0.26851">
        <ele>1443</ele>
        <time>2019-06-16T16:56:18.481Z</time>
      </trkpt>
      <trkpt lat="42.95932" lon="-0.26851">
        <ele>1443</ele>
        <time>2019-06-16T16:56:18.481Z</time>
      </trkpt>
      <trkpt lat="42.95936" lon="-0.26831">
        <ele>1442.2</ele>
        <time>2019-06-16T16:56:18.724Z</time>
      </trkpt>
      <trkpt lat="42.95936" lon="-0.26831">
        <ele>1442.2</ele>
        <time>2019-06-16T16:56:18.725Z</time>
      </trkpt>
      <trkpt lat="42.9594" lon="-0.26787">
        <ele>1441.4</ele>
        <time>2019-06-16T16:56:19.245Z</time>
      </trkpt>
      <trkpt lat="42.9594" lon="-0.26787">
        <ele>1441.4</ele>
        <time>2019-06-16T16:56:19.245Z</time>
      </trkpt>
      <trkpt lat="42.95947" lon="-0.26742">
        <ele>1442.2</ele>
        <time>2019-06-16T16:56:19.785Z</time>
      </trkpt>
      <trkpt lat="42.95947" lon="-0.26742">
        <ele>1442.2</ele>
        <time>2019-06-16T16:56:19.785Z</time>
      </trkpt>
      <trkpt lat="42.95955" lon="-0.26697">
        <ele>1444</ele>
        <time>2019-06-16T16:56:20.328Z</time>
      </trkpt>
      <trkpt lat="42.95955" lon="-0.26697">
        <ele>1444</ele>
        <time>2019-06-16T16:56:20.329Z</time>
      </trkpt>
      <trkpt lat="42.95976" lon="-0.26591">
        <ele>1445.4</ele>
        <time>2019-06-16T16:56:21.617Z</time>
      </trkpt>
      <trkpt lat="42.95976" lon="-0.26591">
        <ele>1445.4</ele>
        <time>2019-06-16T16:56:21.617Z</time>
      </trkpt>
      <trkpt lat="42.95985" lon="-0.26543">
        <ele>1447.4</ele>
        <time>2019-06-16T16:56:22.198Z</time>
      </trkpt>
      <trkpt lat="42.95985" lon="-0.26543">
        <ele>1447.4</ele>
        <time>2019-06-16T16:56:22.198Z</time>
      </trkpt>
      <trkpt lat="42.95993" lon="-0.26491">
        <ele>1451.2</ele>
        <time>2019-06-16T16:56:22.821Z</time>
      </trkpt>
      <trkpt lat="42.95993" lon="-0.26491">
        <ele>1451.2</ele>
        <time>2019-06-16T16:56:22.821Z</time>
      </trkpt>
      <trkpt lat="42.9601" lon="-0.26454">
        <ele>1454.2</ele>
        <time>2019-06-16T16:56:23.334Z</time>
      </trkpt>
      <trkpt lat="42.9601" lon="-0.26454">
        <ele>1454.2</ele>
        <time>2019-06-16T16:56:23.334Z</time>
      </trkpt>
      <trkpt lat="42.96023" lon="-0.26426">
        <ele>1455.4</ele>
        <time>2019-06-16T16:56:23.723Z</time>
      </trkpt>
      <trkpt lat="42.96023" lon="-0.26426">
        <ele>1455.4</ele>
        <time>2019-06-16T16:56:23.723Z</time>
      </trkpt>
      <trkpt lat="42.96039" lon="-0.2638">
        <ele>1458.8</ele>
        <time>2019-06-16T16:56:24.321Z</time>
      </trkpt>
      <trkpt lat="42.96039" lon="-0.2638">
        <ele>1458.8</ele>
        <time>2019-06-16T16:56:24.321Z</time>
      </trkpt>
      <trkpt lat="42.96046" lon="-0.26342">
        <ele>1460.7</ele>
        <time>2019-06-16T16:56:24.781Z</time>
      </trkpt>
      <trkpt lat="42.96046" lon="-0.26342">
        <ele>1460.7</ele>
        <time>2019-06-16T16:56:24.781Z</time>
      </trkpt>
      <trkpt lat="42.96055" lon="-0.26282">
        <ele>1463.9</ele>
        <time>2019-06-16T16:56:25.500Z</time>
      </trkpt>
      <trkpt lat="42.96055" lon="-0.26282">
        <ele>1463.9</ele>
        <time>2019-06-16T16:56:25.500Z</time>
      </trkpt>
      <trkpt lat="42.96061" lon="-0.2621">
        <ele>1467.8</ele>
        <time>2019-06-16T16:56:26.350Z</time>
      </trkpt>
      <trkpt lat="42.96061" lon="-0.2621">
        <ele>1467.8</ele>
        <time>2019-06-16T16:56:26.350Z</time>
      </trkpt>
      <trkpt lat="42.96065" lon="-0.26152">
        <ele>1471.3</ele>
        <time>2019-06-16T16:56:27.033Z</time>
      </trkpt>
      <trkpt lat="42.96065" lon="-0.26152">
        <ele>1471.3</ele>
        <time>2019-06-16T16:56:27.035Z</time>
      </trkpt>
      <trkpt lat="42.96064" lon="-0.26145">
        <ele>1471.6</ele>
        <time>2019-06-16T16:56:27.119Z</time>
      </trkpt>
    </trkseg>
  </trk>
</gpx>